<?xml version="1.0" encoding="UTF-8" standalone="no" ?>
<gpx xmlns="http://www.topografix.com/GPX/1/1" xmlns:xsi="http://www.w3.org/2001/XMLSchema-instance" xsi:schemaLocation="http://www.topografix.com/GPX/1/1 http://www.topografix.com/GPX/1/1/gpx.xsd" version="1.1" creator="VisuGPX - https://www.visugpx.com">
  <metadata>
    <name>La Cochette et le Mont Outheran - CHARTREUSE</name>
    <desc><![CDATA[La Cochette et le Mont Outheran - CHARTREUSE]]></desc>
  </metadata>
  <trk>
    <name><![CDATA[Entremont-le-Vieux Course à pied]]></name>
    <trkseg>
      <trkpt lat="45.45949" lon="5.85773">
        <ele>1198.1999511719</ele>
        <time>2016-09-10T05:32:27.000Z</time>
      </trkpt>
      <trkpt lat="45.45938" lon="5.85763">
        <ele>1198.8000488281</ele>
        <time>2016-09-10T05:33:03.000Z</time>
      </trkpt>
      <trkpt lat="45.45938" lon="5.85749">
        <ele>1199.8000488281</ele>
        <time>2016-09-10T05:33:13.000Z</time>
      </trkpt>
      <trkpt lat="45.45942" lon="5.85737">
        <ele>1200.5999755859</ele>
        <time>2016-09-10T05:33:21.000Z</time>
      </trkpt>
      <trkpt lat="45.45942" lon="5.85737">
        <ele>1200.5999755859</ele>
        <time>2016-09-10T05:33:25.000Z</time>
      </trkpt>
      <trkpt lat="45.45942" lon="5.85737">
        <ele>1200.5999755859</ele>
        <time>2016-09-10T05:33:27.000Z</time>
      </trkpt>
      <trkpt lat="45.45942" lon="5.85737">
        <ele>1200.5999755859</ele>
        <time>2016-09-10T05:33:29.000Z</time>
      </trkpt>
      <trkpt lat="45.45942" lon="5.85737">
        <ele>1200.5999755859</ele>
        <time>2016-09-10T05:33:31.000Z</time>
      </trkpt>
      <trkpt lat="45.45942" lon="5.85737">
        <ele>1200.5999755859</ele>
        <time>2016-09-10T05:33:33.000Z</time>
      </trkpt>
      <trkpt lat="45.45944" lon="5.85723">
        <ele>1202</ele>
        <time>2016-09-10T05:33:45.000Z</time>
      </trkpt>
      <trkpt lat="45.45946" lon="5.85715">
        <ele>1202.8000488281</ele>
        <time>2016-09-10T05:33:47.000Z</time>
      </trkpt>
      <trkpt lat="45.45946" lon="5.85715">
        <ele>1202.8000488281</ele>
        <time>2016-09-10T05:33:49.000Z</time>
      </trkpt>
      <trkpt lat="45.45946" lon="5.85715">
        <ele>1202.8000488281</ele>
        <time>2016-09-10T05:33:51.000Z</time>
      </trkpt>
      <trkpt lat="45.45946" lon="5.85715">
        <ele>1202.8000488281</ele>
        <time>2016-09-10T05:33:53.000Z</time>
      </trkpt>
      <trkpt lat="45.45949" lon="5.85703">
        <ele>1204</ele>
        <time>2016-09-10T05:33:59.000Z</time>
      </trkpt>
      <trkpt lat="45.45951" lon="5.85696">
        <ele>1204.8000488281</ele>
        <time>2016-09-10T05:34:01.000Z</time>
      </trkpt>
      <trkpt lat="45.45953" lon="5.8569">
        <ele>1205.5999755859</ele>
        <time>2016-09-10T05:34:05.000Z</time>
      </trkpt>
      <trkpt lat="45.45953" lon="5.8569">
        <ele>1205.5999755859</ele>
        <time>2016-09-10T05:34:09.000Z</time>
      </trkpt>
      <trkpt lat="45.45953" lon="5.8569">
        <ele>1205.5999755859</ele>
        <time>2016-09-10T05:34:11.000Z</time>
      </trkpt>
      <trkpt lat="45.45961" lon="5.85674">
        <ele>1207.1999511719</ele>
        <time>2016-09-10T05:34:33.000Z</time>
      </trkpt>
      <trkpt lat="45.45964" lon="5.85665">
        <ele>1209.1999511719</ele>
        <time>2016-09-10T05:34:35.000Z</time>
      </trkpt>
      <trkpt lat="45.45966" lon="5.85659">
        <ele>1210.1999511719</ele>
        <time>2016-09-10T05:34:37.000Z</time>
      </trkpt>
      <trkpt lat="45.45968" lon="5.85652">
        <ele>1211.5999755859</ele>
        <time>2016-09-10T05:34:43.000Z</time>
      </trkpt>
      <trkpt lat="45.45969" lon="5.85645">
        <ele>1213.5999755859</ele>
        <time>2016-09-10T05:34:47.000Z</time>
      </trkpt>
      <trkpt lat="45.45971" lon="5.85639">
        <ele>1216</ele>
        <time>2016-09-10T05:34:53.000Z</time>
      </trkpt>
      <trkpt lat="45.45973" lon="5.85633">
        <ele>1218.1999511719</ele>
        <time>2016-09-10T05:34:59.000Z</time>
      </trkpt>
      <trkpt lat="45.45975" lon="5.85626">
        <ele>1220.8000488281</ele>
        <time>2016-09-10T05:35:05.000Z</time>
      </trkpt>
      <trkpt lat="45.45976" lon="5.85619">
        <ele>1222.4000244141</ele>
        <time>2016-09-10T05:35:11.000Z</time>
      </trkpt>
      <trkpt lat="45.45976" lon="5.85619">
        <ele>1222.4000244141</ele>
        <time>2016-09-10T05:35:17.000Z</time>
      </trkpt>
      <trkpt lat="45.45976" lon="5.85619">
        <ele>1222.4000244141</ele>
        <time>2016-09-10T05:35:19.000Z</time>
      </trkpt>
      <trkpt lat="45.45977" lon="5.85604">
        <ele>1226.5999755859</ele>
        <time>2016-09-10T05:35:33.000Z</time>
      </trkpt>
      <trkpt lat="45.45979" lon="5.85595">
        <ele>1228.8000488281</ele>
        <time>2016-09-10T05:35:35.000Z</time>
      </trkpt>
      <trkpt lat="45.4598" lon="5.85588">
        <ele>1229.5999755859</ele>
        <time>2016-09-10T05:35:39.000Z</time>
      </trkpt>
      <trkpt lat="45.4598" lon="5.85588">
        <ele>1229.5999755859</ele>
        <time>2016-09-10T05:35:45.000Z</time>
      </trkpt>
      <trkpt lat="45.4598" lon="5.85588">
        <ele>1229.5999755859</ele>
        <time>2016-09-10T05:35:47.000Z</time>
      </trkpt>
      <trkpt lat="45.45927" lon="5.85496">
        <ele>1253.1999511719</ele>
        <time>2016-09-10T05:39:19.000Z</time>
      </trkpt>
      <trkpt lat="45.45899" lon="5.8545">
        <ele>1262.1999511719</ele>
        <time>2016-09-10T05:39:21.000Z</time>
      </trkpt>
      <trkpt lat="45.45884" lon="5.85425">
        <ele>1265</ele>
        <time>2016-09-10T05:39:23.000Z</time>
      </trkpt>
      <trkpt lat="45.45875" lon="5.85412">
        <ele>1266</ele>
        <time>2016-09-10T05:39:25.000Z</time>
      </trkpt>
      <trkpt lat="45.45869" lon="5.85404">
        <ele>1266.5999755859</ele>
        <time>2016-09-10T05:39:27.000Z</time>
      </trkpt>
      <trkpt lat="45.45862" lon="5.85395">
        <ele>1267.4000244141</ele>
        <time>2016-09-10T05:39:29.000Z</time>
      </trkpt>
      <trkpt lat="45.45862" lon="5.85395">
        <ele>1267.4000244141</ele>
        <time>2016-09-10T05:39:35.000Z</time>
      </trkpt>
      <trkpt lat="45.45862" lon="5.85395">
        <ele>1267.4000244141</ele>
        <time>2016-09-10T05:39:37.000Z</time>
      </trkpt>
      <trkpt lat="45.4584" lon="5.8538">
        <ele>1271.1999511719</ele>
        <time>2016-09-10T05:39:51.000Z</time>
      </trkpt>
      <trkpt lat="45.4584" lon="5.8538">
        <ele>1271.1999511719</ele>
        <time>2016-09-10T05:39:53.000Z</time>
      </trkpt>
      <trkpt lat="45.4584" lon="5.8538">
        <ele>1271.1999511719</ele>
        <time>2016-09-10T05:39:55.000Z</time>
      </trkpt>
      <trkpt lat="45.4584" lon="5.8538">
        <ele>1271.1999511719</ele>
        <time>2016-09-10T05:39:57.000Z</time>
      </trkpt>
      <trkpt lat="45.4584" lon="5.8538">
        <ele>1271.1999511719</ele>
        <time>2016-09-10T05:39:59.000Z</time>
      </trkpt>
      <trkpt lat="45.4584" lon="5.8538">
        <ele>1271.1999511719</ele>
        <time>2016-09-10T05:40:13.000Z</time>
      </trkpt>
      <trkpt lat="45.4584" lon="5.8538">
        <ele>1271.1999511719</ele>
        <time>2016-09-10T05:40:15.000Z</time>
      </trkpt>
      <trkpt lat="45.45811" lon="5.85354">
        <ele>1278.1999511719</ele>
        <time>2016-09-10T05:41:39.000Z</time>
      </trkpt>
      <trkpt lat="45.45798" lon="5.8534">
        <ele>1282</ele>
        <time>2016-09-10T05:41:41.000Z</time>
      </trkpt>
      <trkpt lat="45.45791" lon="5.85332">
        <ele>1283.5999755859</ele>
        <time>2016-09-10T05:41:43.000Z</time>
      </trkpt>
      <trkpt lat="45.45788" lon="5.85326">
        <ele>1284.5999755859</ele>
        <time>2016-09-10T05:41:45.000Z</time>
      </trkpt>
      <trkpt lat="45.45788" lon="5.85326">
        <ele>1284.5999755859</ele>
        <time>2016-09-10T05:41:47.000Z</time>
      </trkpt>
      <trkpt lat="45.45788" lon="5.85326">
        <ele>1284.5999755859</ele>
        <time>2016-09-10T05:41:49.000Z</time>
      </trkpt>
      <trkpt lat="45.45788" lon="5.85326">
        <ele>1284.5999755859</ele>
        <time>2016-09-10T05:41:51.000Z</time>
      </trkpt>
      <trkpt lat="45.45785" lon="5.85316">
        <ele>1286.5999755859</ele>
        <time>2016-09-10T05:41:57.000Z</time>
      </trkpt>
      <trkpt lat="45.45783" lon="5.85308">
        <ele>1287.5999755859</ele>
        <time>2016-09-10T05:41:59.000Z</time>
      </trkpt>
      <trkpt lat="45.45781" lon="5.85301">
        <ele>1288.4000244141</ele>
        <time>2016-09-10T05:42:03.000Z</time>
      </trkpt>
      <trkpt lat="45.4578" lon="5.85294">
        <ele>1289.1999511719</ele>
        <time>2016-09-10T05:42:07.000Z</time>
      </trkpt>
      <trkpt lat="45.4578" lon="5.85287">
        <ele>1290</ele>
        <time>2016-09-10T05:42:11.000Z</time>
      </trkpt>
      <trkpt lat="45.45779" lon="5.85281">
        <ele>1290.4000244141</ele>
        <time>2016-09-10T05:42:15.000Z</time>
      </trkpt>
      <trkpt lat="45.45779" lon="5.85273">
        <ele>1291</ele>
        <time>2016-09-10T05:42:21.000Z</time>
      </trkpt>
      <trkpt lat="45.45779" lon="5.85266">
        <ele>1291.4000244141</ele>
        <time>2016-09-10T05:42:25.000Z</time>
      </trkpt>
      <trkpt lat="45.45779" lon="5.85258">
        <ele>1292.1999511719</ele>
        <time>2016-09-10T05:42:31.000Z</time>
      </trkpt>
      <trkpt lat="45.45779" lon="5.85251">
        <ele>1293</ele>
        <time>2016-09-10T05:42:35.000Z</time>
      </trkpt>
      <trkpt lat="45.4578" lon="5.85244">
        <ele>1293.8000488281</ele>
        <time>2016-09-10T05:42:39.000Z</time>
      </trkpt>
      <trkpt lat="45.45781" lon="5.85237">
        <ele>1294.5999755859</ele>
        <time>2016-09-10T05:42:43.000Z</time>
      </trkpt>
      <trkpt lat="45.45781" lon="5.85237">
        <ele>1294.5999755859</ele>
        <time>2016-09-10T05:42:45.000Z</time>
      </trkpt>
      <trkpt lat="45.45781" lon="5.85237">
        <ele>1294.5999755859</ele>
        <time>2016-09-10T05:42:47.000Z</time>
      </trkpt>
      <trkpt lat="45.45784" lon="5.85227">
        <ele>1296</ele>
        <time>2016-09-10T05:42:51.000Z</time>
      </trkpt>
      <trkpt lat="45.45786" lon="5.85221">
        <ele>1297</ele>
        <time>2016-09-10T05:42:53.000Z</time>
      </trkpt>
      <trkpt lat="45.45786" lon="5.85221">
        <ele>1297</ele>
        <time>2016-09-10T05:42:55.000Z</time>
      </trkpt>
      <trkpt lat="45.45786" lon="5.85221">
        <ele>1297</ele>
        <time>2016-09-10T05:42:57.000Z</time>
      </trkpt>
      <trkpt lat="45.45786" lon="5.85221">
        <ele>1297</ele>
        <time>2016-09-10T05:43:00.000Z</time>
      </trkpt>
      <trkpt lat="45.4579" lon="5.8521">
        <ele>1298.4000244141</ele>
        <time>2016-09-10T05:43:04.000Z</time>
      </trkpt>
      <trkpt lat="45.45792" lon="5.85203">
        <ele>1299.1999511719</ele>
        <time>2016-09-10T05:43:06.000Z</time>
      </trkpt>
      <trkpt lat="45.45794" lon="5.85197">
        <ele>1299.4000244141</ele>
        <time>2016-09-10T05:43:10.000Z</time>
      </trkpt>
      <trkpt lat="45.45795" lon="5.8519">
        <ele>1300</ele>
        <time>2016-09-10T05:43:14.000Z</time>
      </trkpt>
      <trkpt lat="45.45797" lon="5.85183">
        <ele>1300.8000488281</ele>
        <time>2016-09-10T05:43:18.000Z</time>
      </trkpt>
      <trkpt lat="45.458" lon="5.85177">
        <ele>1301.5999755859</ele>
        <time>2016-09-10T05:43:22.000Z</time>
      </trkpt>
      <trkpt lat="45.45803" lon="5.85171">
        <ele>1301.8000488281</ele>
        <time>2016-09-10T05:43:24.000Z</time>
      </trkpt>
      <trkpt lat="45.45805" lon="5.85165">
        <ele>1302.1999511719</ele>
        <time>2016-09-10T05:43:28.000Z</time>
      </trkpt>
      <trkpt lat="45.45806" lon="5.85159">
        <ele>1302.4000244141</ele>
        <time>2016-09-10T05:43:32.000Z</time>
      </trkpt>
      <trkpt lat="45.45806" lon="5.85159">
        <ele>1302.4000244141</ele>
        <time>2016-09-10T05:43:36.000Z</time>
      </trkpt>
      <trkpt lat="45.45806" lon="5.85159">
        <ele>1302.4000244141</ele>
        <time>2016-09-10T05:43:38.000Z</time>
      </trkpt>
      <trkpt lat="45.45806" lon="5.85159">
        <ele>1302.4000244141</ele>
        <time>2016-09-10T05:43:40.000Z</time>
      </trkpt>
      <trkpt lat="45.45806" lon="5.85159">
        <ele>1302.4000244141</ele>
        <time>2016-09-10T05:43:42.000Z</time>
      </trkpt>
      <trkpt lat="45.45815" lon="5.85143">
        <ele>1303.8000488281</ele>
        <time>2016-09-10T05:43:52.000Z</time>
      </trkpt>
      <trkpt lat="45.4582" lon="5.85133">
        <ele>1304.5999755859</ele>
        <time>2016-09-10T05:43:54.000Z</time>
      </trkpt>
      <trkpt lat="45.45823" lon="5.85127">
        <ele>1304.8000488281</ele>
        <time>2016-09-10T05:43:56.000Z</time>
      </trkpt>
      <trkpt lat="45.45823" lon="5.85127">
        <ele>1304.8000488281</ele>
        <time>2016-09-10T05:43:58.000Z</time>
      </trkpt>
      <trkpt lat="45.45823" lon="5.85127">
        <ele>1304.8000488281</ele>
        <time>2016-09-10T05:44:00.000Z</time>
      </trkpt>
      <trkpt lat="45.45829" lon="5.85116">
        <ele>1305.8000488281</ele>
        <time>2016-09-10T05:44:10.000Z</time>
      </trkpt>
      <trkpt lat="45.45833" lon="5.85109">
        <ele>1306.1999511719</ele>
        <time>2016-09-10T05:44:12.000Z</time>
      </trkpt>
      <trkpt lat="45.45836" lon="5.85102">
        <ele>1306.8000488281</ele>
        <time>2016-09-10T05:44:16.000Z</time>
      </trkpt>
      <trkpt lat="45.45839" lon="5.85095">
        <ele>1307</ele>
        <time>2016-09-10T05:44:20.000Z</time>
      </trkpt>
      <trkpt lat="45.45841" lon="5.8509">
        <ele>1307.5999755859</ele>
        <time>2016-09-10T05:44:24.000Z</time>
      </trkpt>
      <trkpt lat="45.45841" lon="5.8509">
        <ele>1307.5999755859</ele>
        <time>2016-09-10T05:44:26.000Z</time>
      </trkpt>
      <trkpt lat="45.45845" lon="5.8508">
        <ele>1308.8000488281</ele>
        <time>2016-09-10T05:44:36.000Z</time>
      </trkpt>
      <trkpt lat="45.45847" lon="5.85074">
        <ele>1309</ele>
        <time>2016-09-10T05:44:38.000Z</time>
      </trkpt>
      <trkpt lat="45.4585" lon="5.85068">
        <ele>1309.1999511719</ele>
        <time>2016-09-10T05:44:44.000Z</time>
      </trkpt>
      <trkpt lat="45.4585" lon="5.85068">
        <ele>1309.1999511719</ele>
        <time>2016-09-10T05:44:48.000Z</time>
      </trkpt>
      <trkpt lat="45.4585" lon="5.85068">
        <ele>1309.1999511719</ele>
        <time>2016-09-10T05:44:50.000Z</time>
      </trkpt>
      <trkpt lat="45.4585" lon="5.85068">
        <ele>1309.1999511719</ele>
        <time>2016-09-10T05:44:52.000Z</time>
      </trkpt>
      <trkpt lat="45.4585" lon="5.85068">
        <ele>1309.1999511719</ele>
        <time>2016-09-10T05:44:54.000Z</time>
      </trkpt>
      <trkpt lat="45.4585" lon="5.85068">
        <ele>1309.1999511719</ele>
        <time>2016-09-10T05:44:56.000Z</time>
      </trkpt>
      <trkpt lat="45.45853" lon="5.85051">
        <ele>1309.8000488281</ele>
        <time>2016-09-10T05:45:16.000Z</time>
      </trkpt>
      <trkpt lat="45.45855" lon="5.85042">
        <ele>1309.4000244141</ele>
        <time>2016-09-10T05:45:18.000Z</time>
      </trkpt>
      <trkpt lat="45.45855" lon="5.85042">
        <ele>1309.4000244141</ele>
        <time>2016-09-10T05:45:20.000Z</time>
      </trkpt>
      <trkpt lat="45.45855" lon="5.85042">
        <ele>1309.4000244141</ele>
        <time>2016-09-10T05:45:22.000Z</time>
      </trkpt>
      <trkpt lat="45.45855" lon="5.85042">
        <ele>1309.4000244141</ele>
        <time>2016-09-10T05:45:24.000Z</time>
      </trkpt>
      <trkpt lat="45.45855" lon="5.85042">
        <ele>1309.4000244141</ele>
        <time>2016-09-10T05:45:26.000Z</time>
      </trkpt>
      <trkpt lat="45.45862" lon="5.8503">
        <ele>1308.4000244141</ele>
        <time>2016-09-10T05:45:38.000Z</time>
      </trkpt>
      <trkpt lat="45.45865" lon="5.85022">
        <ele>1307.8000488281</ele>
        <time>2016-09-10T05:45:40.000Z</time>
      </trkpt>
      <trkpt lat="45.45865" lon="5.85022">
        <ele>1307.8000488281</ele>
        <time>2016-09-10T05:45:42.000Z</time>
      </trkpt>
      <trkpt lat="45.45867" lon="5.85015">
        <ele>1307.4000244141</ele>
        <time>2016-09-10T05:45:44.000Z</time>
      </trkpt>
      <trkpt lat="45.4587" lon="5.85009">
        <ele>1307</ele>
        <time>2016-09-10T05:45:48.000Z</time>
      </trkpt>
      <trkpt lat="45.4587" lon="5.85009">
        <ele>1307</ele>
        <time>2016-09-10T05:45:50.000Z</time>
      </trkpt>
      <trkpt lat="45.4587" lon="5.85009">
        <ele>1307</ele>
        <time>2016-09-10T05:45:52.000Z</time>
      </trkpt>
      <trkpt lat="45.4587" lon="5.85009">
        <ele>1307</ele>
        <time>2016-09-10T05:45:58.000Z</time>
      </trkpt>
      <trkpt lat="45.4587" lon="5.85009">
        <ele>1307</ele>
        <time>2016-09-10T05:46:00.000Z</time>
      </trkpt>
      <trkpt lat="45.4587" lon="5.85009">
        <ele>1307</ele>
        <time>2016-09-10T05:46:02.000Z</time>
      </trkpt>
      <trkpt lat="45.45879" lon="5.84997">
        <ele>1305.4000244141</ele>
        <time>2016-09-10T05:48:30.000Z</time>
      </trkpt>
      <trkpt lat="45.45885" lon="5.8499">
        <ele>1305.4000244141</ele>
        <time>2016-09-10T05:48:32.000Z</time>
      </trkpt>
      <trkpt lat="45.45889" lon="5.84986">
        <ele>1305.4000244141</ele>
        <time>2016-09-10T05:48:34.000Z</time>
      </trkpt>
      <trkpt lat="45.45893" lon="5.84982">
        <ele>1305</ele>
        <time>2016-09-10T05:48:38.000Z</time>
      </trkpt>
      <trkpt lat="45.45893" lon="5.84982">
        <ele>1305</ele>
        <time>2016-09-10T05:48:40.000Z</time>
      </trkpt>
      <trkpt lat="45.45893" lon="5.84982">
        <ele>1305</ele>
        <time>2016-09-10T05:48:42.000Z</time>
      </trkpt>
      <trkpt lat="45.45893" lon="5.84982">
        <ele>1305</ele>
        <time>2016-09-10T05:48:44.000Z</time>
      </trkpt>
      <trkpt lat="45.45893" lon="5.84982">
        <ele>1305</ele>
        <time>2016-09-10T05:48:46.000Z</time>
      </trkpt>
      <trkpt lat="45.45905" lon="5.84969">
        <ele>1303.8000488281</ele>
        <time>2016-09-10T05:48:56.000Z</time>
      </trkpt>
      <trkpt lat="45.45911" lon="5.84962">
        <ele>1304.5999755859</ele>
        <time>2016-09-10T05:48:58.000Z</time>
      </trkpt>
      <trkpt lat="45.45916" lon="5.84957">
        <ele>1305</ele>
        <time>2016-09-10T05:49:00.000Z</time>
      </trkpt>
      <trkpt lat="45.4592" lon="5.84953">
        <ele>1304.8000488281</ele>
        <time>2016-09-10T05:49:04.000Z</time>
      </trkpt>
      <trkpt lat="45.4592" lon="5.84953">
        <ele>1304.8000488281</ele>
        <time>2016-09-10T05:49:08.000Z</time>
      </trkpt>
      <trkpt lat="45.4592" lon="5.84953">
        <ele>1304.8000488281</ele>
        <time>2016-09-10T05:49:10.000Z</time>
      </trkpt>
      <trkpt lat="45.4592" lon="5.84953">
        <ele>1304.8000488281</ele>
        <time>2016-09-10T05:49:12.000Z</time>
      </trkpt>
      <trkpt lat="45.4592" lon="5.84953">
        <ele>1304.8000488281</ele>
        <time>2016-09-10T05:49:18.000Z</time>
      </trkpt>
      <trkpt lat="45.4592" lon="5.84953">
        <ele>1304.8000488281</ele>
        <time>2016-09-10T05:49:20.000Z</time>
      </trkpt>
      <trkpt lat="45.45932" lon="5.84936">
        <ele>1304.1999511719</ele>
        <time>2016-09-10T05:49:30.000Z</time>
      </trkpt>
      <trkpt lat="45.4594" lon="5.84927">
        <ele>1305.5999755859</ele>
        <time>2016-09-10T05:49:32.000Z</time>
      </trkpt>
      <trkpt lat="45.45944" lon="5.84921">
        <ele>1306.5999755859</ele>
        <time>2016-09-10T05:49:34.000Z</time>
      </trkpt>
      <trkpt lat="45.45947" lon="5.84916">
        <ele>1308</ele>
        <time>2016-09-10T05:49:38.000Z</time>
      </trkpt>
      <trkpt lat="45.45951" lon="5.84912">
        <ele>1309.5999755859</ele>
        <time>2016-09-10T05:49:42.000Z</time>
      </trkpt>
      <trkpt lat="45.45955" lon="5.84907">
        <ele>1311.1999511719</ele>
        <time>2016-09-10T05:49:46.000Z</time>
      </trkpt>
      <trkpt lat="45.45958" lon="5.84903">
        <ele>1313.1999511719</ele>
        <time>2016-09-10T05:49:50.000Z</time>
      </trkpt>
      <trkpt lat="45.45962" lon="5.84898">
        <ele>1315</ele>
        <time>2016-09-10T05:49:54.000Z</time>
      </trkpt>
      <trkpt lat="45.45964" lon="5.84891">
        <ele>1316.5999755859</ele>
        <time>2016-09-10T05:50:00.000Z</time>
      </trkpt>
      <trkpt lat="45.45967" lon="5.84885">
        <ele>1317.8000488281</ele>
        <time>2016-09-10T05:50:04.000Z</time>
      </trkpt>
      <trkpt lat="45.4597" lon="5.84879">
        <ele>1319</ele>
        <time>2016-09-10T05:50:08.000Z</time>
      </trkpt>
      <trkpt lat="45.45972" lon="5.84873">
        <ele>1320.4000244141</ele>
        <time>2016-09-10T05:50:12.000Z</time>
      </trkpt>
      <trkpt lat="45.45974" lon="5.84867">
        <ele>1322</ele>
        <time>2016-09-10T05:50:16.000Z</time>
      </trkpt>
      <trkpt lat="45.45974" lon="5.84867">
        <ele>1322</ele>
        <time>2016-09-10T05:50:18.000Z</time>
      </trkpt>
      <trkpt lat="45.45974" lon="5.84867">
        <ele>1322</ele>
        <time>2016-09-10T05:50:20.000Z</time>
      </trkpt>
      <trkpt lat="45.45977" lon="5.84859">
        <ele>1324.1999511719</ele>
        <time>2016-09-10T05:50:24.000Z</time>
      </trkpt>
      <trkpt lat="45.45977" lon="5.84859">
        <ele>1324.1999511719</ele>
        <time>2016-09-10T05:50:26.000Z</time>
      </trkpt>
      <trkpt lat="45.45978" lon="5.84853">
        <ele>1325.5999755859</ele>
        <time>2016-09-10T05:50:28.000Z</time>
      </trkpt>
      <trkpt lat="45.45978" lon="5.84853">
        <ele>1325.5999755859</ele>
        <time>2016-09-10T05:50:30.000Z</time>
      </trkpt>
      <trkpt lat="45.45978" lon="5.84853">
        <ele>1325.5999755859</ele>
        <time>2016-09-10T05:50:34.000Z</time>
      </trkpt>
      <trkpt lat="45.45978" lon="5.84853">
        <ele>1325.5999755859</ele>
        <time>2016-09-10T05:50:36.000Z</time>
      </trkpt>
      <trkpt lat="45.45983" lon="5.8484">
        <ele>1329</ele>
        <time>2016-09-10T05:50:46.000Z</time>
      </trkpt>
      <trkpt lat="45.45985" lon="5.84833">
        <ele>1331.1999511719</ele>
        <time>2016-09-10T05:50:48.000Z</time>
      </trkpt>
      <trkpt lat="45.45985" lon="5.84833">
        <ele>1331.1999511719</ele>
        <time>2016-09-10T05:50:50.000Z</time>
      </trkpt>
      <trkpt lat="45.45985" lon="5.84833">
        <ele>1331.1999511719</ele>
        <time>2016-09-10T05:50:52.000Z</time>
      </trkpt>
      <trkpt lat="45.45985" lon="5.84833">
        <ele>1331.1999511719</ele>
        <time>2016-09-10T05:50:54.000Z</time>
      </trkpt>
      <trkpt lat="45.45985" lon="5.84833">
        <ele>1331.1999511719</ele>
        <time>2016-09-10T05:50:56.000Z</time>
      </trkpt>
      <trkpt lat="45.45989" lon="5.84823">
        <ele>1334</ele>
        <time>2016-09-10T05:51:00.000Z</time>
      </trkpt>
      <trkpt lat="45.45992" lon="5.84817">
        <ele>1336</ele>
        <time>2016-09-10T05:51:02.000Z</time>
      </trkpt>
      <trkpt lat="45.45992" lon="5.84817">
        <ele>1336</ele>
        <time>2016-09-10T05:51:04.000Z</time>
      </trkpt>
      <trkpt lat="45.45992" lon="5.84817">
        <ele>1336</ele>
        <time>2016-09-10T05:51:06.000Z</time>
      </trkpt>
      <trkpt lat="45.45995" lon="5.84805">
        <ele>1340.4000244141</ele>
        <time>2016-09-10T05:51:20.000Z</time>
      </trkpt>
      <trkpt lat="45.45996" lon="5.84799">
        <ele>1342.4000244141</ele>
        <time>2016-09-10T05:51:22.000Z</time>
      </trkpt>
      <trkpt lat="45.45998" lon="5.84792">
        <ele>1344.5999755859</ele>
        <time>2016-09-10T05:51:28.000Z</time>
      </trkpt>
      <trkpt lat="45.45998" lon="5.84792">
        <ele>1344.5999755859</ele>
        <time>2016-09-10T05:51:30.000Z</time>
      </trkpt>
      <trkpt lat="45.45998" lon="5.84792">
        <ele>1344.5999755859</ele>
        <time>2016-09-10T05:51:32.000Z</time>
      </trkpt>
      <trkpt lat="45.45998" lon="5.84792">
        <ele>1344.5999755859</ele>
        <time>2016-09-10T05:51:34.000Z</time>
      </trkpt>
      <trkpt lat="45.46072" lon="5.84725">
        <ele>1384.8000488281</ele>
        <time>2016-09-10T05:58:06.000Z</time>
      </trkpt>
      <trkpt lat="45.4611" lon="5.8469">
        <ele>1407</ele>
        <time>2016-09-10T05:58:08.000Z</time>
      </trkpt>
      <trkpt lat="45.4613" lon="5.84671">
        <ele>1416</ele>
        <time>2016-09-10T05:58:10.000Z</time>
      </trkpt>
      <trkpt lat="45.4614" lon="5.8466">
        <ele>1420.4000244141</ele>
        <time>2016-09-10T05:58:12.000Z</time>
      </trkpt>
      <trkpt lat="45.46146" lon="5.84654">
        <ele>1422.8000488281</ele>
        <time>2016-09-10T05:58:14.000Z</time>
      </trkpt>
      <trkpt lat="45.46154" lon="5.84645">
        <ele>1424.8000488281</ele>
        <time>2016-09-10T05:58:16.000Z</time>
      </trkpt>
      <trkpt lat="45.46154" lon="5.84645">
        <ele>1424.8000488281</ele>
        <time>2016-09-10T05:58:18.000Z</time>
      </trkpt>
      <trkpt lat="45.46154" lon="5.84645">
        <ele>1424.8000488281</ele>
        <time>2016-09-10T05:58:20.000Z</time>
      </trkpt>
      <trkpt lat="45.46154" lon="5.84645">
        <ele>1424.8000488281</ele>
        <time>2016-09-10T05:58:30.000Z</time>
      </trkpt>
      <trkpt lat="45.46154" lon="5.84645">
        <ele>1424.8000488281</ele>
        <time>2016-09-10T05:58:32.000Z</time>
      </trkpt>
      <trkpt lat="45.46154" lon="5.84645">
        <ele>1424.8000488281</ele>
        <time>2016-09-10T05:58:34.000Z</time>
      </trkpt>
      <trkpt lat="45.46154" lon="5.84645">
        <ele>1424.8000488281</ele>
        <time>2016-09-10T05:58:36.000Z</time>
      </trkpt>
      <trkpt lat="45.46154" lon="5.84645">
        <ele>1424.8000488281</ele>
        <time>2016-09-10T05:58:38.000Z</time>
      </trkpt>
      <trkpt lat="45.46154" lon="5.84645">
        <ele>1424.8000488281</ele>
        <time>2016-09-10T05:58:40.000Z</time>
      </trkpt>
      <trkpt lat="45.46154" lon="5.84645">
        <ele>1424.8000488281</ele>
        <time>2016-09-10T05:59:30.000Z</time>
      </trkpt>
      <trkpt lat="45.46154" lon="5.84645">
        <ele>1424.8000488281</ele>
        <time>2016-09-10T05:59:32.000Z</time>
      </trkpt>
      <trkpt lat="45.46163" lon="5.8452">
        <ele>1444.8000488281</ele>
        <time>2016-09-10T06:01:58.000Z</time>
      </trkpt>
      <trkpt lat="45.46169" lon="5.84459">
        <ele>1453.8000488281</ele>
        <time>2016-09-10T06:02:00.000Z</time>
      </trkpt>
      <trkpt lat="45.46172" lon="5.8443">
        <ele>1457.8000488281</ele>
        <time>2016-09-10T06:02:02.000Z</time>
      </trkpt>
      <trkpt lat="45.46174" lon="5.84417">
        <ele>1460.4000244141</ele>
        <time>2016-09-10T06:02:04.000Z</time>
      </trkpt>
      <trkpt lat="45.46176" lon="5.8441">
        <ele>1462</ele>
        <time>2016-09-10T06:02:06.000Z</time>
      </trkpt>
      <trkpt lat="45.46185" lon="5.84414">
        <ele>1464.8000488281</ele>
        <time>2016-09-10T06:02:14.000Z</time>
      </trkpt>
      <trkpt lat="45.46191" lon="5.84424">
        <ele>1465.5999755859</ele>
        <time>2016-09-10T06:02:24.000Z</time>
      </trkpt>
      <trkpt lat="45.46196" lon="5.84437">
        <ele>1466.1999511719</ele>
        <time>2016-09-10T06:02:34.000Z</time>
      </trkpt>
      <trkpt lat="45.46202" lon="5.84448">
        <ele>1468</ele>
        <time>2016-09-10T06:02:42.000Z</time>
      </trkpt>
      <trkpt lat="45.4621" lon="5.84457">
        <ele>1470.1999511719</ele>
        <time>2016-09-10T06:02:52.000Z</time>
      </trkpt>
      <trkpt lat="45.4621" lon="5.84457">
        <ele>1470.1999511719</ele>
        <time>2016-09-10T06:03:02.000Z</time>
      </trkpt>
      <trkpt lat="45.4621" lon="5.84457">
        <ele>1470.1999511719</ele>
        <time>2016-09-10T06:03:04.000Z</time>
      </trkpt>
      <trkpt lat="45.46216" lon="5.84471">
        <ele>1471.1999511719</ele>
        <time>2016-09-10T06:03:08.000Z</time>
      </trkpt>
      <trkpt lat="45.46216" lon="5.84471">
        <ele>1471.1999511719</ele>
        <time>2016-09-10T06:03:12.000Z</time>
      </trkpt>
      <trkpt lat="45.46216" lon="5.84471">
        <ele>1471.1999511719</ele>
        <time>2016-09-10T06:03:14.000Z</time>
      </trkpt>
      <trkpt lat="45.46216" lon="5.84471">
        <ele>1471.1999511719</ele>
        <time>2016-09-10T06:03:16.000Z</time>
      </trkpt>
      <trkpt lat="45.46228" lon="5.84467">
        <ele>1476.5999755859</ele>
        <time>2016-09-10T06:03:44.000Z</time>
      </trkpt>
      <trkpt lat="45.46235" lon="5.84464">
        <ele>1479.4000244141</ele>
        <time>2016-09-10T06:03:46.000Z</time>
      </trkpt>
      <trkpt lat="45.46239" lon="5.84461">
        <ele>1481</ele>
        <time>2016-09-10T06:03:48.000Z</time>
      </trkpt>
      <trkpt lat="45.46239" lon="5.84461">
        <ele>1481</ele>
        <time>2016-09-10T06:03:50.000Z</time>
      </trkpt>
      <trkpt lat="45.46239" lon="5.84461">
        <ele>1481</ele>
        <time>2016-09-10T06:03:52.000Z</time>
      </trkpt>
      <trkpt lat="45.46239" lon="5.84461">
        <ele>1481</ele>
        <time>2016-09-10T06:03:54.000Z</time>
      </trkpt>
      <trkpt lat="45.46239" lon="5.84461">
        <ele>1481</ele>
        <time>2016-09-10T06:03:58.000Z</time>
      </trkpt>
      <trkpt lat="45.46239" lon="5.84461">
        <ele>1481</ele>
        <time>2016-09-10T06:04:00.000Z</time>
      </trkpt>
      <trkpt lat="45.46262" lon="5.84402">
        <ele>1490.5999755859</ele>
        <time>2016-09-10T06:05:44.000Z</time>
      </trkpt>
      <trkpt lat="45.46262" lon="5.84402">
        <ele>1490.5999755859</ele>
        <time>2016-09-10T06:05:46.000Z</time>
      </trkpt>
      <trkpt lat="45.46262" lon="5.84402">
        <ele>1490.5999755859</ele>
        <time>2016-09-10T06:05:50.000Z</time>
      </trkpt>
      <trkpt lat="45.46262" lon="5.84402">
        <ele>1490.5999755859</ele>
        <time>2016-09-10T06:05:52.000Z</time>
      </trkpt>
      <trkpt lat="45.46256" lon="5.84283">
        <ele>1505.8000488281</ele>
        <time>2016-09-10T06:08:08.000Z</time>
      </trkpt>
      <trkpt lat="45.46252" lon="5.84221">
        <ele>1514.1999511719</ele>
        <time>2016-09-10T06:08:10.000Z</time>
      </trkpt>
      <trkpt lat="45.46249" lon="5.84189">
        <ele>1512.4000244141</ele>
        <time>2016-09-10T06:08:12.000Z</time>
      </trkpt>
      <trkpt lat="45.46247" lon="5.84171">
        <ele>1511.8000488281</ele>
        <time>2016-09-10T06:08:14.000Z</time>
      </trkpt>
      <trkpt lat="45.46244" lon="5.84161">
        <ele>1511.1999511719</ele>
        <time>2016-09-10T06:08:16.000Z</time>
      </trkpt>
      <trkpt lat="45.46241" lon="5.84148">
        <ele>1510.1999511719</ele>
        <time>2016-09-10T06:08:18.000Z</time>
      </trkpt>
      <trkpt lat="45.46237" lon="5.84136">
        <ele>1510.8000488281</ele>
        <time>2016-09-10T06:08:26.000Z</time>
      </trkpt>
      <trkpt lat="45.46229" lon="5.84124">
        <ele>1511.1999511719</ele>
        <time>2016-09-10T06:08:34.000Z</time>
      </trkpt>
      <trkpt lat="45.46229" lon="5.84124">
        <ele>1511.1999511719</ele>
        <time>2016-09-10T06:08:38.000Z</time>
      </trkpt>
      <trkpt lat="45.46229" lon="5.84124">
        <ele>1511.1999511719</ele>
        <time>2016-09-10T06:08:40.000Z</time>
      </trkpt>
      <trkpt lat="45.46211" lon="5.84105">
        <ele>1513</ele>
        <time>2016-09-10T06:08:52.000Z</time>
      </trkpt>
      <trkpt lat="45.46205" lon="5.84089">
        <ele>1513.5999755859</ele>
        <time>2016-09-10T06:09:02.000Z</time>
      </trkpt>
      <trkpt lat="45.46205" lon="5.84089">
        <ele>1513.5999755859</ele>
        <time>2016-09-10T06:09:08.000Z</time>
      </trkpt>
      <trkpt lat="45.46205" lon="5.84089">
        <ele>1513.5999755859</ele>
        <time>2016-09-10T06:09:10.000Z</time>
      </trkpt>
      <trkpt lat="45.46185" lon="5.84071">
        <ele>1515.5999755859</ele>
        <time>2016-09-10T06:09:22.000Z</time>
      </trkpt>
      <trkpt lat="45.46185" lon="5.84071">
        <ele>1515.5999755859</ele>
        <time>2016-09-10T06:09:24.000Z</time>
      </trkpt>
      <trkpt lat="45.46185" lon="5.84071">
        <ele>1515.5999755859</ele>
        <time>2016-09-10T06:09:26.000Z</time>
      </trkpt>
      <trkpt lat="45.46176" lon="5.84066">
        <ele>1517.1999511719</ele>
        <time>2016-09-10T06:09:36.000Z</time>
      </trkpt>
      <trkpt lat="45.4617" lon="5.84063">
        <ele>1518.1999511719</ele>
        <time>2016-09-10T06:09:38.000Z</time>
      </trkpt>
      <trkpt lat="45.4617" lon="5.84063">
        <ele>1518.1999511719</ele>
        <time>2016-09-10T06:09:40.000Z</time>
      </trkpt>
      <trkpt lat="45.4617" lon="5.84063">
        <ele>1518.1999511719</ele>
        <time>2016-09-10T06:09:42.000Z</time>
      </trkpt>
      <trkpt lat="45.46162" lon="5.84053">
        <ele>1519.8000488281</ele>
        <time>2016-09-10T06:09:52.000Z</time>
      </trkpt>
      <trkpt lat="45.46157" lon="5.84048">
        <ele>1520.8000488281</ele>
        <time>2016-09-10T06:09:54.000Z</time>
      </trkpt>
      <trkpt lat="45.46152" lon="5.84043">
        <ele>1522</ele>
        <time>2016-09-10T06:10:00.000Z</time>
      </trkpt>
      <trkpt lat="45.46148" lon="5.84041">
        <ele>1523</ele>
        <time>2016-09-10T06:10:04.000Z</time>
      </trkpt>
      <trkpt lat="45.46143" lon="5.8404">
        <ele>1523.8000488281</ele>
        <time>2016-09-10T06:10:08.000Z</time>
      </trkpt>
      <trkpt lat="45.46138" lon="5.84038">
        <ele>1524.8000488281</ele>
        <time>2016-09-10T06:10:12.000Z</time>
      </trkpt>
      <trkpt lat="45.46134" lon="5.84035">
        <ele>1525.1999511719</ele>
        <time>2016-09-10T06:10:16.000Z</time>
      </trkpt>
      <trkpt lat="45.4613" lon="5.84033">
        <ele>1525.1999511719</ele>
        <time>2016-09-10T06:10:20.000Z</time>
      </trkpt>
      <trkpt lat="45.46124" lon="5.84031">
        <ele>1525.4000244141</ele>
        <time>2016-09-10T06:10:24.000Z</time>
      </trkpt>
      <trkpt lat="45.4612" lon="5.84028">
        <ele>1525.5999755859</ele>
        <time>2016-09-10T06:10:28.000Z</time>
      </trkpt>
      <trkpt lat="45.4612" lon="5.84028">
        <ele>1525.5999755859</ele>
        <time>2016-09-10T06:10:30.000Z</time>
      </trkpt>
      <trkpt lat="45.46113" lon="5.84024">
        <ele>1525.8000488281</ele>
        <time>2016-09-10T06:10:36.000Z</time>
      </trkpt>
      <trkpt lat="45.46109" lon="5.84022">
        <ele>1526.1999511719</ele>
        <time>2016-09-10T06:10:38.000Z</time>
      </trkpt>
      <trkpt lat="45.46104" lon="5.84019">
        <ele>1527.1999511719</ele>
        <time>2016-09-10T06:10:44.000Z</time>
      </trkpt>
      <trkpt lat="45.46099" lon="5.84016">
        <ele>1528</ele>
        <time>2016-09-10T06:10:48.000Z</time>
      </trkpt>
      <trkpt lat="45.46094" lon="5.84014">
        <ele>1528.8000488281</ele>
        <time>2016-09-10T06:10:52.000Z</time>
      </trkpt>
      <trkpt lat="45.4609" lon="5.8401">
        <ele>1529.5999755859</ele>
        <time>2016-09-10T06:10:58.000Z</time>
      </trkpt>
      <trkpt lat="45.4609" lon="5.8401">
        <ele>1529.5999755859</ele>
        <time>2016-09-10T06:11:02.000Z</time>
      </trkpt>
      <trkpt lat="45.4609" lon="5.8401">
        <ele>1529.5999755859</ele>
        <time>2016-09-10T06:11:04.000Z</time>
      </trkpt>
      <trkpt lat="45.4609" lon="5.8401">
        <ele>1529.5999755859</ele>
        <time>2016-09-10T06:11:06.000Z</time>
      </trkpt>
      <trkpt lat="45.46083" lon="5.84004">
        <ele>1530.1999511719</ele>
        <time>2016-09-10T06:11:10.000Z</time>
      </trkpt>
      <trkpt lat="45.46078" lon="5.84001">
        <ele>1531.4000244141</ele>
        <time>2016-09-10T06:11:12.000Z</time>
      </trkpt>
      <trkpt lat="45.46073" lon="5.83997">
        <ele>1532.4000244141</ele>
        <time>2016-09-10T06:11:16.000Z</time>
      </trkpt>
      <trkpt lat="45.46068" lon="5.83994">
        <ele>1533.4000244141</ele>
        <time>2016-09-10T06:11:22.000Z</time>
      </trkpt>
      <trkpt lat="45.46064" lon="5.83991">
        <ele>1534.1999511719</ele>
        <time>2016-09-10T06:11:28.000Z</time>
      </trkpt>
      <trkpt lat="45.46059" lon="5.83987">
        <ele>1535</ele>
        <time>2016-09-10T06:11:32.000Z</time>
      </trkpt>
      <trkpt lat="45.46055" lon="5.83984">
        <ele>1535.8000488281</ele>
        <time>2016-09-10T06:11:36.000Z</time>
      </trkpt>
      <trkpt lat="45.46051" lon="5.8398">
        <ele>1536</ele>
        <time>2016-09-10T06:11:40.000Z</time>
      </trkpt>
      <trkpt lat="45.46046" lon="5.83978">
        <ele>1535.8000488281</ele>
        <time>2016-09-10T06:11:44.000Z</time>
      </trkpt>
      <trkpt lat="45.4604" lon="5.83976">
        <ele>1535.5999755859</ele>
        <time>2016-09-10T06:11:48.000Z</time>
      </trkpt>
      <trkpt lat="45.46035" lon="5.83973">
        <ele>1535.4000244141</ele>
        <time>2016-09-10T06:11:51.000Z</time>
      </trkpt>
      <trkpt lat="45.46031" lon="5.83969">
        <ele>1535</ele>
        <time>2016-09-10T06:11:56.000Z</time>
      </trkpt>
      <trkpt lat="45.46028" lon="5.83964">
        <ele>1534.8000488281</ele>
        <time>2016-09-10T06:12:00.000Z</time>
      </trkpt>
      <trkpt lat="45.46024" lon="5.8396">
        <ele>1534.8000488281</ele>
        <time>2016-09-10T06:12:04.000Z</time>
      </trkpt>
      <trkpt lat="45.46019" lon="5.83958">
        <ele>1535.4000244141</ele>
        <time>2016-09-10T06:12:10.000Z</time>
      </trkpt>
      <trkpt lat="45.46015" lon="5.83956">
        <ele>1535.8000488281</ele>
        <time>2016-09-10T06:12:14.000Z</time>
      </trkpt>
      <trkpt lat="45.46009" lon="5.83956">
        <ele>1536.8000488281</ele>
        <time>2016-09-10T06:12:20.000Z</time>
      </trkpt>
      <trkpt lat="45.46003" lon="5.83954">
        <ele>1537.4000244141</ele>
        <time>2016-09-10T06:12:24.000Z</time>
      </trkpt>
      <trkpt lat="45.45998" lon="5.83952">
        <ele>1538</ele>
        <time>2016-09-10T06:12:28.000Z</time>
      </trkpt>
      <trkpt lat="45.45993" lon="5.83948">
        <ele>1538.1999511719</ele>
        <time>2016-09-10T06:12:32.000Z</time>
      </trkpt>
      <trkpt lat="45.45988" lon="5.83945">
        <ele>1538.5999755859</ele>
        <time>2016-09-10T06:12:36.000Z</time>
      </trkpt>
      <trkpt lat="45.45981" lon="5.83942">
        <ele>1539.1999511719</ele>
        <time>2016-09-10T06:12:40.000Z</time>
      </trkpt>
      <trkpt lat="45.45976" lon="5.8394">
        <ele>1539.8000488281</ele>
        <time>2016-09-10T06:12:42.000Z</time>
      </trkpt>
      <trkpt lat="45.45971" lon="5.8394">
        <ele>1540.5999755859</ele>
        <time>2016-09-10T06:12:46.000Z</time>
      </trkpt>
      <trkpt lat="45.45971" lon="5.8394">
        <ele>1540.5999755859</ele>
        <time>2016-09-10T06:12:48.000Z</time>
      </trkpt>
      <trkpt lat="45.45971" lon="5.8394">
        <ele>1540.5999755859</ele>
        <time>2016-09-10T06:12:50.000Z</time>
      </trkpt>
      <trkpt lat="45.45971" lon="5.8394">
        <ele>1540.5999755859</ele>
        <time>2016-09-10T06:12:52.000Z</time>
      </trkpt>
      <trkpt lat="45.45971" lon="5.8394">
        <ele>1540.5999755859</ele>
        <time>2016-09-10T06:12:54.000Z</time>
      </trkpt>
      <trkpt lat="45.45971" lon="5.8394">
        <ele>1540.5999755859</ele>
        <time>2016-09-10T06:13:00.000Z</time>
      </trkpt>
      <trkpt lat="45.45971" lon="5.8394">
        <ele>1540.5999755859</ele>
        <time>2016-09-10T06:13:02.000Z</time>
      </trkpt>
      <trkpt lat="45.45971" lon="5.8394">
        <ele>1540.5999755859</ele>
        <time>2016-09-10T06:13:04.000Z</time>
      </trkpt>
      <trkpt lat="45.45958" lon="5.83933">
        <ele>1542.1999511719</ele>
        <time>2016-09-10T06:13:08.000Z</time>
      </trkpt>
      <trkpt lat="45.45951" lon="5.83928">
        <ele>1542.8000488281</ele>
        <time>2016-09-10T06:13:10.000Z</time>
      </trkpt>
      <trkpt lat="45.45951" lon="5.83928">
        <ele>1542.8000488281</ele>
        <time>2016-09-10T06:13:12.000Z</time>
      </trkpt>
      <trkpt lat="45.45951" lon="5.83928">
        <ele>1542.8000488281</ele>
        <time>2016-09-10T06:13:14.000Z</time>
      </trkpt>
      <trkpt lat="45.45937" lon="5.83916">
        <ele>1543.1999511719</ele>
        <time>2016-09-10T06:13:46.000Z</time>
      </trkpt>
      <trkpt lat="45.4593" lon="5.83909">
        <ele>1543.4000244141</ele>
        <time>2016-09-10T06:13:48.000Z</time>
      </trkpt>
      <trkpt lat="45.45925" lon="5.83905">
        <ele>1543.5999755859</ele>
        <time>2016-09-10T06:13:50.000Z</time>
      </trkpt>
      <trkpt lat="45.4592" lon="5.83901">
        <ele>1543.5999755859</ele>
        <time>2016-09-10T06:13:54.000Z</time>
      </trkpt>
      <trkpt lat="45.45914" lon="5.83897">
        <ele>1544</ele>
        <time>2016-09-10T06:13:58.000Z</time>
      </trkpt>
      <trkpt lat="45.45909" lon="5.83894">
        <ele>1544</ele>
        <time>2016-09-10T06:14:02.000Z</time>
      </trkpt>
      <trkpt lat="45.45905" lon="5.83891">
        <ele>1544</ele>
        <time>2016-09-10T06:14:06.000Z</time>
      </trkpt>
      <trkpt lat="45.45905" lon="5.83891">
        <ele>1544</ele>
        <time>2016-09-10T06:14:12.000Z</time>
      </trkpt>
      <trkpt lat="45.45905" lon="5.83891">
        <ele>1544</ele>
        <time>2016-09-10T06:14:14.000Z</time>
      </trkpt>
      <trkpt lat="45.45905" lon="5.83891">
        <ele>1544</ele>
        <time>2016-09-10T06:14:16.000Z</time>
      </trkpt>
      <trkpt lat="45.45905" lon="5.83891">
        <ele>1544</ele>
        <time>2016-09-10T06:14:18.000Z</time>
      </trkpt>
      <trkpt lat="45.45885" lon="5.83877">
        <ele>1544.5999755859</ele>
        <time>2016-09-10T06:14:50.000Z</time>
      </trkpt>
      <trkpt lat="45.45874" lon="5.8387">
        <ele>1546.1999511719</ele>
        <time>2016-09-10T06:14:52.000Z</time>
      </trkpt>
      <trkpt lat="45.45874" lon="5.8387">
        <ele>1546.1999511719</ele>
        <time>2016-09-10T06:14:54.000Z</time>
      </trkpt>
      <trkpt lat="45.45874" lon="5.8387">
        <ele>1546.1999511719</ele>
        <time>2016-09-10T06:14:56.000Z</time>
      </trkpt>
      <trkpt lat="45.45859" lon="5.83867">
        <ele>1550.1999511719</ele>
        <time>2016-09-10T06:15:06.000Z</time>
      </trkpt>
      <trkpt lat="45.4585" lon="5.83866">
        <ele>1551.5999755859</ele>
        <time>2016-09-10T06:15:08.000Z</time>
      </trkpt>
      <trkpt lat="45.45844" lon="5.83864">
        <ele>1552.4000244141</ele>
        <time>2016-09-10T06:15:10.000Z</time>
      </trkpt>
      <trkpt lat="45.45839" lon="5.83862">
        <ele>1553</ele>
        <time>2016-09-10T06:15:14.000Z</time>
      </trkpt>
      <trkpt lat="45.45839" lon="5.83862">
        <ele>1553</ele>
        <time>2016-09-10T06:15:16.000Z</time>
      </trkpt>
      <trkpt lat="45.45839" lon="5.83862">
        <ele>1553</ele>
        <time>2016-09-10T06:15:18.000Z</time>
      </trkpt>
      <trkpt lat="45.45839" lon="5.83862">
        <ele>1553</ele>
        <time>2016-09-10T06:15:20.000Z</time>
      </trkpt>
      <trkpt lat="45.45839" lon="5.83862">
        <ele>1553</ele>
        <time>2016-09-10T06:15:22.000Z</time>
      </trkpt>
      <trkpt lat="45.45831" lon="5.83859">
        <ele>1553.5999755859</ele>
        <time>2016-09-10T06:15:26.000Z</time>
      </trkpt>
      <trkpt lat="45.45824" lon="5.83857">
        <ele>1553.8000488281</ele>
        <time>2016-09-10T06:15:28.000Z</time>
      </trkpt>
      <trkpt lat="45.4582" lon="5.83855">
        <ele>1554</ele>
        <time>2016-09-10T06:15:30.000Z</time>
      </trkpt>
      <trkpt lat="45.45814" lon="5.83853">
        <ele>1554.1999511719</ele>
        <time>2016-09-10T06:15:34.000Z</time>
      </trkpt>
      <trkpt lat="45.45809" lon="5.83852">
        <ele>1554.1999511719</ele>
        <time>2016-09-10T06:15:38.000Z</time>
      </trkpt>
      <trkpt lat="45.45809" lon="5.83852">
        <ele>1554.1999511719</ele>
        <time>2016-09-10T06:15:40.000Z</time>
      </trkpt>
      <trkpt lat="45.45809" lon="5.83852">
        <ele>1554.1999511719</ele>
        <time>2016-09-10T06:15:42.000Z</time>
      </trkpt>
      <trkpt lat="45.45809" lon="5.83852">
        <ele>1554.1999511719</ele>
        <time>2016-09-10T06:15:44.000Z</time>
      </trkpt>
      <trkpt lat="45.45809" lon="5.83852">
        <ele>1554.1999511719</ele>
        <time>2016-09-10T06:15:46.000Z</time>
      </trkpt>
      <trkpt lat="45.45809" lon="5.83852">
        <ele>1554.1999511719</ele>
        <time>2016-09-10T06:15:48.000Z</time>
      </trkpt>
      <trkpt lat="45.45809" lon="5.83852">
        <ele>1554.1999511719</ele>
        <time>2016-09-10T06:15:50.000Z</time>
      </trkpt>
      <trkpt lat="45.45797" lon="5.83849">
        <ele>1554.5999755859</ele>
        <time>2016-09-10T06:15:54.000Z</time>
      </trkpt>
      <trkpt lat="45.4579" lon="5.83846">
        <ele>1555</ele>
        <time>2016-09-10T06:15:56.000Z</time>
      </trkpt>
      <trkpt lat="45.45785" lon="5.83844">
        <ele>1555.4000244141</ele>
        <time>2016-09-10T06:15:58.000Z</time>
      </trkpt>
      <trkpt lat="45.4578" lon="5.83842">
        <ele>1555.4000244141</ele>
        <time>2016-09-10T06:16:02.000Z</time>
      </trkpt>
      <trkpt lat="45.45776" lon="5.83838">
        <ele>1555.1999511719</ele>
        <time>2016-09-10T06:16:06.000Z</time>
      </trkpt>
      <trkpt lat="45.45772" lon="5.83835">
        <ele>1556</ele>
        <time>2016-09-10T06:16:10.000Z</time>
      </trkpt>
      <trkpt lat="45.45767" lon="5.83832">
        <ele>1557.1999511719</ele>
        <time>2016-09-10T06:16:14.000Z</time>
      </trkpt>
      <trkpt lat="45.45762" lon="5.83829">
        <ele>1558</ele>
        <time>2016-09-10T06:16:18.000Z</time>
      </trkpt>
      <trkpt lat="45.45758" lon="5.83824">
        <ele>1558.8000488281</ele>
        <time>2016-09-10T06:16:24.000Z</time>
      </trkpt>
      <trkpt lat="45.45753" lon="5.8382">
        <ele>1559.4000244141</ele>
        <time>2016-09-10T06:16:28.000Z</time>
      </trkpt>
      <trkpt lat="45.45749" lon="5.83818">
        <ele>1560.1999511719</ele>
        <time>2016-09-10T06:16:32.000Z</time>
      </trkpt>
      <trkpt lat="45.45744" lon="5.83816">
        <ele>1561.4000244141</ele>
        <time>2016-09-10T06:16:36.000Z</time>
      </trkpt>
      <trkpt lat="45.45738" lon="5.83817">
        <ele>1563.1999511719</ele>
        <time>2016-09-10T06:16:40.000Z</time>
      </trkpt>
      <trkpt lat="45.45732" lon="5.83818">
        <ele>1564.8000488281</ele>
        <time>2016-09-10T06:16:44.000Z</time>
      </trkpt>
      <trkpt lat="45.45726" lon="5.83819">
        <ele>1566.5999755859</ele>
        <time>2016-09-10T06:16:48.000Z</time>
      </trkpt>
      <trkpt lat="45.45721" lon="5.83818">
        <ele>1567.8000488281</ele>
        <time>2016-09-10T06:16:52.000Z</time>
      </trkpt>
      <trkpt lat="45.45716" lon="5.83817">
        <ele>1569.4000244141</ele>
        <time>2016-09-10T06:16:56.000Z</time>
      </trkpt>
      <trkpt lat="45.45716" lon="5.83817">
        <ele>1569.4000244141</ele>
        <time>2016-09-10T06:17:02.000Z</time>
      </trkpt>
      <trkpt lat="45.45716" lon="5.83817">
        <ele>1569.4000244141</ele>
        <time>2016-09-10T06:17:04.000Z</time>
      </trkpt>
      <trkpt lat="45.45716" lon="5.83817">
        <ele>1569.4000244141</ele>
        <time>2016-09-10T06:17:06.000Z</time>
      </trkpt>
      <trkpt lat="45.45697" lon="5.83813">
        <ele>1575.8000488281</ele>
        <time>2016-09-10T06:17:34.000Z</time>
      </trkpt>
      <trkpt lat="45.45686" lon="5.83811">
        <ele>1578.5999755859</ele>
        <time>2016-09-10T06:17:36.000Z</time>
      </trkpt>
      <trkpt lat="45.45679" lon="5.8381">
        <ele>1580</ele>
        <time>2016-09-10T06:17:38.000Z</time>
      </trkpt>
      <trkpt lat="45.45679" lon="5.8381">
        <ele>1580</ele>
        <time>2016-09-10T06:17:40.000Z</time>
      </trkpt>
      <trkpt lat="45.45679" lon="5.8381">
        <ele>1580</ele>
        <time>2016-09-10T06:17:42.000Z</time>
      </trkpt>
      <trkpt lat="45.45679" lon="5.8381">
        <ele>1580</ele>
        <time>2016-09-10T06:17:50.000Z</time>
      </trkpt>
      <trkpt lat="45.45679" lon="5.8381">
        <ele>1580</ele>
        <time>2016-09-10T06:17:52.000Z</time>
      </trkpt>
      <trkpt lat="45.45679" lon="5.8381">
        <ele>1580</ele>
        <time>2016-09-10T06:17:54.000Z</time>
      </trkpt>
      <trkpt lat="45.45679" lon="5.8381">
        <ele>1580</ele>
        <time>2016-09-10T06:17:56.000Z</time>
      </trkpt>
      <trkpt lat="45.45678" lon="5.83798">
        <ele>1581.4000244141</ele>
        <time>2016-09-10T06:18:04.000Z</time>
      </trkpt>
      <trkpt lat="45.45678" lon="5.83791">
        <ele>1582</ele>
        <time>2016-09-10T06:18:06.000Z</time>
      </trkpt>
      <trkpt lat="45.45679" lon="5.83784">
        <ele>1581.8000488281</ele>
        <time>2016-09-10T06:18:10.000Z</time>
      </trkpt>
      <trkpt lat="45.45679" lon="5.83784">
        <ele>1581.8000488281</ele>
        <time>2016-09-10T06:18:12.000Z</time>
      </trkpt>
      <trkpt lat="45.45681" lon="5.83771">
        <ele>1580.1999511719</ele>
        <time>2016-09-10T06:18:22.000Z</time>
      </trkpt>
      <trkpt lat="45.45681" lon="5.83763">
        <ele>1579.4000244141</ele>
        <time>2016-09-10T06:18:24.000Z</time>
      </trkpt>
      <trkpt lat="45.45678" lon="5.83757">
        <ele>1579.8000488281</ele>
        <time>2016-09-10T06:18:28.000Z</time>
      </trkpt>
      <trkpt lat="45.45678" lon="5.83757">
        <ele>1579.8000488281</ele>
        <time>2016-09-10T06:18:30.000Z</time>
      </trkpt>
      <trkpt lat="45.45678" lon="5.83757">
        <ele>1579.8000488281</ele>
        <time>2016-09-10T06:18:32.000Z</time>
      </trkpt>
      <trkpt lat="45.45678" lon="5.83757">
        <ele>1579.8000488281</ele>
        <time>2016-09-10T06:18:34.000Z</time>
      </trkpt>
      <trkpt lat="45.45672" lon="5.83744">
        <ele>1581.8000488281</ele>
        <time>2016-09-10T06:18:44.000Z</time>
      </trkpt>
      <trkpt lat="45.45672" lon="5.83744">
        <ele>1581.8000488281</ele>
        <time>2016-09-10T06:18:46.000Z</time>
      </trkpt>
      <trkpt lat="45.45672" lon="5.83744">
        <ele>1581.8000488281</ele>
        <time>2016-09-10T06:18:48.000Z</time>
      </trkpt>
      <trkpt lat="45.45667" lon="5.83734">
        <ele>1583.5999755859</ele>
        <time>2016-09-10T06:18:52.000Z</time>
      </trkpt>
      <trkpt lat="45.45663" lon="5.83727">
        <ele>1584.4000244141</ele>
        <time>2016-09-10T06:18:54.000Z</time>
      </trkpt>
      <trkpt lat="45.45663" lon="5.83727">
        <ele>1584.4000244141</ele>
        <time>2016-09-10T06:18:58.000Z</time>
      </trkpt>
      <trkpt lat="45.45663" lon="5.83727">
        <ele>1584.4000244141</ele>
        <time>2016-09-10T06:19:00.000Z</time>
      </trkpt>
      <trkpt lat="45.45663" lon="5.83727">
        <ele>1584.4000244141</ele>
        <time>2016-09-10T06:19:02.000Z</time>
      </trkpt>
      <trkpt lat="45.45663" lon="5.83727">
        <ele>1584.4000244141</ele>
        <time>2016-09-10T06:19:04.000Z</time>
      </trkpt>
      <trkpt lat="45.45658" lon="5.83716">
        <ele>1585.1999511719</ele>
        <time>2016-09-10T06:19:08.000Z</time>
      </trkpt>
      <trkpt lat="45.45656" lon="5.83708">
        <ele>1585.5999755859</ele>
        <time>2016-09-10T06:19:10.000Z</time>
      </trkpt>
      <trkpt lat="45.45654" lon="5.837">
        <ele>1586</ele>
        <time>2016-09-10T06:19:14.000Z</time>
      </trkpt>
      <trkpt lat="45.45653" lon="5.83694">
        <ele>1586.1999511719</ele>
        <time>2016-09-10T06:19:18.000Z</time>
      </trkpt>
      <trkpt lat="45.45653" lon="5.83694">
        <ele>1586.1999511719</ele>
        <time>2016-09-10T06:19:20.000Z</time>
      </trkpt>
      <trkpt lat="45.45653" lon="5.83694">
        <ele>1586.1999511719</ele>
        <time>2016-09-10T06:19:22.000Z</time>
      </trkpt>
      <trkpt lat="45.4565" lon="5.83682">
        <ele>1586.5999755859</ele>
        <time>2016-09-10T06:19:32.000Z</time>
      </trkpt>
      <trkpt lat="45.45647" lon="5.83676">
        <ele>1587</ele>
        <time>2016-09-10T06:19:34.000Z</time>
      </trkpt>
      <trkpt lat="45.45647" lon="5.83676">
        <ele>1587</ele>
        <time>2016-09-10T06:19:38.000Z</time>
      </trkpt>
      <trkpt lat="45.45647" lon="5.83676">
        <ele>1587</ele>
        <time>2016-09-10T06:19:40.000Z</time>
      </trkpt>
      <trkpt lat="45.45647" lon="5.83676">
        <ele>1587</ele>
        <time>2016-09-10T06:19:48.000Z</time>
      </trkpt>
      <trkpt lat="45.45647" lon="5.83676">
        <ele>1587</ele>
        <time>2016-09-10T06:19:50.000Z</time>
      </trkpt>
      <trkpt lat="45.45591" lon="5.83621">
        <ele>1599.1999511719</ele>
        <time>2016-09-10T06:22:40.000Z</time>
      </trkpt>
      <trkpt lat="45.45591" lon="5.83621">
        <ele>1599.1999511719</ele>
        <time>2016-09-10T06:22:42.000Z</time>
      </trkpt>
      <trkpt lat="45.45591" lon="5.83621">
        <ele>1599.1999511719</ele>
        <time>2016-09-10T06:22:46.000Z</time>
      </trkpt>
      <trkpt lat="45.45591" lon="5.83621">
        <ele>1599.1999511719</ele>
        <time>2016-09-10T06:23:06.000Z</time>
      </trkpt>
      <trkpt lat="45.45591" lon="5.83621">
        <ele>1599.1999511719</ele>
        <time>2016-09-10T06:23:08.000Z</time>
      </trkpt>
      <trkpt lat="45.4558" lon="5.83609">
        <ele>1599.1999511719</ele>
        <time>2016-09-10T06:31:46.000Z</time>
      </trkpt>
      <trkpt lat="45.45575" lon="5.83605">
        <ele>1598.5999755859</ele>
        <time>2016-09-10T06:31:48.000Z</time>
      </trkpt>
      <trkpt lat="45.45576" lon="5.83611">
        <ele>1599.8000488281</ele>
        <time>2016-09-10T06:32:02.000Z</time>
      </trkpt>
      <trkpt lat="45.4558" lon="5.83616">
        <ele>1600.4000244141</ele>
        <time>2016-09-10T06:32:06.000Z</time>
      </trkpt>
      <trkpt lat="45.4558" lon="5.83616">
        <ele>1600.4000244141</ele>
        <time>2016-09-10T06:32:10.000Z</time>
      </trkpt>
      <trkpt lat="45.4558" lon="5.83616">
        <ele>1600.4000244141</ele>
        <time>2016-09-10T06:32:12.000Z</time>
      </trkpt>
      <trkpt lat="45.45602" lon="5.8364">
        <ele>1598.8000488281</ele>
        <time>2016-09-10T06:33:12.000Z</time>
      </trkpt>
      <trkpt lat="45.45602" lon="5.8364">
        <ele>1598.8000488281</ele>
        <time>2016-09-10T06:33:14.000Z</time>
      </trkpt>
      <trkpt lat="45.45602" lon="5.8364">
        <ele>1598.8000488281</ele>
        <time>2016-09-10T06:33:16.000Z</time>
      </trkpt>
      <trkpt lat="45.45602" lon="5.8364">
        <ele>1598.8000488281</ele>
        <time>2016-09-10T06:33:18.000Z</time>
      </trkpt>
      <trkpt lat="45.45602" lon="5.8364">
        <ele>1598.8000488281</ele>
        <time>2016-09-10T06:33:20.000Z</time>
      </trkpt>
      <trkpt lat="45.45627" lon="5.83665">
        <ele>1592.5999755859</ele>
        <time>2016-09-10T06:33:46.000Z</time>
      </trkpt>
      <trkpt lat="45.4564" lon="5.83679">
        <ele>1588.5999755859</ele>
        <time>2016-09-10T06:33:48.000Z</time>
      </trkpt>
      <trkpt lat="45.45647" lon="5.83689">
        <ele>1587.4000244141</ele>
        <time>2016-09-10T06:33:50.000Z</time>
      </trkpt>
      <trkpt lat="45.45647" lon="5.83689">
        <ele>1587.4000244141</ele>
        <time>2016-09-10T06:34:00.000Z</time>
      </trkpt>
      <trkpt lat="45.45647" lon="5.83689">
        <ele>1587.4000244141</ele>
        <time>2016-09-10T06:34:02.000Z</time>
      </trkpt>
      <trkpt lat="45.45647" lon="5.83689">
        <ele>1587.4000244141</ele>
        <time>2016-09-10T06:34:04.000Z</time>
      </trkpt>
      <trkpt lat="45.45647" lon="5.83689">
        <ele>1587.4000244141</ele>
        <time>2016-09-10T06:34:06.000Z</time>
      </trkpt>
      <trkpt lat="45.45657" lon="5.83713">
        <ele>1585.5999755859</ele>
        <time>2016-09-10T06:34:16.000Z</time>
      </trkpt>
      <trkpt lat="45.45663" lon="5.83726">
        <ele>1584.4000244141</ele>
        <time>2016-09-10T06:34:18.000Z</time>
      </trkpt>
      <trkpt lat="45.45668" lon="5.83734">
        <ele>1583.4000244141</ele>
        <time>2016-09-10T06:34:20.000Z</time>
      </trkpt>
      <trkpt lat="45.45668" lon="5.83734">
        <ele>1583.4000244141</ele>
        <time>2016-09-10T06:34:22.000Z</time>
      </trkpt>
      <trkpt lat="45.45668" lon="5.83734">
        <ele>1583.4000244141</ele>
        <time>2016-09-10T06:34:24.000Z</time>
      </trkpt>
      <trkpt lat="45.4567" lon="5.83744">
        <ele>1582.4000244141</ele>
        <time>2016-09-10T06:34:28.000Z</time>
      </trkpt>
      <trkpt lat="45.45671" lon="5.83752">
        <ele>1581.8000488281</ele>
        <time>2016-09-10T06:34:30.000Z</time>
      </trkpt>
      <trkpt lat="45.45671" lon="5.83761">
        <ele>1581.8000488281</ele>
        <time>2016-09-10T06:34:34.000Z</time>
      </trkpt>
      <trkpt lat="45.4567" lon="5.83768">
        <ele>1582.5999755859</ele>
        <time>2016-09-10T06:34:36.000Z</time>
      </trkpt>
      <trkpt lat="45.45669" lon="5.83776">
        <ele>1583.4000244141</ele>
        <time>2016-09-10T06:34:40.000Z</time>
      </trkpt>
      <trkpt lat="45.45667" lon="5.83784">
        <ele>1584.4000244141</ele>
        <time>2016-09-10T06:34:44.000Z</time>
      </trkpt>
      <trkpt lat="45.45665" lon="5.83792">
        <ele>1584.5999755859</ele>
        <time>2016-09-10T06:34:48.000Z</time>
      </trkpt>
      <trkpt lat="45.45663" lon="5.83799">
        <ele>1583.1999511719</ele>
        <time>2016-09-10T06:34:52.000Z</time>
      </trkpt>
      <trkpt lat="45.45663" lon="5.83806">
        <ele>1582.4000244141</ele>
        <time>2016-09-10T06:34:56.000Z</time>
      </trkpt>
      <trkpt lat="45.45663" lon="5.83806">
        <ele>1582.4000244141</ele>
        <time>2016-09-10T06:34:58.000Z</time>
      </trkpt>
      <trkpt lat="45.45663" lon="5.83806">
        <ele>1582.4000244141</ele>
        <time>2016-09-10T06:35:00.000Z</time>
      </trkpt>
      <trkpt lat="45.45663" lon="5.83806">
        <ele>1582.4000244141</ele>
        <time>2016-09-10T06:35:02.000Z</time>
      </trkpt>
      <trkpt lat="45.45663" lon="5.83806">
        <ele>1582.4000244141</ele>
        <time>2016-09-10T06:35:04.000Z</time>
      </trkpt>
      <trkpt lat="45.45676" lon="5.83813">
        <ele>1580.4000244141</ele>
        <time>2016-09-10T06:35:14.000Z</time>
      </trkpt>
      <trkpt lat="45.45684" lon="5.83816">
        <ele>1578.4000244141</ele>
        <time>2016-09-10T06:35:16.000Z</time>
      </trkpt>
      <trkpt lat="45.45684" lon="5.83816">
        <ele>1578.4000244141</ele>
        <time>2016-09-10T06:35:18.000Z</time>
      </trkpt>
      <trkpt lat="45.45684" lon="5.83816">
        <ele>1578.4000244141</ele>
        <time>2016-09-10T06:35:20.000Z</time>
      </trkpt>
      <trkpt lat="45.45701" lon="5.83821">
        <ele>1574</ele>
        <time>2016-09-10T06:35:40.000Z</time>
      </trkpt>
      <trkpt lat="45.45711" lon="5.83824">
        <ele>1570.5999755859</ele>
        <time>2016-09-10T06:35:42.000Z</time>
      </trkpt>
      <trkpt lat="45.45717" lon="5.83826">
        <ele>1568.4000244141</ele>
        <time>2016-09-10T06:35:44.000Z</time>
      </trkpt>
      <trkpt lat="45.45722" lon="5.83826">
        <ele>1567</ele>
        <time>2016-09-10T06:35:46.000Z</time>
      </trkpt>
      <trkpt lat="45.45728" lon="5.83825">
        <ele>1566</ele>
        <time>2016-09-10T06:35:50.000Z</time>
      </trkpt>
      <trkpt lat="45.45733" lon="5.83825">
        <ele>1565</ele>
        <time>2016-09-10T06:35:52.000Z</time>
      </trkpt>
      <trkpt lat="45.45733" lon="5.83825">
        <ele>1565</ele>
        <time>2016-09-10T06:35:54.000Z</time>
      </trkpt>
      <trkpt lat="45.45733" lon="5.83825">
        <ele>1565</ele>
        <time>2016-09-10T06:35:56.000Z</time>
      </trkpt>
      <trkpt lat="45.45745" lon="5.83834">
        <ele>1561.8000488281</ele>
        <time>2016-09-10T06:36:16.000Z</time>
      </trkpt>
      <trkpt lat="45.45753" lon="5.8384">
        <ele>1560.1999511719</ele>
        <time>2016-09-10T06:36:18.000Z</time>
      </trkpt>
      <trkpt lat="45.45758" lon="5.83844">
        <ele>1559.4000244141</ele>
        <time>2016-09-10T06:36:20.000Z</time>
      </trkpt>
      <trkpt lat="45.45758" lon="5.83844">
        <ele>1559.4000244141</ele>
        <time>2016-09-10T06:36:22.000Z</time>
      </trkpt>
      <trkpt lat="45.45758" lon="5.83844">
        <ele>1559.4000244141</ele>
        <time>2016-09-10T06:36:24.000Z</time>
      </trkpt>
      <trkpt lat="45.45758" lon="5.83844">
        <ele>1559.4000244141</ele>
        <time>2016-09-10T06:36:34.000Z</time>
      </trkpt>
      <trkpt lat="45.45758" lon="5.83844">
        <ele>1559.4000244141</ele>
        <time>2016-09-10T06:36:36.000Z</time>
      </trkpt>
      <trkpt lat="45.45773" lon="5.83853">
        <ele>1557.8000488281</ele>
        <time>2016-09-10T06:36:40.000Z</time>
      </trkpt>
      <trkpt lat="45.45782" lon="5.83858">
        <ele>1557.1999511719</ele>
        <time>2016-09-10T06:36:42.000Z</time>
      </trkpt>
      <trkpt lat="45.45789" lon="5.83861">
        <ele>1557</ele>
        <time>2016-09-10T06:36:46.000Z</time>
      </trkpt>
      <trkpt lat="45.45794" lon="5.83863">
        <ele>1557</ele>
        <time>2016-09-10T06:36:48.000Z</time>
      </trkpt>
      <trkpt lat="45.45794" lon="5.83863">
        <ele>1557</ele>
        <time>2016-09-10T06:36:50.000Z</time>
      </trkpt>
      <trkpt lat="45.45794" lon="5.83863">
        <ele>1557</ele>
        <time>2016-09-10T06:36:52.000Z</time>
      </trkpt>
      <trkpt lat="45.45808" lon="5.83868">
        <ele>1556.5999755859</ele>
        <time>2016-09-10T06:37:10.000Z</time>
      </trkpt>
      <trkpt lat="45.45818" lon="5.83872">
        <ele>1556.8000488281</ele>
        <time>2016-09-10T06:37:12.000Z</time>
      </trkpt>
      <trkpt lat="45.45823" lon="5.83875">
        <ele>1556.8000488281</ele>
        <time>2016-09-10T06:37:14.000Z</time>
      </trkpt>
      <trkpt lat="45.45823" lon="5.83875">
        <ele>1556.8000488281</ele>
        <time>2016-09-10T06:37:16.000Z</time>
      </trkpt>
      <trkpt lat="45.45823" lon="5.83875">
        <ele>1556.8000488281</ele>
        <time>2016-09-10T06:37:18.000Z</time>
      </trkpt>
      <trkpt lat="45.45839" lon="5.83876">
        <ele>1555.5999755859</ele>
        <time>2016-09-10T06:37:28.000Z</time>
      </trkpt>
      <trkpt lat="45.45839" lon="5.83876">
        <ele>1555.5999755859</ele>
        <time>2016-09-10T06:37:30.000Z</time>
      </trkpt>
      <trkpt lat="45.45839" lon="5.83876">
        <ele>1555.5999755859</ele>
        <time>2016-09-10T06:37:32.000Z</time>
      </trkpt>
      <trkpt lat="45.45839" lon="5.83876">
        <ele>1555.5999755859</ele>
        <time>2016-09-10T06:37:34.000Z</time>
      </trkpt>
      <trkpt lat="45.45854" lon="5.83878">
        <ele>1553</ele>
        <time>2016-09-10T06:37:40.000Z</time>
      </trkpt>
      <trkpt lat="45.45863" lon="5.83878">
        <ele>1551.5999755859</ele>
        <time>2016-09-10T06:37:42.000Z</time>
      </trkpt>
      <trkpt lat="45.45863" lon="5.83878">
        <ele>1551.5999755859</ele>
        <time>2016-09-10T06:37:44.000Z</time>
      </trkpt>
      <trkpt lat="45.4587" lon="5.83878">
        <ele>1549.5999755859</ele>
        <time>2016-09-10T06:37:48.000Z</time>
      </trkpt>
      <trkpt lat="45.45875" lon="5.83876">
        <ele>1547.5999755859</ele>
        <time>2016-09-10T06:37:50.000Z</time>
      </trkpt>
      <trkpt lat="45.45875" lon="5.83876">
        <ele>1547.5999755859</ele>
        <time>2016-09-10T06:37:52.000Z</time>
      </trkpt>
      <trkpt lat="45.45875" lon="5.83876">
        <ele>1547.5999755859</ele>
        <time>2016-09-10T06:37:54.000Z</time>
      </trkpt>
      <trkpt lat="45.45881" lon="5.83879">
        <ele>1546.1999511719</ele>
        <time>2016-09-10T06:37:56.000Z</time>
      </trkpt>
      <trkpt lat="45.45887" lon="5.8388">
        <ele>1544.8000488281</ele>
        <time>2016-09-10T06:37:58.000Z</time>
      </trkpt>
      <trkpt lat="45.45887" lon="5.8388">
        <ele>1544.8000488281</ele>
        <time>2016-09-10T06:38:00.000Z</time>
      </trkpt>
      <trkpt lat="45.45891" lon="5.83882">
        <ele>1544.1999511719</ele>
        <time>2016-09-10T06:38:02.000Z</time>
      </trkpt>
      <trkpt lat="45.45891" lon="5.83882">
        <ele>1544.1999511719</ele>
        <time>2016-09-10T06:38:04.000Z</time>
      </trkpt>
      <trkpt lat="45.45891" lon="5.83882">
        <ele>1544.1999511719</ele>
        <time>2016-09-10T06:38:06.000Z</time>
      </trkpt>
      <trkpt lat="45.45891" lon="5.83882">
        <ele>1544.1999511719</ele>
        <time>2016-09-10T06:38:08.000Z</time>
      </trkpt>
      <trkpt lat="45.45891" lon="5.83882">
        <ele>1544.1999511719</ele>
        <time>2016-09-10T06:38:10.000Z</time>
      </trkpt>
      <trkpt lat="45.45891" lon="5.83882">
        <ele>1544.1999511719</ele>
        <time>2016-09-10T06:38:12.000Z</time>
      </trkpt>
      <trkpt lat="45.45891" lon="5.83882">
        <ele>1544.1999511719</ele>
        <time>2016-09-10T06:38:14.000Z</time>
      </trkpt>
      <trkpt lat="45.45891" lon="5.83882">
        <ele>1544.1999511719</ele>
        <time>2016-09-10T06:38:16.000Z</time>
      </trkpt>
      <trkpt lat="45.45891" lon="5.83882">
        <ele>1544.1999511719</ele>
        <time>2016-09-10T06:38:18.000Z</time>
      </trkpt>
      <trkpt lat="45.459" lon="5.83892">
        <ele>1545.1999511719</ele>
        <time>2016-09-10T06:38:22.000Z</time>
      </trkpt>
      <trkpt lat="45.45907" lon="5.83898">
        <ele>1545.5999755859</ele>
        <time>2016-09-10T06:38:24.000Z</time>
      </trkpt>
      <trkpt lat="45.45912" lon="5.83903">
        <ele>1545.1999511719</ele>
        <time>2016-09-10T06:38:26.000Z</time>
      </trkpt>
      <trkpt lat="45.45916" lon="5.83907">
        <ele>1544.8000488281</ele>
        <time>2016-09-10T06:38:28.000Z</time>
      </trkpt>
      <trkpt lat="45.45921" lon="5.83912">
        <ele>1545</ele>
        <time>2016-09-10T06:38:32.000Z</time>
      </trkpt>
      <trkpt lat="45.45921" lon="5.83912">
        <ele>1545</ele>
        <time>2016-09-10T06:38:34.000Z</time>
      </trkpt>
      <trkpt lat="45.45921" lon="5.83912">
        <ele>1545</ele>
        <time>2016-09-10T06:38:36.000Z</time>
      </trkpt>
      <trkpt lat="45.45928" lon="5.83918">
        <ele>1544.8000488281</ele>
        <time>2016-09-10T06:38:42.000Z</time>
      </trkpt>
      <trkpt lat="45.45934" lon="5.8392">
        <ele>1544.4000244141</ele>
        <time>2016-09-10T06:38:44.000Z</time>
      </trkpt>
      <trkpt lat="45.45934" lon="5.8392">
        <ele>1544.4000244141</ele>
        <time>2016-09-10T06:38:46.000Z</time>
      </trkpt>
      <trkpt lat="45.45934" lon="5.8392">
        <ele>1544.4000244141</ele>
        <time>2016-09-10T06:38:48.000Z</time>
      </trkpt>
      <trkpt lat="45.45934" lon="5.8392">
        <ele>1544.4000244141</ele>
        <time>2016-09-10T06:38:50.000Z</time>
      </trkpt>
      <trkpt lat="45.4594" lon="5.83926">
        <ele>1544.4000244141</ele>
        <time>2016-09-10T06:38:56.000Z</time>
      </trkpt>
      <trkpt lat="45.4594" lon="5.83926">
        <ele>1544.4000244141</ele>
        <time>2016-09-10T06:38:58.000Z</time>
      </trkpt>
      <trkpt lat="45.4594" lon="5.83926">
        <ele>1544.4000244141</ele>
        <time>2016-09-10T06:39:00.000Z</time>
      </trkpt>
      <trkpt lat="45.4594" lon="5.83926">
        <ele>1544.4000244141</ele>
        <time>2016-09-10T06:39:02.000Z</time>
      </trkpt>
      <trkpt lat="45.45946" lon="5.83933">
        <ele>1543.8000488281</ele>
        <time>2016-09-10T06:39:04.000Z</time>
      </trkpt>
      <trkpt lat="45.45951" lon="5.83936">
        <ele>1543.4000244141</ele>
        <time>2016-09-10T06:39:06.000Z</time>
      </trkpt>
      <trkpt lat="45.45951" lon="5.83936">
        <ele>1543.4000244141</ele>
        <time>2016-09-10T06:39:08.000Z</time>
      </trkpt>
      <trkpt lat="45.45956" lon="5.8394">
        <ele>1543.1999511719</ele>
        <time>2016-09-10T06:39:10.000Z</time>
      </trkpt>
      <trkpt lat="45.45956" lon="5.8394">
        <ele>1543.1999511719</ele>
        <time>2016-09-10T06:39:12.000Z</time>
      </trkpt>
      <trkpt lat="45.45956" lon="5.8394">
        <ele>1543.1999511719</ele>
        <time>2016-09-10T06:39:14.000Z</time>
      </trkpt>
      <trkpt lat="45.45956" lon="5.8394">
        <ele>1543.1999511719</ele>
        <time>2016-09-10T06:39:16.000Z</time>
      </trkpt>
      <trkpt lat="45.45956" lon="5.8394">
        <ele>1543.1999511719</ele>
        <time>2016-09-10T06:39:18.000Z</time>
      </trkpt>
      <trkpt lat="45.4597" lon="5.83947">
        <ele>1541.4000244141</ele>
        <time>2016-09-10T06:39:28.000Z</time>
      </trkpt>
      <trkpt lat="45.45978" lon="5.83951">
        <ele>1540.5999755859</ele>
        <time>2016-09-10T06:39:30.000Z</time>
      </trkpt>
      <trkpt lat="45.45983" lon="5.83954">
        <ele>1540.1999511719</ele>
        <time>2016-09-10T06:39:32.000Z</time>
      </trkpt>
      <trkpt lat="45.45988" lon="5.83957">
        <ele>1539.5999755859</ele>
        <time>2016-09-10T06:39:36.000Z</time>
      </trkpt>
      <trkpt lat="45.45993" lon="5.83958">
        <ele>1539</ele>
        <time>2016-09-10T06:39:40.000Z</time>
      </trkpt>
      <trkpt lat="45.45993" lon="5.83958">
        <ele>1539</ele>
        <time>2016-09-10T06:39:42.000Z</time>
      </trkpt>
      <trkpt lat="45.46002" lon="5.83961">
        <ele>1538</ele>
        <time>2016-09-10T06:39:52.000Z</time>
      </trkpt>
      <trkpt lat="45.46008" lon="5.83964">
        <ele>1537.4000244141</ele>
        <time>2016-09-10T06:39:54.000Z</time>
      </trkpt>
      <trkpt lat="45.46013" lon="5.83967">
        <ele>1536.8000488281</ele>
        <time>2016-09-10T06:39:56.000Z</time>
      </trkpt>
      <trkpt lat="45.46017" lon="5.83969">
        <ele>1536.4000244141</ele>
        <time>2016-09-10T06:39:58.000Z</time>
      </trkpt>
      <trkpt lat="45.46017" lon="5.83969">
        <ele>1536.4000244141</ele>
        <time>2016-09-10T06:40:00.000Z</time>
      </trkpt>
      <trkpt lat="45.46022" lon="5.83971">
        <ele>1535.8000488281</ele>
        <time>2016-09-10T06:40:02.000Z</time>
      </trkpt>
      <trkpt lat="45.46022" lon="5.83971">
        <ele>1535.8000488281</ele>
        <time>2016-09-10T06:40:04.000Z</time>
      </trkpt>
      <trkpt lat="45.46022" lon="5.83971">
        <ele>1535.8000488281</ele>
        <time>2016-09-10T06:40:06.000Z</time>
      </trkpt>
      <trkpt lat="45.46032" lon="5.83972">
        <ele>1535.4000244141</ele>
        <time>2016-09-10T06:40:10.000Z</time>
      </trkpt>
      <trkpt lat="45.46039" lon="5.83973">
        <ele>1535.4000244141</ele>
        <time>2016-09-10T06:40:12.000Z</time>
      </trkpt>
      <trkpt lat="45.46044" lon="5.83974">
        <ele>1535.4000244141</ele>
        <time>2016-09-10T06:40:14.000Z</time>
      </trkpt>
      <trkpt lat="45.46044" lon="5.83974">
        <ele>1535.4000244141</ele>
        <time>2016-09-10T06:40:16.000Z</time>
      </trkpt>
      <trkpt lat="45.46044" lon="5.83974">
        <ele>1535.4000244141</ele>
        <time>2016-09-10T06:40:18.000Z</time>
      </trkpt>
      <trkpt lat="45.46055" lon="5.83983">
        <ele>1535.8000488281</ele>
        <time>2016-09-10T06:40:28.000Z</time>
      </trkpt>
      <trkpt lat="45.46061" lon="5.83988">
        <ele>1534.8000488281</ele>
        <time>2016-09-10T06:40:30.000Z</time>
      </trkpt>
      <trkpt lat="45.46065" lon="5.83994">
        <ele>1534</ele>
        <time>2016-09-10T06:40:34.000Z</time>
      </trkpt>
      <trkpt lat="45.46069" lon="5.83998">
        <ele>1533.1999511719</ele>
        <time>2016-09-10T06:40:38.000Z</time>
      </trkpt>
      <trkpt lat="45.46074" lon="5.84">
        <ele>1532.4000244141</ele>
        <time>2016-09-10T06:40:40.000Z</time>
      </trkpt>
      <trkpt lat="45.46079" lon="5.84003">
        <ele>1531.1999511719</ele>
        <time>2016-09-10T06:40:44.000Z</time>
      </trkpt>
      <trkpt lat="45.46084" lon="5.84007">
        <ele>1530.4000244141</ele>
        <time>2016-09-10T06:40:48.000Z</time>
      </trkpt>
      <trkpt lat="45.46088" lon="5.8401">
        <ele>1530</ele>
        <time>2016-09-10T06:40:50.000Z</time>
      </trkpt>
      <trkpt lat="45.46093" lon="5.84015">
        <ele>1529</ele>
        <time>2016-09-10T06:40:54.000Z</time>
      </trkpt>
      <trkpt lat="45.46098" lon="5.84019">
        <ele>1528.1999511719</ele>
        <time>2016-09-10T06:40:56.000Z</time>
      </trkpt>
      <trkpt lat="45.46104" lon="5.84022">
        <ele>1527.1999511719</ele>
        <time>2016-09-10T06:41:00.000Z</time>
      </trkpt>
      <trkpt lat="45.46108" lon="5.84025">
        <ele>1526.4000244141</ele>
        <time>2016-09-10T06:41:02.000Z</time>
      </trkpt>
      <trkpt lat="45.46113" lon="5.84029">
        <ele>1525.8000488281</ele>
        <time>2016-09-10T06:41:06.000Z</time>
      </trkpt>
      <trkpt lat="45.46113" lon="5.84029">
        <ele>1525.8000488281</ele>
        <time>2016-09-10T06:41:10.000Z</time>
      </trkpt>
      <trkpt lat="45.46113" lon="5.84029">
        <ele>1525.8000488281</ele>
        <time>2016-09-10T06:41:12.000Z</time>
      </trkpt>
      <trkpt lat="45.46113" lon="5.84029">
        <ele>1525.8000488281</ele>
        <time>2016-09-10T06:41:14.000Z</time>
      </trkpt>
      <trkpt lat="45.46113" lon="5.84029">
        <ele>1525.8000488281</ele>
        <time>2016-09-10T06:41:16.000Z</time>
      </trkpt>
      <trkpt lat="45.46124" lon="5.84036">
        <ele>1525.4000244141</ele>
        <time>2016-09-10T06:41:20.000Z</time>
      </trkpt>
      <trkpt lat="45.46132" lon="5.8404">
        <ele>1525</ele>
        <time>2016-09-10T06:41:22.000Z</time>
      </trkpt>
      <trkpt lat="45.46132" lon="5.8404">
        <ele>1525</ele>
        <time>2016-09-10T06:41:24.000Z</time>
      </trkpt>
      <trkpt lat="45.46132" lon="5.8404">
        <ele>1525</ele>
        <time>2016-09-10T06:41:26.000Z</time>
      </trkpt>
      <trkpt lat="45.46142" lon="5.84048">
        <ele>1523.5999755859</ele>
        <time>2016-09-10T06:41:32.000Z</time>
      </trkpt>
      <trkpt lat="45.46149" lon="5.84053">
        <ele>1522.4000244141</ele>
        <time>2016-09-10T06:41:34.000Z</time>
      </trkpt>
      <trkpt lat="45.46153" lon="5.84056">
        <ele>1521.4000244141</ele>
        <time>2016-09-10T06:41:36.000Z</time>
      </trkpt>
      <trkpt lat="45.46153" lon="5.84056">
        <ele>1521.4000244141</ele>
        <time>2016-09-10T06:41:38.000Z</time>
      </trkpt>
      <trkpt lat="45.46153" lon="5.84056">
        <ele>1521.4000244141</ele>
        <time>2016-09-10T06:41:40.000Z</time>
      </trkpt>
      <trkpt lat="45.46163" lon="5.84064">
        <ele>1519.5999755859</ele>
        <time>2016-09-10T06:41:50.000Z</time>
      </trkpt>
      <trkpt lat="45.46169" lon="5.84068">
        <ele>1518.4000244141</ele>
        <time>2016-09-10T06:41:52.000Z</time>
      </trkpt>
      <trkpt lat="45.46173" lon="5.84071">
        <ele>1517.5999755859</ele>
        <time>2016-09-10T06:41:54.000Z</time>
      </trkpt>
      <trkpt lat="45.46178" lon="5.84074">
        <ele>1516.8000488281</ele>
        <time>2016-09-10T06:41:58.000Z</time>
      </trkpt>
      <trkpt lat="45.46183" lon="5.84076">
        <ele>1516</ele>
        <time>2016-09-10T06:42:02.000Z</time>
      </trkpt>
      <trkpt lat="45.46188" lon="5.8408">
        <ele>1515</ele>
        <time>2016-09-10T06:42:06.000Z</time>
      </trkpt>
      <trkpt lat="45.46193" lon="5.84083">
        <ele>1514.1999511719</ele>
        <time>2016-09-10T06:42:08.000Z</time>
      </trkpt>
      <trkpt lat="45.46198" lon="5.84088">
        <ele>1513.8000488281</ele>
        <time>2016-09-10T06:42:12.000Z</time>
      </trkpt>
      <trkpt lat="45.46202" lon="5.84092">
        <ele>1513.5999755859</ele>
        <time>2016-09-10T06:42:14.000Z</time>
      </trkpt>
      <trkpt lat="45.46202" lon="5.84092">
        <ele>1513.5999755859</ele>
        <time>2016-09-10T06:42:16.000Z</time>
      </trkpt>
      <trkpt lat="45.46209" lon="5.84103">
        <ele>1513</ele>
        <time>2016-09-10T06:42:26.000Z</time>
      </trkpt>
      <trkpt lat="45.46214" lon="5.8411">
        <ele>1512.5999755859</ele>
        <time>2016-09-10T06:42:28.000Z</time>
      </trkpt>
      <trkpt lat="45.46217" lon="5.84115">
        <ele>1512.4000244141</ele>
        <time>2016-09-10T06:42:30.000Z</time>
      </trkpt>
      <trkpt lat="45.4622" lon="5.8412">
        <ele>1512</ele>
        <time>2016-09-10T06:42:34.000Z</time>
      </trkpt>
      <trkpt lat="45.46224" lon="5.84125">
        <ele>1511.8000488281</ele>
        <time>2016-09-10T06:42:38.000Z</time>
      </trkpt>
      <trkpt lat="45.46228" lon="5.8413">
        <ele>1511.4000244141</ele>
        <time>2016-09-10T06:42:42.000Z</time>
      </trkpt>
      <trkpt lat="45.46231" lon="5.84136">
        <ele>1511</ele>
        <time>2016-09-10T06:42:46.000Z</time>
      </trkpt>
      <trkpt lat="45.46231" lon="5.84136">
        <ele>1511</ele>
        <time>2016-09-10T06:42:50.000Z</time>
      </trkpt>
      <trkpt lat="45.46231" lon="5.84136">
        <ele>1511</ele>
        <time>2016-09-10T06:42:52.000Z</time>
      </trkpt>
      <trkpt lat="45.46239" lon="5.84149">
        <ele>1510.4000244141</ele>
        <time>2016-09-10T06:43:04.000Z</time>
      </trkpt>
      <trkpt lat="45.46244" lon="5.84157">
        <ele>1510.8000488281</ele>
        <time>2016-09-10T06:43:06.000Z</time>
      </trkpt>
      <trkpt lat="45.46248" lon="5.84162">
        <ele>1511</ele>
        <time>2016-09-10T06:43:08.000Z</time>
      </trkpt>
      <trkpt lat="45.46248" lon="5.84162">
        <ele>1511</ele>
        <time>2016-09-10T06:43:12.000Z</time>
      </trkpt>
      <trkpt lat="45.46248" lon="5.84162">
        <ele>1511</ele>
        <time>2016-09-10T06:43:14.000Z</time>
      </trkpt>
      <trkpt lat="45.46248" lon="5.84162">
        <ele>1511</ele>
        <time>2016-09-10T06:43:16.000Z</time>
      </trkpt>
      <trkpt lat="45.46253" lon="5.84168">
        <ele>1512</ele>
        <time>2016-09-10T06:43:20.000Z</time>
      </trkpt>
      <trkpt lat="45.46259" lon="5.84172">
        <ele>1513.1999511719</ele>
        <time>2016-09-10T06:43:26.000Z</time>
      </trkpt>
      <trkpt lat="45.46264" lon="5.84174">
        <ele>1514</ele>
        <time>2016-09-10T06:43:28.000Z</time>
      </trkpt>
      <trkpt lat="45.46264" lon="5.84174">
        <ele>1514</ele>
        <time>2016-09-10T06:43:32.000Z</time>
      </trkpt>
      <trkpt lat="45.46264" lon="5.84174">
        <ele>1514</ele>
        <time>2016-09-10T06:43:34.000Z</time>
      </trkpt>
      <trkpt lat="45.46264" lon="5.84174">
        <ele>1514</ele>
        <time>2016-09-10T06:43:36.000Z</time>
      </trkpt>
      <trkpt lat="45.46264" lon="5.84174">
        <ele>1514</ele>
        <time>2016-09-10T06:43:40.000Z</time>
      </trkpt>
      <trkpt lat="45.46264" lon="5.84174">
        <ele>1514</ele>
        <time>2016-09-10T06:43:42.000Z</time>
      </trkpt>
      <trkpt lat="45.46275" lon="5.84183">
        <ele>1516.4000244141</ele>
        <time>2016-09-10T06:44:04.000Z</time>
      </trkpt>
      <trkpt lat="45.46281" lon="5.84188">
        <ele>1517.8000488281</ele>
        <time>2016-09-10T06:44:06.000Z</time>
      </trkpt>
      <trkpt lat="45.46289" lon="5.84192">
        <ele>1519</ele>
        <time>2016-09-10T06:44:16.000Z</time>
      </trkpt>
      <trkpt lat="45.46294" lon="5.84194">
        <ele>1519.8000488281</ele>
        <time>2016-09-10T06:44:18.000Z</time>
      </trkpt>
      <trkpt lat="45.46299" lon="5.84197">
        <ele>1520.5999755859</ele>
        <time>2016-09-10T06:44:24.000Z</time>
      </trkpt>
      <trkpt lat="45.46299" lon="5.84197">
        <ele>1520.5999755859</ele>
        <time>2016-09-10T06:44:26.000Z</time>
      </trkpt>
      <trkpt lat="45.46299" lon="5.84197">
        <ele>1520.5999755859</ele>
        <time>2016-09-10T06:44:28.000Z</time>
      </trkpt>
      <trkpt lat="45.46299" lon="5.84197">
        <ele>1520.5999755859</ele>
        <time>2016-09-10T06:44:30.000Z</time>
      </trkpt>
      <trkpt lat="45.46299" lon="5.84197">
        <ele>1520.5999755859</ele>
        <time>2016-09-10T06:44:32.000Z</time>
      </trkpt>
      <trkpt lat="45.46299" lon="5.84197">
        <ele>1520.5999755859</ele>
        <time>2016-09-10T06:44:34.000Z</time>
      </trkpt>
      <trkpt lat="45.46306" lon="5.84202">
        <ele>1522</ele>
        <time>2016-09-10T06:44:38.000Z</time>
      </trkpt>
      <trkpt lat="45.4631" lon="5.84205">
        <ele>1522.8000488281</ele>
        <time>2016-09-10T06:44:40.000Z</time>
      </trkpt>
      <trkpt lat="45.4631" lon="5.84205">
        <ele>1522.8000488281</ele>
        <time>2016-09-10T06:44:42.000Z</time>
      </trkpt>
      <trkpt lat="45.4631" lon="5.84205">
        <ele>1522.8000488281</ele>
        <time>2016-09-10T06:44:44.000Z</time>
      </trkpt>
      <trkpt lat="45.4631" lon="5.84205">
        <ele>1522.8000488281</ele>
        <time>2016-09-10T06:44:46.000Z</time>
      </trkpt>
      <trkpt lat="45.46316" lon="5.84208">
        <ele>1523.5999755859</ele>
        <time>2016-09-10T06:44:50.000Z</time>
      </trkpt>
      <trkpt lat="45.4632" lon="5.84213">
        <ele>1524.5999755859</ele>
        <time>2016-09-10T06:44:54.000Z</time>
      </trkpt>
      <trkpt lat="45.46324" lon="5.84217">
        <ele>1525.5999755859</ele>
        <time>2016-09-10T06:44:58.000Z</time>
      </trkpt>
      <trkpt lat="45.46328" lon="5.84221">
        <ele>1526.4000244141</ele>
        <time>2016-09-10T06:45:02.000Z</time>
      </trkpt>
      <trkpt lat="45.46333" lon="5.84224">
        <ele>1527.1999511719</ele>
        <time>2016-09-10T06:45:08.000Z</time>
      </trkpt>
      <trkpt lat="45.46333" lon="5.84224">
        <ele>1527.1999511719</ele>
        <time>2016-09-10T06:45:10.000Z</time>
      </trkpt>
      <trkpt lat="45.46333" lon="5.84224">
        <ele>1527.1999511719</ele>
        <time>2016-09-10T06:45:12.000Z</time>
      </trkpt>
      <trkpt lat="45.46333" lon="5.84224">
        <ele>1527.1999511719</ele>
        <time>2016-09-10T06:45:14.000Z</time>
      </trkpt>
      <trkpt lat="45.46333" lon="5.84224">
        <ele>1527.1999511719</ele>
        <time>2016-09-10T06:45:16.000Z</time>
      </trkpt>
      <trkpt lat="45.46346" lon="5.8423">
        <ele>1529.8000488281</ele>
        <time>2016-09-10T06:45:28.000Z</time>
      </trkpt>
      <trkpt lat="45.46354" lon="5.84233">
        <ele>1531</ele>
        <time>2016-09-10T06:45:30.000Z</time>
      </trkpt>
      <trkpt lat="45.46354" lon="5.84233">
        <ele>1531</ele>
        <time>2016-09-10T06:45:32.000Z</time>
      </trkpt>
      <trkpt lat="45.4636" lon="5.84237">
        <ele>1532</ele>
        <time>2016-09-10T06:45:34.000Z</time>
      </trkpt>
      <trkpt lat="45.46364" lon="5.84241">
        <ele>1532.5999755859</ele>
        <time>2016-09-10T06:45:36.000Z</time>
      </trkpt>
      <trkpt lat="45.46368" lon="5.84245">
        <ele>1533.1999511719</ele>
        <time>2016-09-10T06:45:40.000Z</time>
      </trkpt>
      <trkpt lat="45.46368" lon="5.84245">
        <ele>1533.1999511719</ele>
        <time>2016-09-10T06:45:42.000Z</time>
      </trkpt>
      <trkpt lat="45.46373" lon="5.84249">
        <ele>1533.8000488281</ele>
        <time>2016-09-10T06:45:44.000Z</time>
      </trkpt>
      <trkpt lat="45.4638" lon="5.84255">
        <ele>1534.8000488281</ele>
        <time>2016-09-10T06:45:52.000Z</time>
      </trkpt>
      <trkpt lat="45.46384" lon="5.84259">
        <ele>1535.5999755859</ele>
        <time>2016-09-10T06:45:54.000Z</time>
      </trkpt>
      <trkpt lat="45.46388" lon="5.84263">
        <ele>1536</ele>
        <time>2016-09-10T06:46:00.000Z</time>
      </trkpt>
      <trkpt lat="45.46392" lon="5.84268">
        <ele>1536.4000244141</ele>
        <time>2016-09-10T06:46:06.000Z</time>
      </trkpt>
      <trkpt lat="45.46392" lon="5.84268">
        <ele>1536.4000244141</ele>
        <time>2016-09-10T06:46:12.000Z</time>
      </trkpt>
      <trkpt lat="45.46392" lon="5.84268">
        <ele>1536.4000244141</ele>
        <time>2016-09-10T06:46:14.000Z</time>
      </trkpt>
      <trkpt lat="45.46452" lon="5.84356">
        <ele>1560.4000244141</ele>
        <time>2016-09-10T06:54:30.000Z</time>
      </trkpt>
      <trkpt lat="45.46452" lon="5.84356">
        <ele>1560.4000244141</ele>
        <time>2016-09-10T06:54:32.000Z</time>
      </trkpt>
      <trkpt lat="45.46452" lon="5.84356">
        <ele>1560.4000244141</ele>
        <time>2016-09-10T06:54:34.000Z</time>
      </trkpt>
      <trkpt lat="45.46482" lon="5.84405">
        <ele>1584.4000244141</ele>
        <time>2016-09-10T06:54:38.000Z</time>
      </trkpt>
      <trkpt lat="45.46498" lon="5.84431">
        <ele>1592.5999755859</ele>
        <time>2016-09-10T06:54:40.000Z</time>
      </trkpt>
      <trkpt lat="45.46498" lon="5.84431">
        <ele>1592.5999755859</ele>
        <time>2016-09-10T06:54:42.000Z</time>
      </trkpt>
      <trkpt lat="45.46498" lon="5.84431">
        <ele>1592.5999755859</ele>
        <time>2016-09-10T06:54:44.000Z</time>
      </trkpt>
      <trkpt lat="45.4651" lon="5.84461">
        <ele>1597.4000244141</ele>
        <time>2016-09-10T06:55:34.000Z</time>
      </trkpt>
      <trkpt lat="45.46515" lon="5.84477">
        <ele>1599.4000244141</ele>
        <time>2016-09-10T06:55:36.000Z</time>
      </trkpt>
      <trkpt lat="45.46518" lon="5.84486">
        <ele>1601</ele>
        <time>2016-09-10T06:55:38.000Z</time>
      </trkpt>
      <trkpt lat="45.46518" lon="5.84486">
        <ele>1601</ele>
        <time>2016-09-10T06:55:40.000Z</time>
      </trkpt>
      <trkpt lat="45.46518" lon="5.84486">
        <ele>1601</ele>
        <time>2016-09-10T06:55:42.000Z</time>
      </trkpt>
      <trkpt lat="45.46548" lon="5.84474">
        <ele>1610</ele>
        <time>2016-09-10T07:10:01.000Z</time>
      </trkpt>
      <trkpt lat="45.46563" lon="5.84467">
        <ele>1604.1999511719</ele>
        <time>2016-09-10T07:10:03.000Z</time>
      </trkpt>
      <trkpt lat="45.46563" lon="5.84467">
        <ele>1604.1999511719</ele>
        <time>2016-09-10T07:10:05.000Z</time>
      </trkpt>
      <trkpt lat="45.46563" lon="5.84467">
        <ele>1604.1999511719</ele>
        <time>2016-09-10T07:10:07.000Z</time>
      </trkpt>
      <trkpt lat="45.46579" lon="5.84502">
        <ele>1628</ele>
        <time>2016-09-10T07:12:28.000Z</time>
      </trkpt>
      <trkpt lat="45.46588" lon="5.84521">
        <ele>1640</ele>
        <time>2016-09-10T07:12:30.000Z</time>
      </trkpt>
      <trkpt lat="45.46588" lon="5.84521">
        <ele>1640</ele>
        <time>2016-09-10T07:12:32.000Z</time>
      </trkpt>
      <trkpt lat="45.46588" lon="5.84521">
        <ele>1640</ele>
        <time>2016-09-10T07:12:34.000Z</time>
      </trkpt>
      <trkpt lat="45.46588" lon="5.84521">
        <ele>1640</ele>
        <time>2016-09-10T07:12:40.000Z</time>
      </trkpt>
      <trkpt lat="45.46601" lon="5.84539">
        <ele>1651</ele>
        <time>2016-09-10T07:12:52.000Z</time>
      </trkpt>
      <trkpt lat="45.46608" lon="5.84548">
        <ele>1655.4000244141</ele>
        <time>2016-09-10T07:12:54.000Z</time>
      </trkpt>
      <trkpt lat="45.46613" lon="5.84555">
        <ele>1657.4000244141</ele>
        <time>2016-09-10T07:12:56.000Z</time>
      </trkpt>
      <trkpt lat="45.46613" lon="5.84555">
        <ele>1657.4000244141</ele>
        <time>2016-09-10T07:12:58.000Z</time>
      </trkpt>
      <trkpt lat="45.46613" lon="5.84555">
        <ele>1657.4000244141</ele>
        <time>2016-09-10T07:13:00.000Z</time>
      </trkpt>
      <trkpt lat="45.46617" lon="5.84563">
        <ele>1659.4000244141</ele>
        <time>2016-09-10T07:13:04.000Z</time>
      </trkpt>
      <trkpt lat="45.46619" lon="5.84569">
        <ele>1660.1999511719</ele>
        <time>2016-09-10T07:13:06.000Z</time>
      </trkpt>
      <trkpt lat="45.46621" lon="5.84575">
        <ele>1660.5999755859</ele>
        <time>2016-09-10T07:13:10.000Z</time>
      </trkpt>
      <trkpt lat="45.46622" lon="5.84582">
        <ele>1660.1999511719</ele>
        <time>2016-09-10T07:13:14.000Z</time>
      </trkpt>
      <trkpt lat="45.46623" lon="5.8459">
        <ele>1659.5999755859</ele>
        <time>2016-09-10T07:13:18.000Z</time>
      </trkpt>
      <trkpt lat="45.46623" lon="5.84597">
        <ele>1658.5999755859</ele>
        <time>2016-09-10T07:13:24.000Z</time>
      </trkpt>
      <trkpt lat="45.46623" lon="5.84597">
        <ele>1658.5999755859</ele>
        <time>2016-09-10T07:13:26.000Z</time>
      </trkpt>
      <trkpt lat="45.46623" lon="5.84597">
        <ele>1658.5999755859</ele>
        <time>2016-09-10T07:13:28.000Z</time>
      </trkpt>
      <trkpt lat="45.46623" lon="5.84597">
        <ele>1658.5999755859</ele>
        <time>2016-09-10T07:13:30.000Z</time>
      </trkpt>
      <trkpt lat="45.46623" lon="5.84597">
        <ele>1658.5999755859</ele>
        <time>2016-09-10T07:13:32.000Z</time>
      </trkpt>
      <trkpt lat="45.46623" lon="5.84597">
        <ele>1658.5999755859</ele>
        <time>2016-09-10T07:13:34.000Z</time>
      </trkpt>
      <trkpt lat="45.46623" lon="5.84597">
        <ele>1658.5999755859</ele>
        <time>2016-09-10T07:13:36.000Z</time>
      </trkpt>
      <trkpt lat="45.46623" lon="5.84597">
        <ele>1658.5999755859</ele>
        <time>2016-09-10T07:13:46.000Z</time>
      </trkpt>
      <trkpt lat="45.46623" lon="5.84597">
        <ele>1658.5999755859</ele>
        <time>2016-09-10T07:13:48.000Z</time>
      </trkpt>
      <trkpt lat="45.46621" lon="5.84616">
        <ele>1654.1999511719</ele>
        <time>2016-09-10T07:14:26.000Z</time>
      </trkpt>
      <trkpt lat="45.4662" lon="5.84627">
        <ele>1653.1999511719</ele>
        <time>2016-09-10T07:14:28.000Z</time>
      </trkpt>
      <trkpt lat="45.46621" lon="5.84634">
        <ele>1652.8000488281</ele>
        <time>2016-09-10T07:14:30.000Z</time>
      </trkpt>
      <trkpt lat="45.46621" lon="5.84634">
        <ele>1652.8000488281</ele>
        <time>2016-09-10T07:14:34.000Z</time>
      </trkpt>
      <trkpt lat="45.46621" lon="5.84634">
        <ele>1652.8000488281</ele>
        <time>2016-09-10T07:14:36.000Z</time>
      </trkpt>
      <trkpt lat="45.46621" lon="5.84634">
        <ele>1652.8000488281</ele>
        <time>2016-09-10T07:14:38.000Z</time>
      </trkpt>
      <trkpt lat="45.46622" lon="5.84646">
        <ele>1651.1999511719</ele>
        <time>2016-09-10T07:14:42.000Z</time>
      </trkpt>
      <trkpt lat="45.46624" lon="5.84653">
        <ele>1651.4000244141</ele>
        <time>2016-09-10T07:14:44.000Z</time>
      </trkpt>
      <trkpt lat="45.46626" lon="5.84659">
        <ele>1652.5999755859</ele>
        <time>2016-09-10T07:14:48.000Z</time>
      </trkpt>
      <trkpt lat="45.46629" lon="5.84666">
        <ele>1654.1999511719</ele>
        <time>2016-09-10T07:14:54.000Z</time>
      </trkpt>
      <trkpt lat="45.46632" lon="5.84671">
        <ele>1655.5999755859</ele>
        <time>2016-09-10T07:14:58.000Z</time>
      </trkpt>
      <trkpt lat="45.46632" lon="5.84671">
        <ele>1655.5999755859</ele>
        <time>2016-09-10T07:15:00.000Z</time>
      </trkpt>
      <trkpt lat="45.46632" lon="5.84671">
        <ele>1655.5999755859</ele>
        <time>2016-09-10T07:15:02.000Z</time>
      </trkpt>
      <trkpt lat="45.46632" lon="5.84671">
        <ele>1655.5999755859</ele>
        <time>2016-09-10T07:15:04.000Z</time>
      </trkpt>
      <trkpt lat="45.46632" lon="5.84671">
        <ele>1655.5999755859</ele>
        <time>2016-09-10T07:15:06.000Z</time>
      </trkpt>
      <trkpt lat="45.46632" lon="5.84671">
        <ele>1655.5999755859</ele>
        <time>2016-09-10T07:15:08.000Z</time>
      </trkpt>
      <trkpt lat="45.4664" lon="5.84694">
        <ele>1659.1999511719</ele>
        <time>2016-09-10T07:16:54.000Z</time>
      </trkpt>
      <trkpt lat="45.46643" lon="5.84707">
        <ele>1659.5999755859</ele>
        <time>2016-09-10T07:16:56.000Z</time>
      </trkpt>
      <trkpt lat="45.46643" lon="5.84707">
        <ele>1659.5999755859</ele>
        <time>2016-09-10T07:16:58.000Z</time>
      </trkpt>
      <trkpt lat="45.46643" lon="5.84707">
        <ele>1659.5999755859</ele>
        <time>2016-09-10T07:17:00.000Z</time>
      </trkpt>
      <trkpt lat="45.46643" lon="5.84707">
        <ele>1659.5999755859</ele>
        <time>2016-09-10T07:17:04.000Z</time>
      </trkpt>
      <trkpt lat="45.46643" lon="5.84707">
        <ele>1659.5999755859</ele>
        <time>2016-09-10T07:17:06.000Z</time>
      </trkpt>
      <trkpt lat="45.46643" lon="5.84707">
        <ele>1659.5999755859</ele>
        <time>2016-09-10T07:17:08.000Z</time>
      </trkpt>
      <trkpt lat="45.46651" lon="5.84715">
        <ele>1662.4000244141</ele>
        <time>2016-09-10T07:18:18.000Z</time>
      </trkpt>
      <trkpt lat="45.46657" lon="5.84719">
        <ele>1664</ele>
        <time>2016-09-10T07:18:20.000Z</time>
      </trkpt>
      <trkpt lat="45.46657" lon="5.84719">
        <ele>1664</ele>
        <time>2016-09-10T07:18:22.000Z</time>
      </trkpt>
      <trkpt lat="45.46657" lon="5.84719">
        <ele>1664</ele>
        <time>2016-09-10T07:18:24.000Z</time>
      </trkpt>
      <trkpt lat="45.46657" lon="5.84719">
        <ele>1664</ele>
        <time>2016-09-10T07:18:26.000Z</time>
      </trkpt>
      <trkpt lat="45.46677" lon="5.84739">
        <ele>1666</ele>
        <time>2016-09-10T07:25:04.000Z</time>
      </trkpt>
      <trkpt lat="45.46688" lon="5.84751">
        <ele>1665</ele>
        <time>2016-09-10T07:25:06.000Z</time>
      </trkpt>
      <trkpt lat="45.46693" lon="5.84759">
        <ele>1664.1999511719</ele>
        <time>2016-09-10T07:25:08.000Z</time>
      </trkpt>
      <trkpt lat="45.46696" lon="5.84765">
        <ele>1664.4000244141</ele>
        <time>2016-09-10T07:25:10.000Z</time>
      </trkpt>
      <trkpt lat="45.46698" lon="5.84771">
        <ele>1664.5999755859</ele>
        <time>2016-09-10T07:25:14.000Z</time>
      </trkpt>
      <trkpt lat="45.46701" lon="5.84778">
        <ele>1664.8000488281</ele>
        <time>2016-09-10T07:25:18.000Z</time>
      </trkpt>
      <trkpt lat="45.46703" lon="5.84784">
        <ele>1664.8000488281</ele>
        <time>2016-09-10T07:25:22.000Z</time>
      </trkpt>
      <trkpt lat="45.46705" lon="5.84791">
        <ele>1664.4000244141</ele>
        <time>2016-09-10T07:25:26.000Z</time>
      </trkpt>
      <trkpt lat="45.46707" lon="5.84797">
        <ele>1663.1999511719</ele>
        <time>2016-09-10T07:25:30.000Z</time>
      </trkpt>
      <trkpt lat="45.46707" lon="5.84797">
        <ele>1663.1999511719</ele>
        <time>2016-09-10T07:25:36.000Z</time>
      </trkpt>
      <trkpt lat="45.46707" lon="5.84797">
        <ele>1663.1999511719</ele>
        <time>2016-09-10T07:25:38.000Z</time>
      </trkpt>
      <trkpt lat="45.46723" lon="5.84816">
        <ele>1664</ele>
        <time>2016-09-10T07:26:32.000Z</time>
      </trkpt>
      <trkpt lat="45.46735" lon="5.84827">
        <ele>1662</ele>
        <time>2016-09-10T07:26:42.000Z</time>
      </trkpt>
      <trkpt lat="45.46741" lon="5.84833">
        <ele>1661</ele>
        <time>2016-09-10T07:26:44.000Z</time>
      </trkpt>
      <trkpt lat="45.46746" lon="5.84836">
        <ele>1660.5999755859</ele>
        <time>2016-09-10T07:26:46.000Z</time>
      </trkpt>
      <trkpt lat="45.4675" lon="5.84838">
        <ele>1660.5999755859</ele>
        <time>2016-09-10T07:26:52.000Z</time>
      </trkpt>
      <trkpt lat="45.4675" lon="5.84838">
        <ele>1660.5999755859</ele>
        <time>2016-09-10T07:26:58.000Z</time>
      </trkpt>
      <trkpt lat="45.4675" lon="5.84838">
        <ele>1660.5999755859</ele>
        <time>2016-09-10T07:27:00.000Z</time>
      </trkpt>
      <trkpt lat="45.46759" lon="5.84844">
        <ele>1663</ele>
        <time>2016-09-10T07:27:22.000Z</time>
      </trkpt>
      <trkpt lat="45.46765" lon="5.84848">
        <ele>1664.1999511719</ele>
        <time>2016-09-10T07:27:24.000Z</time>
      </trkpt>
      <trkpt lat="45.46768" lon="5.84853">
        <ele>1664.1999511719</ele>
        <time>2016-09-10T07:27:28.000Z</time>
      </trkpt>
      <trkpt lat="45.46771" lon="5.8486">
        <ele>1664</ele>
        <time>2016-09-10T07:27:32.000Z</time>
      </trkpt>
      <trkpt lat="45.46773" lon="5.84866">
        <ele>1663.4000244141</ele>
        <time>2016-09-10T07:27:36.000Z</time>
      </trkpt>
      <trkpt lat="45.46773" lon="5.84866">
        <ele>1663.4000244141</ele>
        <time>2016-09-10T07:27:40.000Z</time>
      </trkpt>
      <trkpt lat="45.46773" lon="5.84866">
        <ele>1663.4000244141</ele>
        <time>2016-09-10T07:27:42.000Z</time>
      </trkpt>
      <trkpt lat="45.46773" lon="5.84866">
        <ele>1663.4000244141</ele>
        <time>2016-09-10T07:27:44.000Z</time>
      </trkpt>
      <trkpt lat="45.46773" lon="5.84866">
        <ele>1663.4000244141</ele>
        <time>2016-09-10T07:27:46.000Z</time>
      </trkpt>
      <trkpt lat="45.46773" lon="5.84866">
        <ele>1663.4000244141</ele>
        <time>2016-09-10T07:27:48.000Z</time>
      </trkpt>
      <trkpt lat="45.46773" lon="5.84866">
        <ele>1663.4000244141</ele>
        <time>2016-09-10T07:27:50.000Z</time>
      </trkpt>
      <trkpt lat="45.46778" lon="5.84879">
        <ele>1662.4000244141</ele>
        <time>2016-09-10T07:27:56.000Z</time>
      </trkpt>
      <trkpt lat="45.46782" lon="5.84887">
        <ele>1662.1999511719</ele>
        <time>2016-09-10T07:27:58.000Z</time>
      </trkpt>
      <trkpt lat="45.46785" lon="5.84894">
        <ele>1662</ele>
        <time>2016-09-10T07:28:02.000Z</time>
      </trkpt>
      <trkpt lat="45.46785" lon="5.84894">
        <ele>1662</ele>
        <time>2016-09-10T07:28:04.000Z</time>
      </trkpt>
      <trkpt lat="45.46785" lon="5.84894">
        <ele>1662</ele>
        <time>2016-09-10T07:28:06.000Z</time>
      </trkpt>
      <trkpt lat="45.46785" lon="5.84894">
        <ele>1662</ele>
        <time>2016-09-10T07:28:08.000Z</time>
      </trkpt>
      <trkpt lat="45.46785" lon="5.84894">
        <ele>1662</ele>
        <time>2016-09-10T07:28:10.000Z</time>
      </trkpt>
      <trkpt lat="45.46785" lon="5.84894">
        <ele>1662</ele>
        <time>2016-09-10T07:28:12.000Z</time>
      </trkpt>
      <trkpt lat="45.46785" lon="5.84894">
        <ele>1662</ele>
        <time>2016-09-10T07:28:34.000Z</time>
      </trkpt>
      <trkpt lat="45.46785" lon="5.84894">
        <ele>1662</ele>
        <time>2016-09-10T07:28:36.000Z</time>
      </trkpt>
      <trkpt lat="45.46842" lon="5.84938">
        <ele>1657.5999755859</ele>
        <time>2016-09-10T07:31:32.000Z</time>
      </trkpt>
      <trkpt lat="45.4687" lon="5.84962">
        <ele>1651.1999511719</ele>
        <time>2016-09-10T07:31:34.000Z</time>
      </trkpt>
      <trkpt lat="45.46884" lon="5.84974">
        <ele>1648.4000244141</ele>
        <time>2016-09-10T07:31:36.000Z</time>
      </trkpt>
      <trkpt lat="45.46884" lon="5.84974">
        <ele>1648.4000244141</ele>
        <time>2016-09-10T07:31:38.000Z</time>
      </trkpt>
      <trkpt lat="45.46884" lon="5.84974">
        <ele>1648.4000244141</ele>
        <time>2016-09-10T07:31:40.000Z</time>
      </trkpt>
      <trkpt lat="45.46893" lon="5.84984">
        <ele>1647.1999511719</ele>
        <time>2016-09-10T07:31:44.000Z</time>
      </trkpt>
      <trkpt lat="45.46897" lon="5.84991">
        <ele>1647.5999755859</ele>
        <time>2016-09-10T07:31:46.000Z</time>
      </trkpt>
      <trkpt lat="45.46901" lon="5.84996">
        <ele>1648</ele>
        <time>2016-09-10T07:31:50.000Z</time>
      </trkpt>
      <trkpt lat="45.46904" lon="5.85">
        <ele>1648.1999511719</ele>
        <time>2016-09-10T07:31:54.000Z</time>
      </trkpt>
      <trkpt lat="45.46909" lon="5.85005">
        <ele>1648.4000244141</ele>
        <time>2016-09-10T07:32:00.000Z</time>
      </trkpt>
      <trkpt lat="45.46913" lon="5.85009">
        <ele>1648.8000488281</ele>
        <time>2016-09-10T07:32:06.000Z</time>
      </trkpt>
      <trkpt lat="45.46913" lon="5.85009">
        <ele>1648.8000488281</ele>
        <time>2016-09-10T07:32:12.000Z</time>
      </trkpt>
      <trkpt lat="45.46913" lon="5.85009">
        <ele>1648.8000488281</ele>
        <time>2016-09-10T07:32:14.000Z</time>
      </trkpt>
      <trkpt lat="45.4692" lon="5.85012">
        <ele>1649.4000244141</ele>
        <time>2016-09-10T07:32:18.000Z</time>
      </trkpt>
      <trkpt lat="45.46925" lon="5.85015">
        <ele>1649.8000488281</ele>
        <time>2016-09-10T07:32:22.000Z</time>
      </trkpt>
      <trkpt lat="45.46925" lon="5.85015">
        <ele>1649.8000488281</ele>
        <time>2016-09-10T07:32:24.000Z</time>
      </trkpt>
      <trkpt lat="45.46925" lon="5.85015">
        <ele>1649.8000488281</ele>
        <time>2016-09-10T07:32:26.000Z</time>
      </trkpt>
      <trkpt lat="45.46931" lon="5.85025">
        <ele>1651.1999511719</ele>
        <time>2016-09-10T07:32:44.000Z</time>
      </trkpt>
      <trkpt lat="45.46935" lon="5.85031">
        <ele>1652</ele>
        <time>2016-09-10T07:32:46.000Z</time>
      </trkpt>
      <trkpt lat="45.46935" lon="5.85031">
        <ele>1652</ele>
        <time>2016-09-10T07:32:48.000Z</time>
      </trkpt>
      <trkpt lat="45.46935" lon="5.85031">
        <ele>1652</ele>
        <time>2016-09-10T07:32:50.000Z</time>
      </trkpt>
      <trkpt lat="45.46941" lon="5.85037">
        <ele>1652.8000488281</ele>
        <time>2016-09-10T07:32:52.000Z</time>
      </trkpt>
      <trkpt lat="45.46946" lon="5.85041">
        <ele>1653.5999755859</ele>
        <time>2016-09-10T07:32:56.000Z</time>
      </trkpt>
      <trkpt lat="45.46951" lon="5.85044">
        <ele>1654.1999511719</ele>
        <time>2016-09-10T07:33:00.000Z</time>
      </trkpt>
      <trkpt lat="45.46955" lon="5.85047">
        <ele>1654.8000488281</ele>
        <time>2016-09-10T07:33:04.000Z</time>
      </trkpt>
      <trkpt lat="45.46955" lon="5.85047">
        <ele>1654.8000488281</ele>
        <time>2016-09-10T07:33:06.000Z</time>
      </trkpt>
      <trkpt lat="45.46955" lon="5.85047">
        <ele>1654.8000488281</ele>
        <time>2016-09-10T07:33:08.000Z</time>
      </trkpt>
      <trkpt lat="45.46955" lon="5.85047">
        <ele>1654.8000488281</ele>
        <time>2016-09-10T07:33:10.000Z</time>
      </trkpt>
      <trkpt lat="45.46955" lon="5.85047">
        <ele>1654.8000488281</ele>
        <time>2016-09-10T07:33:12.000Z</time>
      </trkpt>
      <trkpt lat="45.46955" lon="5.85047">
        <ele>1654.8000488281</ele>
        <time>2016-09-10T07:33:18.000Z</time>
      </trkpt>
      <trkpt lat="45.46955" lon="5.85047">
        <ele>1654.8000488281</ele>
        <time>2016-09-10T07:33:20.000Z</time>
      </trkpt>
      <trkpt lat="45.46969" lon="5.85056">
        <ele>1656.5999755859</ele>
        <time>2016-09-10T07:33:36.000Z</time>
      </trkpt>
      <trkpt lat="45.46969" lon="5.85056">
        <ele>1656.5999755859</ele>
        <time>2016-09-10T07:33:38.000Z</time>
      </trkpt>
      <trkpt lat="45.46969" lon="5.85056">
        <ele>1656.5999755859</ele>
        <time>2016-09-10T07:33:40.000Z</time>
      </trkpt>
      <trkpt lat="45.46969" lon="5.85056">
        <ele>1656.5999755859</ele>
        <time>2016-09-10T07:33:42.000Z</time>
      </trkpt>
      <trkpt lat="45.46986" lon="5.8507">
        <ele>1658</ele>
        <time>2016-09-10T07:34:24.000Z</time>
      </trkpt>
      <trkpt lat="45.46986" lon="5.8507">
        <ele>1658</ele>
        <time>2016-09-10T07:34:26.000Z</time>
      </trkpt>
      <trkpt lat="45.46986" lon="5.8507">
        <ele>1658</ele>
        <time>2016-09-10T07:34:28.000Z</time>
      </trkpt>
      <trkpt lat="45.46986" lon="5.8507">
        <ele>1658</ele>
        <time>2016-09-10T07:34:30.000Z</time>
      </trkpt>
      <trkpt lat="45.47013" lon="5.8508">
        <ele>1657</ele>
        <time>2016-09-10T07:35:06.000Z</time>
      </trkpt>
      <trkpt lat="45.47028" lon="5.85084">
        <ele>1656.5999755859</ele>
        <time>2016-09-10T07:35:08.000Z</time>
      </trkpt>
      <trkpt lat="45.47036" lon="5.85087">
        <ele>1656.1999511719</ele>
        <time>2016-09-10T07:35:10.000Z</time>
      </trkpt>
      <trkpt lat="45.47041" lon="5.85088">
        <ele>1655.8000488281</ele>
        <time>2016-09-10T07:35:12.000Z</time>
      </trkpt>
      <trkpt lat="45.47041" lon="5.85088">
        <ele>1655.8000488281</ele>
        <time>2016-09-10T07:35:20.000Z</time>
      </trkpt>
      <trkpt lat="45.47041" lon="5.85088">
        <ele>1655.8000488281</ele>
        <time>2016-09-10T07:35:22.000Z</time>
      </trkpt>
      <trkpt lat="45.47041" lon="5.85088">
        <ele>1655.8000488281</ele>
        <time>2016-09-10T07:35:24.000Z</time>
      </trkpt>
      <trkpt lat="45.47041" lon="5.85088">
        <ele>1655.8000488281</ele>
        <time>2016-09-10T07:35:26.000Z</time>
      </trkpt>
      <trkpt lat="45.47041" lon="5.85088">
        <ele>1655.8000488281</ele>
        <time>2016-09-10T07:35:28.000Z</time>
      </trkpt>
      <trkpt lat="45.47041" lon="5.85088">
        <ele>1655.8000488281</ele>
        <time>2016-09-10T07:35:30.000Z</time>
      </trkpt>
      <trkpt lat="45.47068" lon="5.85121">
        <ele>1654.5999755859</ele>
        <time>2016-09-10T07:37:04.000Z</time>
      </trkpt>
      <trkpt lat="45.47082" lon="5.85138">
        <ele>1654</ele>
        <time>2016-09-10T07:37:06.000Z</time>
      </trkpt>
      <trkpt lat="45.4709" lon="5.85147">
        <ele>1653.4000244141</ele>
        <time>2016-09-10T07:37:08.000Z</time>
      </trkpt>
      <trkpt lat="45.4709" lon="5.85147">
        <ele>1653.4000244141</ele>
        <time>2016-09-10T07:37:10.000Z</time>
      </trkpt>
      <trkpt lat="45.4709" lon="5.85147">
        <ele>1653.4000244141</ele>
        <time>2016-09-10T07:37:12.000Z</time>
      </trkpt>
      <trkpt lat="45.47098" lon="5.85155">
        <ele>1652.8000488281</ele>
        <time>2016-09-10T07:37:16.000Z</time>
      </trkpt>
      <trkpt lat="45.47103" lon="5.8516">
        <ele>1652.4000244141</ele>
        <time>2016-09-10T07:37:18.000Z</time>
      </trkpt>
      <trkpt lat="45.47108" lon="5.85161">
        <ele>1652.1999511719</ele>
        <time>2016-09-10T07:37:24.000Z</time>
      </trkpt>
      <trkpt lat="45.47113" lon="5.85159">
        <ele>1652</ele>
        <time>2016-09-10T07:37:30.000Z</time>
      </trkpt>
      <trkpt lat="45.47113" lon="5.85159">
        <ele>1652</ele>
        <time>2016-09-10T07:37:32.000Z</time>
      </trkpt>
      <trkpt lat="45.47113" lon="5.85159">
        <ele>1652</ele>
        <time>2016-09-10T07:37:34.000Z</time>
      </trkpt>
      <trkpt lat="45.47113" lon="5.85159">
        <ele>1652</ele>
        <time>2016-09-10T07:37:36.000Z</time>
      </trkpt>
      <trkpt lat="45.47116" lon="5.85164">
        <ele>1651.8000488281</ele>
        <time>2016-09-10T07:38:11.000Z</time>
      </trkpt>
      <trkpt lat="45.4712" lon="5.85169">
        <ele>1651.5999755859</ele>
        <time>2016-09-10T07:38:17.000Z</time>
      </trkpt>
      <trkpt lat="45.4712" lon="5.85169">
        <ele>1651.5999755859</ele>
        <time>2016-09-10T07:38:21.000Z</time>
      </trkpt>
      <trkpt lat="45.4712" lon="5.85169">
        <ele>1651.5999755859</ele>
        <time>2016-09-10T07:38:23.000Z</time>
      </trkpt>
      <trkpt lat="45.47129" lon="5.85182">
        <ele>1651.4000244141</ele>
        <time>2016-09-10T07:38:53.000Z</time>
      </trkpt>
      <trkpt lat="45.47134" lon="5.85191">
        <ele>1651.1999511719</ele>
        <time>2016-09-10T07:38:55.000Z</time>
      </trkpt>
      <trkpt lat="45.47139" lon="5.85196">
        <ele>1651</ele>
        <time>2016-09-10T07:38:57.000Z</time>
      </trkpt>
      <trkpt lat="45.47143" lon="5.85201">
        <ele>1651</ele>
        <time>2016-09-10T07:38:59.000Z</time>
      </trkpt>
      <trkpt lat="45.47146" lon="5.85206">
        <ele>1651</ele>
        <time>2016-09-10T07:39:03.000Z</time>
      </trkpt>
      <trkpt lat="45.47146" lon="5.85206">
        <ele>1651</ele>
        <time>2016-09-10T07:39:05.000Z</time>
      </trkpt>
      <trkpt lat="45.47146" lon="5.85206">
        <ele>1651</ele>
        <time>2016-09-10T07:39:07.000Z</time>
      </trkpt>
      <trkpt lat="45.47146" lon="5.85206">
        <ele>1651</ele>
        <time>2016-09-10T07:39:09.000Z</time>
      </trkpt>
      <trkpt lat="45.47146" lon="5.85206">
        <ele>1651</ele>
        <time>2016-09-10T07:39:11.000Z</time>
      </trkpt>
      <trkpt lat="45.47157" lon="5.85222">
        <ele>1650.4000244141</ele>
        <time>2016-09-10T07:39:27.000Z</time>
      </trkpt>
      <trkpt lat="45.47162" lon="5.85231">
        <ele>1650</ele>
        <time>2016-09-10T07:39:29.000Z</time>
      </trkpt>
      <trkpt lat="45.47165" lon="5.85237">
        <ele>1649.8000488281</ele>
        <time>2016-09-10T07:39:31.000Z</time>
      </trkpt>
      <trkpt lat="45.47165" lon="5.85237">
        <ele>1649.8000488281</ele>
        <time>2016-09-10T07:39:33.000Z</time>
      </trkpt>
      <trkpt lat="45.47165" lon="5.85237">
        <ele>1649.8000488281</ele>
        <time>2016-09-10T07:39:35.000Z</time>
      </trkpt>
      <trkpt lat="45.47172" lon="5.85246">
        <ele>1649.8000488281</ele>
        <time>2016-09-10T07:39:43.000Z</time>
      </trkpt>
      <trkpt lat="45.47177" lon="5.85251">
        <ele>1649.8000488281</ele>
        <time>2016-09-10T07:39:45.000Z</time>
      </trkpt>
      <trkpt lat="45.47181" lon="5.85256">
        <ele>1649.5999755859</ele>
        <time>2016-09-10T07:39:49.000Z</time>
      </trkpt>
      <trkpt lat="45.47185" lon="5.85261">
        <ele>1649.5999755859</ele>
        <time>2016-09-10T07:39:53.000Z</time>
      </trkpt>
      <trkpt lat="45.47189" lon="5.85265">
        <ele>1649.4000244141</ele>
        <time>2016-09-10T07:39:57.000Z</time>
      </trkpt>
      <trkpt lat="45.47194" lon="5.8527">
        <ele>1649.1999511719</ele>
        <time>2016-09-10T07:40:03.000Z</time>
      </trkpt>
      <trkpt lat="45.47196" lon="5.85275">
        <ele>1648.8000488281</ele>
        <time>2016-09-10T07:40:07.000Z</time>
      </trkpt>
      <trkpt lat="45.47199" lon="5.85282">
        <ele>1648.4000244141</ele>
        <time>2016-09-10T07:40:13.000Z</time>
      </trkpt>
      <trkpt lat="45.47199" lon="5.85282">
        <ele>1648.4000244141</ele>
        <time>2016-09-10T07:40:17.000Z</time>
      </trkpt>
      <trkpt lat="45.47199" lon="5.85282">
        <ele>1648.4000244141</ele>
        <time>2016-09-10T07:40:19.000Z</time>
      </trkpt>
      <trkpt lat="45.47199" lon="5.85282">
        <ele>1648.4000244141</ele>
        <time>2016-09-10T07:40:21.000Z</time>
      </trkpt>
      <trkpt lat="45.47199" lon="5.85282">
        <ele>1648.4000244141</ele>
        <time>2016-09-10T07:40:23.000Z</time>
      </trkpt>
      <trkpt lat="45.4721" lon="5.85298">
        <ele>1647.5999755859</ele>
        <time>2016-09-10T07:41:03.000Z</time>
      </trkpt>
      <trkpt lat="45.47215" lon="5.85306">
        <ele>1647.4000244141</ele>
        <time>2016-09-10T07:41:05.000Z</time>
      </trkpt>
      <trkpt lat="45.47215" lon="5.85306">
        <ele>1647.4000244141</ele>
        <time>2016-09-10T07:41:07.000Z</time>
      </trkpt>
      <trkpt lat="45.47221" lon="5.85308">
        <ele>1647.1999511719</ele>
        <time>2016-09-10T07:41:11.000Z</time>
      </trkpt>
      <trkpt lat="45.47226" lon="5.85308">
        <ele>1647.5999755859</ele>
        <time>2016-09-10T07:41:15.000Z</time>
      </trkpt>
      <trkpt lat="45.47226" lon="5.85308">
        <ele>1647.5999755859</ele>
        <time>2016-09-10T07:41:19.000Z</time>
      </trkpt>
      <trkpt lat="45.47226" lon="5.85308">
        <ele>1647.5999755859</ele>
        <time>2016-09-10T07:41:21.000Z</time>
      </trkpt>
      <trkpt lat="45.4724" lon="5.85296">
        <ele>1648.5999755859</ele>
        <time>2016-09-10T07:41:43.000Z</time>
      </trkpt>
      <trkpt lat="45.4724" lon="5.85296">
        <ele>1648.5999755859</ele>
        <time>2016-09-10T07:41:45.000Z</time>
      </trkpt>
      <trkpt lat="45.47247" lon="5.85293">
        <ele>1649</ele>
        <time>2016-09-10T07:41:49.000Z</time>
      </trkpt>
      <trkpt lat="45.47252" lon="5.85293">
        <ele>1649.1999511719</ele>
        <time>2016-09-10T07:41:53.000Z</time>
      </trkpt>
      <trkpt lat="45.47252" lon="5.85293">
        <ele>1649.1999511719</ele>
        <time>2016-09-10T07:41:55.000Z</time>
      </trkpt>
      <trkpt lat="45.47252" lon="5.85293">
        <ele>1649.1999511719</ele>
        <time>2016-09-10T07:41:57.000Z</time>
      </trkpt>
      <trkpt lat="45.47252" lon="5.85293">
        <ele>1649.1999511719</ele>
        <time>2016-09-10T07:41:59.000Z</time>
      </trkpt>
      <trkpt lat="45.47252" lon="5.85293">
        <ele>1649.1999511719</ele>
        <time>2016-09-10T07:42:01.000Z</time>
      </trkpt>
      <trkpt lat="45.47258" lon="5.853">
        <ele>1649.4000244141</ele>
        <time>2016-09-10T07:42:11.000Z</time>
      </trkpt>
      <trkpt lat="45.47261" lon="5.85306">
        <ele>1649.4000244141</ele>
        <time>2016-09-10T07:42:13.000Z</time>
      </trkpt>
      <trkpt lat="45.47263" lon="5.85312">
        <ele>1649.4000244141</ele>
        <time>2016-09-10T07:42:17.000Z</time>
      </trkpt>
      <trkpt lat="45.47266" lon="5.85318">
        <ele>1649.4000244141</ele>
        <time>2016-09-10T07:42:21.000Z</time>
      </trkpt>
      <trkpt lat="45.47266" lon="5.85318">
        <ele>1649.4000244141</ele>
        <time>2016-09-10T07:42:23.000Z</time>
      </trkpt>
      <trkpt lat="45.47266" lon="5.85318">
        <ele>1649.4000244141</ele>
        <time>2016-09-10T07:42:25.000Z</time>
      </trkpt>
      <trkpt lat="45.47266" lon="5.85318">
        <ele>1649.4000244141</ele>
        <time>2016-09-10T07:42:27.000Z</time>
      </trkpt>
      <trkpt lat="45.47266" lon="5.85318">
        <ele>1649.4000244141</ele>
        <time>2016-09-10T07:42:39.000Z</time>
      </trkpt>
      <trkpt lat="45.47266" lon="5.85318">
        <ele>1649.4000244141</ele>
        <time>2016-09-10T07:42:41.000Z</time>
      </trkpt>
      <trkpt lat="45.47304" lon="5.85304">
        <ele>1645.5999755859</ele>
        <time>2016-09-10T07:43:55.000Z</time>
      </trkpt>
      <trkpt lat="45.47325" lon="5.85297">
        <ele>1642.8000488281</ele>
        <time>2016-09-10T07:43:57.000Z</time>
      </trkpt>
      <trkpt lat="45.47337" lon="5.85293">
        <ele>1641.5999755859</ele>
        <time>2016-09-10T07:43:59.000Z</time>
      </trkpt>
      <trkpt lat="45.47345" lon="5.8529">
        <ele>1641.1999511719</ele>
        <time>2016-09-10T07:44:01.000Z</time>
      </trkpt>
      <trkpt lat="45.4735" lon="5.85288">
        <ele>1640.8000488281</ele>
        <time>2016-09-10T07:44:03.000Z</time>
      </trkpt>
      <trkpt lat="45.4735" lon="5.85288">
        <ele>1640.8000488281</ele>
        <time>2016-09-10T07:44:05.000Z</time>
      </trkpt>
      <trkpt lat="45.4735" lon="5.85288">
        <ele>1640.8000488281</ele>
        <time>2016-09-10T07:44:07.000Z</time>
      </trkpt>
      <trkpt lat="45.4735" lon="5.85288">
        <ele>1640.8000488281</ele>
        <time>2016-09-10T07:44:09.000Z</time>
      </trkpt>
      <trkpt lat="45.4735" lon="5.85288">
        <ele>1640.8000488281</ele>
        <time>2016-09-10T07:44:11.000Z</time>
      </trkpt>
      <trkpt lat="45.47395" lon="5.85283">
        <ele>1639.8000488281</ele>
        <time>2016-09-10T07:47:17.000Z</time>
      </trkpt>
      <trkpt lat="45.47419" lon="5.85282">
        <ele>1639.5999755859</ele>
        <time>2016-09-10T07:47:19.000Z</time>
      </trkpt>
      <trkpt lat="45.47432" lon="5.85282">
        <ele>1638.5999755859</ele>
        <time>2016-09-10T07:47:21.000Z</time>
      </trkpt>
      <trkpt lat="45.47432" lon="5.85282">
        <ele>1638.5999755859</ele>
        <time>2016-09-10T07:47:25.000Z</time>
      </trkpt>
      <trkpt lat="45.47432" lon="5.85282">
        <ele>1638.5999755859</ele>
        <time>2016-09-10T07:47:27.000Z</time>
      </trkpt>
      <trkpt lat="45.47444" lon="5.85298">
        <ele>1638.8000488281</ele>
        <time>2016-09-10T07:47:59.000Z</time>
      </trkpt>
      <trkpt lat="45.47449" lon="5.85307">
        <ele>1638.4000244141</ele>
        <time>2016-09-10T07:48:01.000Z</time>
      </trkpt>
      <trkpt lat="45.47449" lon="5.85307">
        <ele>1638.4000244141</ele>
        <time>2016-09-10T07:48:03.000Z</time>
      </trkpt>
      <trkpt lat="45.47449" lon="5.85307">
        <ele>1638.4000244141</ele>
        <time>2016-09-10T07:48:05.000Z</time>
      </trkpt>
      <trkpt lat="45.47453" lon="5.85317">
        <ele>1638.5999755859</ele>
        <time>2016-09-10T07:48:09.000Z</time>
      </trkpt>
      <trkpt lat="45.47455" lon="5.85323">
        <ele>1638.4000244141</ele>
        <time>2016-09-10T07:48:11.000Z</time>
      </trkpt>
      <trkpt lat="45.47459" lon="5.85328">
        <ele>1638.1999511719</ele>
        <time>2016-09-10T07:48:17.000Z</time>
      </trkpt>
      <trkpt lat="45.47459" lon="5.85328">
        <ele>1638.1999511719</ele>
        <time>2016-09-10T07:48:19.000Z</time>
      </trkpt>
      <trkpt lat="45.47459" lon="5.85328">
        <ele>1638.1999511719</ele>
        <time>2016-09-10T07:48:21.000Z</time>
      </trkpt>
      <trkpt lat="45.47477" lon="5.85344">
        <ele>1636.4000244141</ele>
        <time>2016-09-10T07:49:17.000Z</time>
      </trkpt>
      <trkpt lat="45.47486" lon="5.85351">
        <ele>1635</ele>
        <time>2016-09-10T07:49:19.000Z</time>
      </trkpt>
      <trkpt lat="45.47493" lon="5.85355">
        <ele>1634.1999511719</ele>
        <time>2016-09-10T07:49:21.000Z</time>
      </trkpt>
      <trkpt lat="45.47493" lon="5.85355">
        <ele>1634.1999511719</ele>
        <time>2016-09-10T07:49:23.000Z</time>
      </trkpt>
      <trkpt lat="45.47493" lon="5.85355">
        <ele>1634.1999511719</ele>
        <time>2016-09-10T07:49:29.000Z</time>
      </trkpt>
      <trkpt lat="45.47493" lon="5.85355">
        <ele>1634.1999511719</ele>
        <time>2016-09-10T07:49:31.000Z</time>
      </trkpt>
      <trkpt lat="45.47493" lon="5.85355">
        <ele>1634.1999511719</ele>
        <time>2016-09-10T07:49:34.000Z</time>
      </trkpt>
      <trkpt lat="45.47493" lon="5.85355">
        <ele>1634.1999511719</ele>
        <time>2016-09-10T07:49:35.000Z</time>
      </trkpt>
      <trkpt lat="45.47493" lon="5.85355">
        <ele>1634.1999511719</ele>
        <time>2016-09-10T07:49:37.000Z</time>
      </trkpt>
      <trkpt lat="45.47493" lon="5.85355">
        <ele>1634.1999511719</ele>
        <time>2016-09-10T07:49:39.000Z</time>
      </trkpt>
      <trkpt lat="45.47583" lon="5.85396">
        <ele>1628</ele>
        <time>2016-09-10T07:54:51.000Z</time>
      </trkpt>
      <trkpt lat="45.47583" lon="5.85396">
        <ele>1628</ele>
        <time>2016-09-10T07:54:53.000Z</time>
      </trkpt>
      <trkpt lat="45.47583" lon="5.85396">
        <ele>1628</ele>
        <time>2016-09-10T07:54:55.000Z</time>
      </trkpt>
      <trkpt lat="45.47655" lon="5.8541">
        <ele>1622.8000488281</ele>
        <time>2016-09-10T07:56:15.000Z</time>
      </trkpt>
      <trkpt lat="45.47695" lon="5.8542">
        <ele>1623.4000244141</ele>
        <time>2016-09-10T07:56:25.000Z</time>
      </trkpt>
      <trkpt lat="45.47695" lon="5.8542">
        <ele>1623.4000244141</ele>
        <time>2016-09-10T07:56:27.000Z</time>
      </trkpt>
      <trkpt lat="45.47695" lon="5.8542">
        <ele>1623.4000244141</ele>
        <time>2016-09-10T07:56:29.000Z</time>
      </trkpt>
      <trkpt lat="45.47728" lon="5.85433">
        <ele>1629.1999511719</ele>
        <time>2016-09-10T07:57:13.000Z</time>
      </trkpt>
      <trkpt lat="45.47746" lon="5.85439">
        <ele>1630.1999511719</ele>
        <time>2016-09-10T07:57:15.000Z</time>
      </trkpt>
      <trkpt lat="45.47756" lon="5.85442">
        <ele>1630.5999755859</ele>
        <time>2016-09-10T07:57:17.000Z</time>
      </trkpt>
      <trkpt lat="45.47763" lon="5.85444">
        <ele>1630.5999755859</ele>
        <time>2016-09-10T07:57:19.000Z</time>
      </trkpt>
      <trkpt lat="45.47768" lon="5.85444">
        <ele>1630.4000244141</ele>
        <time>2016-09-10T07:57:21.000Z</time>
      </trkpt>
      <trkpt lat="45.47778" lon="5.85445">
        <ele>1629.4000244141</ele>
        <time>2016-09-10T07:57:25.000Z</time>
      </trkpt>
      <trkpt lat="45.47778" lon="5.85445">
        <ele>1629.4000244141</ele>
        <time>2016-09-10T07:57:27.000Z</time>
      </trkpt>
      <trkpt lat="45.47778" lon="5.85445">
        <ele>1629.4000244141</ele>
        <time>2016-09-10T07:57:29.000Z</time>
      </trkpt>
      <trkpt lat="45.47778" lon="5.85445">
        <ele>1629.4000244141</ele>
        <time>2016-09-10T07:57:31.000Z</time>
      </trkpt>
      <trkpt lat="45.47778" lon="5.85445">
        <ele>1629.4000244141</ele>
        <time>2016-09-10T07:57:37.000Z</time>
      </trkpt>
      <trkpt lat="45.47778" lon="5.85445">
        <ele>1629.4000244141</ele>
        <time>2016-09-10T07:57:39.000Z</time>
      </trkpt>
      <trkpt lat="45.47778" lon="5.85445">
        <ele>1629.4000244141</ele>
        <time>2016-09-10T07:57:41.000Z</time>
      </trkpt>
      <trkpt lat="45.47778" lon="5.85445">
        <ele>1629.4000244141</ele>
        <time>2016-09-10T07:57:43.000Z</time>
      </trkpt>
      <trkpt lat="45.47814" lon="5.8545">
        <ele>1624.4000244141</ele>
        <time>2016-09-10T07:57:59.000Z</time>
      </trkpt>
      <trkpt lat="45.47814" lon="5.8545">
        <ele>1624.4000244141</ele>
        <time>2016-09-10T07:58:09.000Z</time>
      </trkpt>
      <trkpt lat="45.47814" lon="5.8545">
        <ele>1624.4000244141</ele>
        <time>2016-09-10T07:58:11.000Z</time>
      </trkpt>
      <trkpt lat="45.47814" lon="5.8545">
        <ele>1624.4000244141</ele>
        <time>2016-09-10T07:58:13.000Z</time>
      </trkpt>
      <trkpt lat="45.47828" lon="5.85453">
        <ele>1624</ele>
        <time>2016-09-10T07:58:17.000Z</time>
      </trkpt>
      <trkpt lat="45.47836" lon="5.85448">
        <ele>1622.8000488281</ele>
        <time>2016-09-10T07:58:23.000Z</time>
      </trkpt>
      <trkpt lat="45.47841" lon="5.85448">
        <ele>1623</ele>
        <time>2016-09-10T07:58:31.000Z</time>
      </trkpt>
      <trkpt lat="45.47846" lon="5.85448">
        <ele>1623.1999511719</ele>
        <time>2016-09-10T07:58:37.000Z</time>
      </trkpt>
      <trkpt lat="45.47851" lon="5.8545">
        <ele>1623.8000488281</ele>
        <time>2016-09-10T07:58:43.000Z</time>
      </trkpt>
      <trkpt lat="45.47856" lon="5.85453">
        <ele>1624.5999755859</ele>
        <time>2016-09-10T07:58:49.000Z</time>
      </trkpt>
      <trkpt lat="45.47861" lon="5.85457">
        <ele>1624.8000488281</ele>
        <time>2016-09-10T07:58:53.000Z</time>
      </trkpt>
      <trkpt lat="45.47866" lon="5.85461">
        <ele>1624.5999755859</ele>
        <time>2016-09-10T07:58:57.000Z</time>
      </trkpt>
      <trkpt lat="45.47871" lon="5.85464">
        <ele>1624.1999511719</ele>
        <time>2016-09-10T07:59:01.000Z</time>
      </trkpt>
      <trkpt lat="45.47871" lon="5.85464">
        <ele>1624.1999511719</ele>
        <time>2016-09-10T07:59:03.000Z</time>
      </trkpt>
      <trkpt lat="45.47871" lon="5.85464">
        <ele>1624.1999511719</ele>
        <time>2016-09-10T07:59:05.000Z</time>
      </trkpt>
      <trkpt lat="45.47881" lon="5.85472">
        <ele>1623.5999755859</ele>
        <time>2016-09-10T07:59:17.000Z</time>
      </trkpt>
      <trkpt lat="45.47888" lon="5.85477">
        <ele>1623.1999511719</ele>
        <time>2016-09-10T07:59:19.000Z</time>
      </trkpt>
      <trkpt lat="45.47893" lon="5.8548">
        <ele>1622.4000244141</ele>
        <time>2016-09-10T07:59:21.000Z</time>
      </trkpt>
      <trkpt lat="45.47893" lon="5.8548">
        <ele>1622.4000244141</ele>
        <time>2016-09-10T07:59:25.000Z</time>
      </trkpt>
      <trkpt lat="45.47893" lon="5.8548">
        <ele>1622.4000244141</ele>
        <time>2016-09-10T07:59:27.000Z</time>
      </trkpt>
      <trkpt lat="45.47901" lon="5.85479">
        <ele>1621.1999511719</ele>
        <time>2016-09-10T07:59:33.000Z</time>
      </trkpt>
      <trkpt lat="45.47907" lon="5.85478">
        <ele>1620.4000244141</ele>
        <time>2016-09-10T07:59:35.000Z</time>
      </trkpt>
      <trkpt lat="45.47911" lon="5.8548">
        <ele>1619.8000488281</ele>
        <time>2016-09-10T07:59:39.000Z</time>
      </trkpt>
      <trkpt lat="45.47916" lon="5.85482">
        <ele>1619</ele>
        <time>2016-09-10T07:59:45.000Z</time>
      </trkpt>
      <trkpt lat="45.47916" lon="5.85482">
        <ele>1619</ele>
        <time>2016-09-10T07:59:47.000Z</time>
      </trkpt>
      <trkpt lat="45.47916" lon="5.85482">
        <ele>1619</ele>
        <time>2016-09-10T07:59:49.000Z</time>
      </trkpt>
      <trkpt lat="45.47935" lon="5.85491">
        <ele>1618.5999755859</ele>
        <time>2016-09-10T08:00:19.000Z</time>
      </trkpt>
      <trkpt lat="45.47946" lon="5.85495">
        <ele>1618.5999755859</ele>
        <time>2016-09-10T08:00:21.000Z</time>
      </trkpt>
      <trkpt lat="45.47953" lon="5.85498">
        <ele>1619.1999511719</ele>
        <time>2016-09-10T08:00:23.000Z</time>
      </trkpt>
      <trkpt lat="45.47958" lon="5.85499">
        <ele>1619.4000244141</ele>
        <time>2016-09-10T08:00:25.000Z</time>
      </trkpt>
      <trkpt lat="45.47963" lon="5.85501">
        <ele>1619.5999755859</ele>
        <time>2016-09-10T08:00:29.000Z</time>
      </trkpt>
      <trkpt lat="45.47967" lon="5.85502">
        <ele>1619.5999755859</ele>
        <time>2016-09-10T08:00:33.000Z</time>
      </trkpt>
      <trkpt lat="45.47967" lon="5.85502">
        <ele>1619.5999755859</ele>
        <time>2016-09-10T08:00:39.000Z</time>
      </trkpt>
      <trkpt lat="45.47967" lon="5.85502">
        <ele>1619.5999755859</ele>
        <time>2016-09-10T08:00:41.000Z</time>
      </trkpt>
      <trkpt lat="45.47967" lon="5.85502">
        <ele>1619.5999755859</ele>
        <time>2016-09-10T08:00:43.000Z</time>
      </trkpt>
      <trkpt lat="45.47976" lon="5.85507">
        <ele>1619.4000244141</ele>
        <time>2016-09-10T08:00:47.000Z</time>
      </trkpt>
      <trkpt lat="45.47981" lon="5.8551">
        <ele>1619</ele>
        <time>2016-09-10T08:00:49.000Z</time>
      </trkpt>
      <trkpt lat="45.47981" lon="5.8551">
        <ele>1619</ele>
        <time>2016-09-10T08:00:51.000Z</time>
      </trkpt>
      <trkpt lat="45.47981" lon="5.8551">
        <ele>1619</ele>
        <time>2016-09-10T08:00:53.000Z</time>
      </trkpt>
      <trkpt lat="45.47981" lon="5.8551">
        <ele>1619</ele>
        <time>2016-09-10T08:00:55.000Z</time>
      </trkpt>
      <trkpt lat="45.47981" lon="5.8551">
        <ele>1619</ele>
        <time>2016-09-10T08:00:59.000Z</time>
      </trkpt>
      <trkpt lat="45.47981" lon="5.8551">
        <ele>1619</ele>
        <time>2016-09-10T08:01:01.000Z</time>
      </trkpt>
      <trkpt lat="45.48006" lon="5.85523">
        <ele>1616</ele>
        <time>2016-09-10T08:02:15.000Z</time>
      </trkpt>
      <trkpt lat="45.48006" lon="5.85523">
        <ele>1616</ele>
        <time>2016-09-10T08:02:17.000Z</time>
      </trkpt>
      <trkpt lat="45.48006" lon="5.85523">
        <ele>1616</ele>
        <time>2016-09-10T08:02:19.000Z</time>
      </trkpt>
      <trkpt lat="45.48028" lon="5.85543">
        <ele>1613</ele>
        <time>2016-09-10T08:02:55.000Z</time>
      </trkpt>
      <trkpt lat="45.4804" lon="5.85554">
        <ele>1612.1999511719</ele>
        <time>2016-09-10T08:02:57.000Z</time>
      </trkpt>
      <trkpt lat="45.48048" lon="5.85561">
        <ele>1611.5999755859</ele>
        <time>2016-09-10T08:02:59.000Z</time>
      </trkpt>
      <trkpt lat="45.48052" lon="5.85565">
        <ele>1611.1999511719</ele>
        <time>2016-09-10T08:03:01.000Z</time>
      </trkpt>
      <trkpt lat="45.48052" lon="5.85565">
        <ele>1611.1999511719</ele>
        <time>2016-09-10T08:03:05.000Z</time>
      </trkpt>
      <trkpt lat="45.48052" lon="5.85565">
        <ele>1611.1999511719</ele>
        <time>2016-09-10T08:03:07.000Z</time>
      </trkpt>
      <trkpt lat="45.48064" lon="5.85579">
        <ele>1610.8000488281</ele>
        <time>2016-09-10T08:03:29.000Z</time>
      </trkpt>
      <trkpt lat="45.48064" lon="5.85579">
        <ele>1610.8000488281</ele>
        <time>2016-09-10T08:03:31.000Z</time>
      </trkpt>
      <trkpt lat="45.48064" lon="5.85579">
        <ele>1610.8000488281</ele>
        <time>2016-09-10T08:03:33.000Z</time>
      </trkpt>
      <trkpt lat="45.48064" lon="5.85579">
        <ele>1610.8000488281</ele>
        <time>2016-09-10T08:03:35.000Z</time>
      </trkpt>
      <trkpt lat="45.48064" lon="5.85579">
        <ele>1610.8000488281</ele>
        <time>2016-09-10T08:03:39.000Z</time>
      </trkpt>
      <trkpt lat="45.48064" lon="5.85579">
        <ele>1610.8000488281</ele>
        <time>2016-09-10T08:03:41.000Z</time>
      </trkpt>
      <trkpt lat="45.48079" lon="5.85585">
        <ele>1609.8000488281</ele>
        <time>2016-09-10T08:03:53.000Z</time>
      </trkpt>
      <trkpt lat="45.48088" lon="5.85585">
        <ele>1609.1999511719</ele>
        <time>2016-09-10T08:03:55.000Z</time>
      </trkpt>
      <trkpt lat="45.48094" lon="5.85585">
        <ele>1609</ele>
        <time>2016-09-10T08:03:57.000Z</time>
      </trkpt>
      <trkpt lat="45.48094" lon="5.85585">
        <ele>1609</ele>
        <time>2016-09-10T08:03:59.000Z</time>
      </trkpt>
      <trkpt lat="45.48094" lon="5.85585">
        <ele>1609</ele>
        <time>2016-09-10T08:04:01.000Z</time>
      </trkpt>
      <trkpt lat="45.48114" lon="5.85585">
        <ele>1608.8000488281</ele>
        <time>2016-09-10T08:04:39.000Z</time>
      </trkpt>
      <trkpt lat="45.48126" lon="5.85586">
        <ele>1609.1999511719</ele>
        <time>2016-09-10T08:04:41.000Z</time>
      </trkpt>
      <trkpt lat="45.48132" lon="5.85588">
        <ele>1609.5999755859</ele>
        <time>2016-09-10T08:04:43.000Z</time>
      </trkpt>
      <trkpt lat="45.48132" lon="5.85588">
        <ele>1609.5999755859</ele>
        <time>2016-09-10T08:04:47.000Z</time>
      </trkpt>
      <trkpt lat="45.48132" lon="5.85588">
        <ele>1609.5999755859</ele>
        <time>2016-09-10T08:04:49.000Z</time>
      </trkpt>
      <trkpt lat="45.48132" lon="5.85588">
        <ele>1609.5999755859</ele>
        <time>2016-09-10T08:04:51.000Z</time>
      </trkpt>
      <trkpt lat="45.48144" lon="5.85596">
        <ele>1610.1999511719</ele>
        <time>2016-09-10T08:05:29.000Z</time>
      </trkpt>
      <trkpt lat="45.48151" lon="5.85602">
        <ele>1610.4000244141</ele>
        <time>2016-09-10T08:05:31.000Z</time>
      </trkpt>
      <trkpt lat="45.48156" lon="5.85606">
        <ele>1610.5999755859</ele>
        <time>2016-09-10T08:05:33.000Z</time>
      </trkpt>
      <trkpt lat="45.48161" lon="5.85609">
        <ele>1610.8000488281</ele>
        <time>2016-09-10T08:05:35.000Z</time>
      </trkpt>
      <trkpt lat="45.48161" lon="5.85609">
        <ele>1610.8000488281</ele>
        <time>2016-09-10T08:05:39.000Z</time>
      </trkpt>
      <trkpt lat="45.48161" lon="5.85609">
        <ele>1610.8000488281</ele>
        <time>2016-09-10T08:05:41.000Z</time>
      </trkpt>
      <trkpt lat="45.48168" lon="5.85617">
        <ele>1611</ele>
        <time>2016-09-10T08:05:45.000Z</time>
      </trkpt>
      <trkpt lat="45.48173" lon="5.85622">
        <ele>1611</ele>
        <time>2016-09-10T08:05:47.000Z</time>
      </trkpt>
      <trkpt lat="45.48173" lon="5.85622">
        <ele>1611</ele>
        <time>2016-09-10T08:05:49.000Z</time>
      </trkpt>
      <trkpt lat="45.48173" lon="5.85622">
        <ele>1611</ele>
        <time>2016-09-10T08:05:51.000Z</time>
      </trkpt>
      <trkpt lat="45.48173" lon="5.85622">
        <ele>1611</ele>
        <time>2016-09-10T08:05:53.000Z</time>
      </trkpt>
      <trkpt lat="45.48173" lon="5.85622">
        <ele>1611</ele>
        <time>2016-09-10T08:05:57.000Z</time>
      </trkpt>
      <trkpt lat="45.48173" lon="5.85622">
        <ele>1611</ele>
        <time>2016-09-10T08:05:59.000Z</time>
      </trkpt>
      <trkpt lat="45.48199" lon="5.85634">
        <ele>1610</ele>
        <time>2016-09-10T08:06:55.000Z</time>
      </trkpt>
      <trkpt lat="45.48214" lon="5.85639">
        <ele>1609.5999755859</ele>
        <time>2016-09-10T08:06:57.000Z</time>
      </trkpt>
      <trkpt lat="45.48214" lon="5.85639">
        <ele>1609.5999755859</ele>
        <time>2016-09-10T08:06:59.000Z</time>
      </trkpt>
      <trkpt lat="45.48214" lon="5.85639">
        <ele>1609.5999755859</ele>
        <time>2016-09-10T08:07:01.000Z</time>
      </trkpt>
      <trkpt lat="45.48214" lon="5.85639">
        <ele>1609.5999755859</ele>
        <time>2016-09-10T08:07:03.000Z</time>
      </trkpt>
      <trkpt lat="45.48238" lon="5.85641">
        <ele>1607</ele>
        <time>2016-09-10T08:07:31.000Z</time>
      </trkpt>
      <trkpt lat="45.48238" lon="5.85641">
        <ele>1607</ele>
        <time>2016-09-10T08:07:33.000Z</time>
      </trkpt>
      <trkpt lat="45.48238" lon="5.85641">
        <ele>1607</ele>
        <time>2016-09-10T08:07:35.000Z</time>
      </trkpt>
      <trkpt lat="45.4827" lon="5.85669">
        <ele>1600.5999755859</ele>
        <time>2016-09-10T08:09:34.000Z</time>
      </trkpt>
      <trkpt lat="45.48286" lon="5.85684">
        <ele>1599</ele>
        <time>2016-09-10T08:09:36.000Z</time>
      </trkpt>
      <trkpt lat="45.48295" lon="5.85693">
        <ele>1598.8000488281</ele>
        <time>2016-09-10T08:09:38.000Z</time>
      </trkpt>
      <trkpt lat="45.48295" lon="5.85693">
        <ele>1598.8000488281</ele>
        <time>2016-09-10T08:09:40.000Z</time>
      </trkpt>
      <trkpt lat="45.48295" lon="5.85693">
        <ele>1598.8000488281</ele>
        <time>2016-09-10T08:10:04.000Z</time>
      </trkpt>
      <trkpt lat="45.48295" lon="5.85693">
        <ele>1598.8000488281</ele>
        <time>2016-09-10T08:10:06.000Z</time>
      </trkpt>
      <trkpt lat="45.48301" lon="5.85726">
        <ele>1599.8000488281</ele>
        <time>2016-09-10T08:13:50.000Z</time>
      </trkpt>
      <trkpt lat="45.48301" lon="5.85726">
        <ele>1599.8000488281</ele>
        <time>2016-09-10T08:13:52.000Z</time>
      </trkpt>
      <trkpt lat="45.48301" lon="5.85726">
        <ele>1599.8000488281</ele>
        <time>2016-09-10T08:13:54.000Z</time>
      </trkpt>
      <trkpt lat="45.48303" lon="5.8574">
        <ele>1600</ele>
        <time>2016-09-10T08:18:14.000Z</time>
      </trkpt>
      <trkpt lat="45.48303" lon="5.85748">
        <ele>1600</ele>
        <time>2016-09-10T08:18:16.000Z</time>
      </trkpt>
      <trkpt lat="45.48301" lon="5.85754">
        <ele>1599.8000488281</ele>
        <time>2016-09-10T08:18:20.000Z</time>
      </trkpt>
      <trkpt lat="45.48301" lon="5.85761">
        <ele>1599.8000488281</ele>
        <time>2016-09-10T08:18:26.000Z</time>
      </trkpt>
      <trkpt lat="45.48301" lon="5.85768">
        <ele>1599</ele>
        <time>2016-09-10T08:18:32.000Z</time>
      </trkpt>
      <trkpt lat="45.48304" lon="5.85774">
        <ele>1598.4000244141</ele>
        <time>2016-09-10T08:18:36.000Z</time>
      </trkpt>
      <trkpt lat="45.48306" lon="5.85782">
        <ele>1597.5999755859</ele>
        <time>2016-09-10T08:18:42.000Z</time>
      </trkpt>
      <trkpt lat="45.48309" lon="5.85788">
        <ele>1596.8000488281</ele>
        <time>2016-09-10T08:18:46.000Z</time>
      </trkpt>
      <trkpt lat="45.48313" lon="5.85795">
        <ele>1595.4000244141</ele>
        <time>2016-09-10T08:18:50.000Z</time>
      </trkpt>
      <trkpt lat="45.48313" lon="5.85795">
        <ele>1595.4000244141</ele>
        <time>2016-09-10T08:18:52.000Z</time>
      </trkpt>
      <trkpt lat="45.48313" lon="5.85795">
        <ele>1595.4000244141</ele>
        <time>2016-09-10T08:18:54.000Z</time>
      </trkpt>
      <trkpt lat="45.48318" lon="5.85813">
        <ele>1591</ele>
        <time>2016-09-10T08:19:30.000Z</time>
      </trkpt>
      <trkpt lat="45.48318" lon="5.85813">
        <ele>1591</ele>
        <time>2016-09-10T08:19:32.000Z</time>
      </trkpt>
      <trkpt lat="45.48318" lon="5.85813">
        <ele>1591</ele>
        <time>2016-09-10T08:19:34.000Z</time>
      </trkpt>
      <trkpt lat="45.48318" lon="5.85882">
        <ele>1574.5999755859</ele>
        <time>2016-09-10T08:24:02.000Z</time>
      </trkpt>
      <trkpt lat="45.48318" lon="5.85882">
        <ele>1574.5999755859</ele>
        <time>2016-09-10T08:24:04.000Z</time>
      </trkpt>
      <trkpt lat="45.48318" lon="5.85882">
        <ele>1574.5999755859</ele>
        <time>2016-09-10T08:24:06.000Z</time>
      </trkpt>
      <trkpt lat="45.48321" lon="5.85917">
        <ele>1563.5999755859</ele>
        <time>2016-09-10T08:24:44.000Z</time>
      </trkpt>
      <trkpt lat="45.48324" lon="5.85934">
        <ele>1559.8000488281</ele>
        <time>2016-09-10T08:24:46.000Z</time>
      </trkpt>
      <trkpt lat="45.48326" lon="5.85942">
        <ele>1558.5999755859</ele>
        <time>2016-09-10T08:24:48.000Z</time>
      </trkpt>
      <trkpt lat="45.48326" lon="5.85942">
        <ele>1558.5999755859</ele>
        <time>2016-09-10T08:24:50.000Z</time>
      </trkpt>
      <trkpt lat="45.48326" lon="5.85942">
        <ele>1558.5999755859</ele>
        <time>2016-09-10T08:24:52.000Z</time>
      </trkpt>
      <trkpt lat="45.48331" lon="5.8594">
        <ele>1558.1999511719</ele>
        <time>2016-09-10T08:24:58.000Z</time>
      </trkpt>
      <trkpt lat="45.48336" lon="5.85939">
        <ele>1557.8000488281</ele>
        <time>2016-09-10T08:25:02.000Z</time>
      </trkpt>
      <trkpt lat="45.48341" lon="5.85938">
        <ele>1557.1999511719</ele>
        <time>2016-09-10T08:25:06.000Z</time>
      </trkpt>
      <trkpt lat="45.48341" lon="5.85938">
        <ele>1557.1999511719</ele>
        <time>2016-09-10T08:25:12.000Z</time>
      </trkpt>
      <trkpt lat="45.48341" lon="5.85938">
        <ele>1557.1999511719</ele>
        <time>2016-09-10T08:25:14.000Z</time>
      </trkpt>
      <trkpt lat="45.48341" lon="5.85938">
        <ele>1557.1999511719</ele>
        <time>2016-09-10T08:25:16.000Z</time>
      </trkpt>
      <trkpt lat="45.48341" lon="5.85938">
        <ele>1557.1999511719</ele>
        <time>2016-09-10T08:25:18.000Z</time>
      </trkpt>
      <trkpt lat="45.48341" lon="5.85938">
        <ele>1557.1999511719</ele>
        <time>2016-09-10T08:25:28.000Z</time>
      </trkpt>
      <trkpt lat="45.48341" lon="5.85938">
        <ele>1557.1999511719</ele>
        <time>2016-09-10T08:25:30.000Z</time>
      </trkpt>
      <trkpt lat="45.48383" lon="5.86015">
        <ele>1543.5999755859</ele>
        <time>2016-09-10T08:31:12.000Z</time>
      </trkpt>
      <trkpt lat="45.48404" lon="5.86054">
        <ele>1534.5999755859</ele>
        <time>2016-09-10T08:31:14.000Z</time>
      </trkpt>
      <trkpt lat="45.48404" lon="5.86054">
        <ele>1534.5999755859</ele>
        <time>2016-09-10T08:31:16.000Z</time>
      </trkpt>
      <trkpt lat="45.48404" lon="5.86054">
        <ele>1534.5999755859</ele>
        <time>2016-09-10T08:31:28.000Z</time>
      </trkpt>
      <trkpt lat="45.48404" lon="5.86054">
        <ele>1534.5999755859</ele>
        <time>2016-09-10T08:31:30.000Z</time>
      </trkpt>
      <trkpt lat="45.48411" lon="5.86094">
        <ele>1529</ele>
        <time>2016-09-10T08:31:42.000Z</time>
      </trkpt>
      <trkpt lat="45.48413" lon="5.86115">
        <ele>1524.4000244141</ele>
        <time>2016-09-10T08:31:44.000Z</time>
      </trkpt>
      <trkpt lat="45.48413" lon="5.86115">
        <ele>1524.4000244141</ele>
        <time>2016-09-10T08:31:46.000Z</time>
      </trkpt>
      <trkpt lat="45.48413" lon="5.86115">
        <ele>1524.4000244141</ele>
        <time>2016-09-10T08:31:48.000Z</time>
      </trkpt>
      <trkpt lat="45.48413" lon="5.86115">
        <ele>1524.4000244141</ele>
        <time>2016-09-10T08:31:54.000Z</time>
      </trkpt>
      <trkpt lat="45.48413" lon="5.86115">
        <ele>1524.4000244141</ele>
        <time>2016-09-10T08:31:56.000Z</time>
      </trkpt>
      <trkpt lat="45.48412" lon="5.8614">
        <ele>1518.8000488281</ele>
        <time>2016-09-10T08:32:04.000Z</time>
      </trkpt>
      <trkpt lat="45.4841" lon="5.86154">
        <ele>1516.1999511719</ele>
        <time>2016-09-10T08:32:06.000Z</time>
      </trkpt>
      <trkpt lat="45.4841" lon="5.86162">
        <ele>1515</ele>
        <time>2016-09-10T08:32:08.000Z</time>
      </trkpt>
      <trkpt lat="45.4841" lon="5.86162">
        <ele>1515</ele>
        <time>2016-09-10T08:32:10.000Z</time>
      </trkpt>
      <trkpt lat="45.4841" lon="5.86162">
        <ele>1515</ele>
        <time>2016-09-10T08:32:12.000Z</time>
      </trkpt>
      <trkpt lat="45.4841" lon="5.86162">
        <ele>1515</ele>
        <time>2016-09-10T08:32:14.000Z</time>
      </trkpt>
      <trkpt lat="45.4841" lon="5.86162">
        <ele>1515</ele>
        <time>2016-09-10T08:32:24.000Z</time>
      </trkpt>
      <trkpt lat="45.4841" lon="5.86162">
        <ele>1515</ele>
        <time>2016-09-10T08:32:26.000Z</time>
      </trkpt>
      <trkpt lat="45.48415" lon="5.86194">
        <ele>1510.5999755859</ele>
        <time>2016-09-10T08:33:10.000Z</time>
      </trkpt>
      <trkpt lat="45.48415" lon="5.86194">
        <ele>1510.5999755859</ele>
        <time>2016-09-10T08:33:14.000Z</time>
      </trkpt>
      <trkpt lat="45.48415" lon="5.86194">
        <ele>1510.5999755859</ele>
        <time>2016-09-10T08:33:16.000Z</time>
      </trkpt>
      <trkpt lat="45.48419" lon="5.86223">
        <ele>1505.5999755859</ele>
        <time>2016-09-10T08:33:36.000Z</time>
      </trkpt>
      <trkpt lat="45.48419" lon="5.86223">
        <ele>1505.5999755859</ele>
        <time>2016-09-10T08:33:38.000Z</time>
      </trkpt>
      <trkpt lat="45.48419" lon="5.86223">
        <ele>1505.5999755859</ele>
        <time>2016-09-10T08:33:40.000Z</time>
      </trkpt>
      <trkpt lat="45.48419" lon="5.86223">
        <ele>1505.5999755859</ele>
        <time>2016-09-10T08:33:50.000Z</time>
      </trkpt>
      <trkpt lat="45.48419" lon="5.86223">
        <ele>1505.5999755859</ele>
        <time>2016-09-10T08:33:52.000Z</time>
      </trkpt>
      <trkpt lat="45.48399" lon="5.86269">
        <ele>1495</ele>
        <time>2016-09-10T08:49:20.000Z</time>
      </trkpt>
      <trkpt lat="45.48389" lon="5.86293">
        <ele>1485.4000244141</ele>
        <time>2016-09-10T08:49:22.000Z</time>
      </trkpt>
      <trkpt lat="45.48382" lon="5.86306">
        <ele>1478.8000488281</ele>
        <time>2016-09-10T08:49:24.000Z</time>
      </trkpt>
      <trkpt lat="45.48378" lon="5.86313">
        <ele>1474.8000488281</ele>
        <time>2016-09-10T08:49:26.000Z</time>
      </trkpt>
      <trkpt lat="45.48378" lon="5.86313">
        <ele>1474.8000488281</ele>
        <time>2016-09-10T08:49:28.000Z</time>
      </trkpt>
      <trkpt lat="45.48378" lon="5.86313">
        <ele>1474.8000488281</ele>
        <time>2016-09-10T08:49:30.000Z</time>
      </trkpt>
      <trkpt lat="45.48374" lon="5.86319">
        <ele>1470.8000488281</ele>
        <time>2016-09-10T08:49:34.000Z</time>
      </trkpt>
      <trkpt lat="45.48374" lon="5.86319">
        <ele>1470.8000488281</ele>
        <time>2016-09-10T08:49:36.000Z</time>
      </trkpt>
      <trkpt lat="45.48374" lon="5.86319">
        <ele>1470.8000488281</ele>
        <time>2016-09-10T08:49:38.000Z</time>
      </trkpt>
      <trkpt lat="45.48374" lon="5.86319">
        <ele>1470.8000488281</ele>
        <time>2016-09-10T08:49:40.000Z</time>
      </trkpt>
      <trkpt lat="45.48374" lon="5.86319">
        <ele>1470.8000488281</ele>
        <time>2016-09-10T08:49:42.000Z</time>
      </trkpt>
      <trkpt lat="45.48374" lon="5.86319">
        <ele>1470.8000488281</ele>
        <time>2016-09-10T08:49:44.000Z</time>
      </trkpt>
      <trkpt lat="45.48308" lon="5.86329">
        <ele>1450.4000244141</ele>
        <time>2016-09-10T09:00:20.000Z</time>
      </trkpt>
      <trkpt lat="45.48274" lon="5.86332">
        <ele>1434.8000488281</ele>
        <time>2016-09-10T09:00:22.000Z</time>
      </trkpt>
      <trkpt lat="45.48256" lon="5.86333">
        <ele>1432.1999511719</ele>
        <time>2016-09-10T09:00:24.000Z</time>
      </trkpt>
      <trkpt lat="45.48246" lon="5.86334">
        <ele>1433</ele>
        <time>2016-09-10T09:00:26.000Z</time>
      </trkpt>
      <trkpt lat="45.4824" lon="5.86336">
        <ele>1433.1999511719</ele>
        <time>2016-09-10T09:00:28.000Z</time>
      </trkpt>
      <trkpt lat="45.4823" lon="5.8634">
        <ele>1423.5999755859</ele>
        <time>2016-09-10T09:00:32.000Z</time>
      </trkpt>
      <trkpt lat="45.4823" lon="5.8634">
        <ele>1423.5999755859</ele>
        <time>2016-09-10T09:00:34.000Z</time>
      </trkpt>
      <trkpt lat="45.4823" lon="5.8634">
        <ele>1423.5999755859</ele>
        <time>2016-09-10T09:00:36.000Z</time>
      </trkpt>
      <trkpt lat="45.4823" lon="5.8634">
        <ele>1423.5999755859</ele>
        <time>2016-09-10T09:00:38.000Z</time>
      </trkpt>
      <trkpt lat="45.4823" lon="5.8634">
        <ele>1423.5999755859</ele>
        <time>2016-09-10T09:00:44.000Z</time>
      </trkpt>
      <trkpt lat="45.4823" lon="5.8634">
        <ele>1423.5999755859</ele>
        <time>2016-09-10T09:00:46.000Z</time>
      </trkpt>
      <trkpt lat="45.48228" lon="5.8639">
        <ele>1374.8000488281</ele>
        <time>2016-09-10T09:07:54.000Z</time>
      </trkpt>
      <trkpt lat="45.48229" lon="5.86417">
        <ele>1357.5999755859</ele>
        <time>2016-09-10T09:07:56.000Z</time>
      </trkpt>
      <trkpt lat="45.48232" lon="5.86435">
        <ele>1348.4000244141</ele>
        <time>2016-09-10T09:08:04.000Z</time>
      </trkpt>
      <trkpt lat="45.48235" lon="5.86445">
        <ele>1344.5999755859</ele>
        <time>2016-09-10T09:08:06.000Z</time>
      </trkpt>
      <trkpt lat="45.48236" lon="5.86451">
        <ele>1342.8000488281</ele>
        <time>2016-09-10T09:08:08.000Z</time>
      </trkpt>
      <trkpt lat="45.48236" lon="5.86451">
        <ele>1342.8000488281</ele>
        <time>2016-09-10T09:08:16.000Z</time>
      </trkpt>
      <trkpt lat="45.48236" lon="5.86451">
        <ele>1342.8000488281</ele>
        <time>2016-09-10T09:08:18.000Z</time>
      </trkpt>
      <trkpt lat="45.48247" lon="5.86456">
        <ele>1343.8000488281</ele>
        <time>2016-09-10T09:08:50.000Z</time>
      </trkpt>
      <trkpt lat="45.48254" lon="5.86459">
        <ele>1344.8000488281</ele>
        <time>2016-09-10T09:08:52.000Z</time>
      </trkpt>
      <trkpt lat="45.48259" lon="5.8646">
        <ele>1348</ele>
        <time>2016-09-10T09:08:56.000Z</time>
      </trkpt>
      <trkpt lat="45.48265" lon="5.86462">
        <ele>1350.8000488281</ele>
        <time>2016-09-10T09:09:00.000Z</time>
      </trkpt>
      <trkpt lat="45.4827" lon="5.86464">
        <ele>1353.5999755859</ele>
        <time>2016-09-10T09:09:05.000Z</time>
      </trkpt>
      <trkpt lat="45.48276" lon="5.86467">
        <ele>1355.4000244141</ele>
        <time>2016-09-10T09:09:09.000Z</time>
      </trkpt>
      <trkpt lat="45.4828" lon="5.86471">
        <ele>1353</ele>
        <time>2016-09-10T09:09:13.000Z</time>
      </trkpt>
      <trkpt lat="45.48282" lon="5.86477">
        <ele>1348.5999755859</ele>
        <time>2016-09-10T09:09:17.000Z</time>
      </trkpt>
      <trkpt lat="45.48284" lon="5.86484">
        <ele>1344.4000244141</ele>
        <time>2016-09-10T09:09:21.000Z</time>
      </trkpt>
      <trkpt lat="45.48284" lon="5.86491">
        <ele>1341.8000488281</ele>
        <time>2016-09-10T09:09:27.000Z</time>
      </trkpt>
      <trkpt lat="45.4828" lon="5.86495">
        <ele>1340.1999511719</ele>
        <time>2016-09-10T09:09:33.000Z</time>
      </trkpt>
      <trkpt lat="45.48275" lon="5.86497">
        <ele>1338.5999755859</ele>
        <time>2016-09-10T09:09:39.000Z</time>
      </trkpt>
      <trkpt lat="45.48275" lon="5.86497">
        <ele>1338.5999755859</ele>
        <time>2016-09-10T09:09:43.000Z</time>
      </trkpt>
      <trkpt lat="45.48275" lon="5.86497">
        <ele>1338.5999755859</ele>
        <time>2016-09-10T09:09:45.000Z</time>
      </trkpt>
      <trkpt lat="45.48275" lon="5.86497">
        <ele>1338.5999755859</ele>
        <time>2016-09-10T09:09:47.000Z</time>
      </trkpt>
      <trkpt lat="45.48275" lon="5.86497">
        <ele>1338.5999755859</ele>
        <time>2016-09-10T09:09:49.000Z</time>
      </trkpt>
      <trkpt lat="45.48275" lon="5.86497">
        <ele>1338.5999755859</ele>
        <time>2016-09-10T09:09:57.000Z</time>
      </trkpt>
      <trkpt lat="45.48275" lon="5.86497">
        <ele>1338.5999755859</ele>
        <time>2016-09-10T09:09:59.000Z</time>
      </trkpt>
      <trkpt lat="45.48275" lon="5.86497">
        <ele>1338.5999755859</ele>
        <time>2016-09-10T09:10:01.000Z</time>
      </trkpt>
      <trkpt lat="45.48272" lon="5.86519">
        <ele>1332.5999755859</ele>
        <time>2016-09-10T09:10:09.000Z</time>
      </trkpt>
      <trkpt lat="45.4827" lon="5.86533">
        <ele>1330.4000244141</ele>
        <time>2016-09-10T09:10:11.000Z</time>
      </trkpt>
      <trkpt lat="45.4827" lon="5.86542">
        <ele>1328.8000488281</ele>
        <time>2016-09-10T09:10:13.000Z</time>
      </trkpt>
      <trkpt lat="45.48272" lon="5.86548">
        <ele>1328</ele>
        <time>2016-09-10T09:10:17.000Z</time>
      </trkpt>
      <trkpt lat="45.48276" lon="5.86554">
        <ele>1327.8000488281</ele>
        <time>2016-09-10T09:10:21.000Z</time>
      </trkpt>
      <trkpt lat="45.4828" lon="5.8656">
        <ele>1327.1999511719</ele>
        <time>2016-09-10T09:10:25.000Z</time>
      </trkpt>
      <trkpt lat="45.48283" lon="5.86565">
        <ele>1326.5999755859</ele>
        <time>2016-09-10T09:10:29.000Z</time>
      </trkpt>
      <trkpt lat="45.48286" lon="5.8657">
        <ele>1326.1999511719</ele>
        <time>2016-09-10T09:10:33.000Z</time>
      </trkpt>
      <trkpt lat="45.48287" lon="5.86577">
        <ele>1325.4000244141</ele>
        <time>2016-09-10T09:10:39.000Z</time>
      </trkpt>
      <trkpt lat="45.48285" lon="5.86584">
        <ele>1324.1999511719</ele>
        <time>2016-09-10T09:10:51.000Z</time>
      </trkpt>
      <trkpt lat="45.48283" lon="5.86591">
        <ele>1323</ele>
        <time>2016-09-10T09:10:55.000Z</time>
      </trkpt>
      <trkpt lat="45.48283" lon="5.86598">
        <ele>1322.4000244141</ele>
        <time>2016-09-10T09:10:59.000Z</time>
      </trkpt>
      <trkpt lat="45.48282" lon="5.86605">
        <ele>1322.4000244141</ele>
        <time>2016-09-10T09:11:03.000Z</time>
      </trkpt>
      <trkpt lat="45.4828" lon="5.86612">
        <ele>1322.1999511719</ele>
        <time>2016-09-10T09:11:07.000Z</time>
      </trkpt>
      <trkpt lat="45.48278" lon="5.86619">
        <ele>1322</ele>
        <time>2016-09-10T09:11:11.000Z</time>
      </trkpt>
      <trkpt lat="45.48276" lon="5.86626">
        <ele>1322</ele>
        <time>2016-09-10T09:11:15.000Z</time>
      </trkpt>
      <trkpt lat="45.48272" lon="5.86631">
        <ele>1322</ele>
        <time>2016-09-10T09:11:19.000Z</time>
      </trkpt>
      <trkpt lat="45.48267" lon="5.86632">
        <ele>1321.5999755859</ele>
        <time>2016-09-10T09:11:23.000Z</time>
      </trkpt>
      <trkpt lat="45.48267" lon="5.86632">
        <ele>1321.5999755859</ele>
        <time>2016-09-10T09:11:29.000Z</time>
      </trkpt>
      <trkpt lat="45.48267" lon="5.86632">
        <ele>1321.5999755859</ele>
        <time>2016-09-10T09:11:31.000Z</time>
      </trkpt>
      <trkpt lat="45.48267" lon="5.86632">
        <ele>1321.5999755859</ele>
        <time>2016-09-10T09:11:33.000Z</time>
      </trkpt>
      <trkpt lat="45.48256" lon="5.86627">
        <ele>1320.5999755859</ele>
        <time>2016-09-10T09:11:39.000Z</time>
      </trkpt>
      <trkpt lat="45.48249" lon="5.86623">
        <ele>1320.1999511719</ele>
        <time>2016-09-10T09:11:41.000Z</time>
      </trkpt>
      <trkpt lat="45.48244" lon="5.86621">
        <ele>1319.8000488281</ele>
        <time>2016-09-10T09:11:43.000Z</time>
      </trkpt>
      <trkpt lat="45.48244" lon="5.86621">
        <ele>1319.8000488281</ele>
        <time>2016-09-10T09:11:45.000Z</time>
      </trkpt>
      <trkpt lat="45.48244" lon="5.86621">
        <ele>1319.8000488281</ele>
        <time>2016-09-10T09:11:47.000Z</time>
      </trkpt>
      <trkpt lat="45.48244" lon="5.86621">
        <ele>1319.8000488281</ele>
        <time>2016-09-10T09:11:49.000Z</time>
      </trkpt>
      <trkpt lat="45.48244" lon="5.86621">
        <ele>1319.8000488281</ele>
        <time>2016-09-10T09:11:51.000Z</time>
      </trkpt>
      <trkpt lat="45.48233" lon="5.86611">
        <ele>1318.5999755859</ele>
        <time>2016-09-10T09:12:01.000Z</time>
      </trkpt>
      <trkpt lat="45.48226" lon="5.86605">
        <ele>1318</ele>
        <time>2016-09-10T09:12:03.000Z</time>
      </trkpt>
      <trkpt lat="45.48222" lon="5.86602">
        <ele>1317.5999755859</ele>
        <time>2016-09-10T09:12:05.000Z</time>
      </trkpt>
      <trkpt lat="45.48217" lon="5.86598">
        <ele>1317.1999511719</ele>
        <time>2016-09-10T09:12:09.000Z</time>
      </trkpt>
      <trkpt lat="45.48212" lon="5.86594">
        <ele>1316.5999755859</ele>
        <time>2016-09-10T09:12:13.000Z</time>
      </trkpt>
      <trkpt lat="45.48206" lon="5.8659">
        <ele>1316.5999755859</ele>
        <time>2016-09-10T09:12:17.000Z</time>
      </trkpt>
      <trkpt lat="45.48202" lon="5.86587">
        <ele>1316.5999755859</ele>
        <time>2016-09-10T09:12:21.000Z</time>
      </trkpt>
      <trkpt lat="45.48197" lon="5.86583">
        <ele>1316.4000244141</ele>
        <time>2016-09-10T09:12:25.000Z</time>
      </trkpt>
      <trkpt lat="45.48193" lon="5.8658">
        <ele>1316.4000244141</ele>
        <time>2016-09-10T09:12:29.000Z</time>
      </trkpt>
      <trkpt lat="45.48188" lon="5.86576">
        <ele>1316</ele>
        <time>2016-09-10T09:12:33.000Z</time>
      </trkpt>
      <trkpt lat="45.48184" lon="5.86572">
        <ele>1315.8000488281</ele>
        <time>2016-09-10T09:12:37.000Z</time>
      </trkpt>
      <trkpt lat="45.4818" lon="5.86569">
        <ele>1315.4000244141</ele>
        <time>2016-09-10T09:12:41.000Z</time>
      </trkpt>
      <trkpt lat="45.4818" lon="5.86569">
        <ele>1315.4000244141</ele>
        <time>2016-09-10T09:12:45.000Z</time>
      </trkpt>
      <trkpt lat="45.4818" lon="5.86569">
        <ele>1315.4000244141</ele>
        <time>2016-09-10T09:12:47.000Z</time>
      </trkpt>
      <trkpt lat="45.4818" lon="5.86569">
        <ele>1315.4000244141</ele>
        <time>2016-09-10T09:12:49.000Z</time>
      </trkpt>
      <trkpt lat="45.4818" lon="5.86569">
        <ele>1315.4000244141</ele>
        <time>2016-09-10T09:12:51.000Z</time>
      </trkpt>
      <trkpt lat="45.4818" lon="5.86569">
        <ele>1315.4000244141</ele>
        <time>2016-09-10T09:12:53.000Z</time>
      </trkpt>
      <trkpt lat="45.4818" lon="5.86569">
        <ele>1315.4000244141</ele>
        <time>2016-09-10T09:12:55.000Z</time>
      </trkpt>
      <trkpt lat="45.48166" lon="5.86561">
        <ele>1313.8000488281</ele>
        <time>2016-09-10T09:13:01.000Z</time>
      </trkpt>
      <trkpt lat="45.48157" lon="5.86557">
        <ele>1312.1999511719</ele>
        <time>2016-09-10T09:13:03.000Z</time>
      </trkpt>
      <trkpt lat="45.48152" lon="5.86555">
        <ele>1311</ele>
        <time>2016-09-10T09:13:05.000Z</time>
      </trkpt>
      <trkpt lat="45.48148" lon="5.86552">
        <ele>1310.1999511719</ele>
        <time>2016-09-10T09:13:09.000Z</time>
      </trkpt>
      <trkpt lat="45.48142" lon="5.86549">
        <ele>1309.1999511719</ele>
        <time>2016-09-10T09:13:15.000Z</time>
      </trkpt>
      <trkpt lat="45.48137" lon="5.86547">
        <ele>1308</ele>
        <time>2016-09-10T09:13:19.000Z</time>
      </trkpt>
      <trkpt lat="45.48131" lon="5.86545">
        <ele>1307.1999511719</ele>
        <time>2016-09-10T09:13:23.000Z</time>
      </trkpt>
      <trkpt lat="45.48127" lon="5.8654">
        <ele>1306.4000244141</ele>
        <time>2016-09-10T09:13:27.000Z</time>
      </trkpt>
      <trkpt lat="45.48127" lon="5.8654">
        <ele>1306.4000244141</ele>
        <time>2016-09-10T09:13:33.000Z</time>
      </trkpt>
      <trkpt lat="45.48127" lon="5.8654">
        <ele>1306.4000244141</ele>
        <time>2016-09-10T09:13:35.000Z</time>
      </trkpt>
      <trkpt lat="45.48116" lon="5.86529">
        <ele>1304.8000488281</ele>
        <time>2016-09-10T09:13:47.000Z</time>
      </trkpt>
      <trkpt lat="45.48107" lon="5.86515">
        <ele>1303.8000488281</ele>
        <time>2016-09-10T09:13:57.000Z</time>
      </trkpt>
      <trkpt lat="45.48101" lon="5.86506">
        <ele>1303.1999511719</ele>
        <time>2016-09-10T09:13:59.000Z</time>
      </trkpt>
      <trkpt lat="45.48097" lon="5.86501">
        <ele>1302.8000488281</ele>
        <time>2016-09-10T09:14:01.000Z</time>
      </trkpt>
      <trkpt lat="45.48093" lon="5.86498">
        <ele>1302.1999511719</ele>
        <time>2016-09-10T09:14:05.000Z</time>
      </trkpt>
      <trkpt lat="45.48088" lon="5.86495">
        <ele>1301.8000488281</ele>
        <time>2016-09-10T09:14:11.000Z</time>
      </trkpt>
      <trkpt lat="45.48082" lon="5.86492">
        <ele>1301.4000244141</ele>
        <time>2016-09-10T09:14:15.000Z</time>
      </trkpt>
      <trkpt lat="45.48082" lon="5.86492">
        <ele>1301.4000244141</ele>
        <time>2016-09-10T09:14:19.000Z</time>
      </trkpt>
      <trkpt lat="45.48082" lon="5.86492">
        <ele>1301.4000244141</ele>
        <time>2016-09-10T09:14:21.000Z</time>
      </trkpt>
      <trkpt lat="45.48072" lon="5.86487">
        <ele>1300.8000488281</ele>
        <time>2016-09-10T09:14:27.000Z</time>
      </trkpt>
      <trkpt lat="45.48064" lon="5.86485">
        <ele>1300.4000244141</ele>
        <time>2016-09-10T09:14:29.000Z</time>
      </trkpt>
      <trkpt lat="45.48058" lon="5.86482">
        <ele>1300.1999511719</ele>
        <time>2016-09-10T09:14:31.000Z</time>
      </trkpt>
      <trkpt lat="45.48054" lon="5.86481">
        <ele>1300</ele>
        <time>2016-09-10T09:14:33.000Z</time>
      </trkpt>
      <trkpt lat="45.48054" lon="5.86481">
        <ele>1300</ele>
        <time>2016-09-10T09:14:35.000Z</time>
      </trkpt>
      <trkpt lat="45.48054" lon="5.86481">
        <ele>1300</ele>
        <time>2016-09-10T09:14:37.000Z</time>
      </trkpt>
      <trkpt lat="45.48054" lon="5.86481">
        <ele>1300</ele>
        <time>2016-09-10T09:14:45.000Z</time>
      </trkpt>
      <trkpt lat="45.48054" lon="5.86481">
        <ele>1300</ele>
        <time>2016-09-10T09:14:47.000Z</time>
      </trkpt>
      <trkpt lat="45.48054" lon="5.86481">
        <ele>1300</ele>
        <time>2016-09-10T09:14:49.000Z</time>
      </trkpt>
      <trkpt lat="45.48054" lon="5.86481">
        <ele>1300</ele>
        <time>2016-09-10T09:14:51.000Z</time>
      </trkpt>
      <trkpt lat="45.48034" lon="5.86473">
        <ele>1299.4000244141</ele>
        <time>2016-09-10T09:15:01.000Z</time>
      </trkpt>
      <trkpt lat="45.48022" lon="5.86469">
        <ele>1298.4000244141</ele>
        <time>2016-09-10T09:15:03.000Z</time>
      </trkpt>
      <trkpt lat="45.48016" lon="5.86468">
        <ele>1297</ele>
        <time>2016-09-10T09:15:05.000Z</time>
      </trkpt>
      <trkpt lat="45.4801" lon="5.86466">
        <ele>1296.1999511719</ele>
        <time>2016-09-10T09:15:09.000Z</time>
      </trkpt>
      <trkpt lat="45.48005" lon="5.86466">
        <ele>1295.4000244141</ele>
        <time>2016-09-10T09:15:13.000Z</time>
      </trkpt>
      <trkpt lat="45.48005" lon="5.86466">
        <ele>1295.4000244141</ele>
        <time>2016-09-10T09:15:17.000Z</time>
      </trkpt>
      <trkpt lat="45.48005" lon="5.86466">
        <ele>1295.4000244141</ele>
        <time>2016-09-10T09:15:19.000Z</time>
      </trkpt>
      <trkpt lat="45.47992" lon="5.86463">
        <ele>1293.5999755859</ele>
        <time>2016-09-10T09:15:41.000Z</time>
      </trkpt>
      <trkpt lat="45.47984" lon="5.8646">
        <ele>1292.5999755859</ele>
        <time>2016-09-10T09:15:43.000Z</time>
      </trkpt>
      <trkpt lat="45.47979" lon="5.86457">
        <ele>1292</ele>
        <time>2016-09-10T09:15:45.000Z</time>
      </trkpt>
      <trkpt lat="45.47975" lon="5.86452">
        <ele>1291.5999755859</ele>
        <time>2016-09-10T09:15:49.000Z</time>
      </trkpt>
      <trkpt lat="45.4797" lon="5.86447">
        <ele>1291.5999755859</ele>
        <time>2016-09-10T09:15:53.000Z</time>
      </trkpt>
      <trkpt lat="45.47966" lon="5.86443">
        <ele>1291.4000244141</ele>
        <time>2016-09-10T09:15:55.000Z</time>
      </trkpt>
      <trkpt lat="45.47962" lon="5.86437">
        <ele>1291.5999755859</ele>
        <time>2016-09-10T09:15:59.000Z</time>
      </trkpt>
      <trkpt lat="45.47958" lon="5.86432">
        <ele>1291.5999755859</ele>
        <time>2016-09-10T09:16:01.000Z</time>
      </trkpt>
      <trkpt lat="45.47954" lon="5.86427">
        <ele>1291.4000244141</ele>
        <time>2016-09-10T09:16:05.000Z</time>
      </trkpt>
      <trkpt lat="45.47949" lon="5.86424">
        <ele>1290.8000488281</ele>
        <time>2016-09-10T09:16:09.000Z</time>
      </trkpt>
      <trkpt lat="45.47943" lon="5.86421">
        <ele>1290.1999511719</ele>
        <time>2016-09-10T09:16:13.000Z</time>
      </trkpt>
      <trkpt lat="45.47943" lon="5.86421">
        <ele>1290.1999511719</ele>
        <time>2016-09-10T09:16:17.000Z</time>
      </trkpt>
      <trkpt lat="45.47943" lon="5.86421">
        <ele>1290.1999511719</ele>
        <time>2016-09-10T09:16:19.000Z</time>
      </trkpt>
      <trkpt lat="45.47943" lon="5.86421">
        <ele>1290.1999511719</ele>
        <time>2016-09-10T09:16:21.000Z</time>
      </trkpt>
      <trkpt lat="45.47937" lon="5.86405">
        <ele>1290.4000244141</ele>
        <time>2016-09-10T09:16:31.000Z</time>
      </trkpt>
      <trkpt lat="45.47934" lon="5.86396">
        <ele>1290.8000488281</ele>
        <time>2016-09-10T09:16:33.000Z</time>
      </trkpt>
      <trkpt lat="45.47931" lon="5.86389">
        <ele>1291.4000244141</ele>
        <time>2016-09-10T09:16:35.000Z</time>
      </trkpt>
      <trkpt lat="45.47927" lon="5.86384">
        <ele>1291.5999755859</ele>
        <time>2016-09-10T09:16:39.000Z</time>
      </trkpt>
      <trkpt lat="45.47923" lon="5.8638">
        <ele>1291.8000488281</ele>
        <time>2016-09-10T09:16:43.000Z</time>
      </trkpt>
      <trkpt lat="45.47918" lon="5.86375">
        <ele>1291.5999755859</ele>
        <time>2016-09-10T09:16:47.000Z</time>
      </trkpt>
      <trkpt lat="45.47914" lon="5.86372">
        <ele>1291.1999511719</ele>
        <time>2016-09-10T09:16:49.000Z</time>
      </trkpt>
      <trkpt lat="45.47907" lon="5.8637">
        <ele>1290.1999511719</ele>
        <time>2016-09-10T09:16:53.000Z</time>
      </trkpt>
      <trkpt lat="45.47902" lon="5.86369">
        <ele>1289.5999755859</ele>
        <time>2016-09-10T09:16:55.000Z</time>
      </trkpt>
      <trkpt lat="45.47897" lon="5.86366">
        <ele>1289.5999755859</ele>
        <time>2016-09-10T09:16:59.000Z</time>
      </trkpt>
      <trkpt lat="45.47893" lon="5.86361">
        <ele>1291</ele>
        <time>2016-09-10T09:17:03.000Z</time>
      </trkpt>
      <trkpt lat="45.47888" lon="5.86355">
        <ele>1292.4000244141</ele>
        <time>2016-09-10T09:17:07.000Z</time>
      </trkpt>
      <trkpt lat="45.47883" lon="5.86351">
        <ele>1293.1999511719</ele>
        <time>2016-09-10T09:17:11.000Z</time>
      </trkpt>
      <trkpt lat="45.47877" lon="5.86349">
        <ele>1292.8000488281</ele>
        <time>2016-09-10T09:17:15.000Z</time>
      </trkpt>
      <trkpt lat="45.47877" lon="5.86349">
        <ele>1292.8000488281</ele>
        <time>2016-09-10T09:17:19.000Z</time>
      </trkpt>
      <trkpt lat="45.47877" lon="5.86349">
        <ele>1292.8000488281</ele>
        <time>2016-09-10T09:17:21.000Z</time>
      </trkpt>
      <trkpt lat="45.47877" lon="5.86349">
        <ele>1292.8000488281</ele>
        <time>2016-09-10T09:17:23.000Z</time>
      </trkpt>
      <trkpt lat="45.47866" lon="5.86344">
        <ele>1292.5999755859</ele>
        <time>2016-09-10T09:17:29.000Z</time>
      </trkpt>
      <trkpt lat="45.47859" lon="5.86342">
        <ele>1292.1999511719</ele>
        <time>2016-09-10T09:17:31.000Z</time>
      </trkpt>
      <trkpt lat="45.47854" lon="5.86339">
        <ele>1291.5999755859</ele>
        <time>2016-09-10T09:17:33.000Z</time>
      </trkpt>
      <trkpt lat="45.47854" lon="5.86339">
        <ele>1291.5999755859</ele>
        <time>2016-09-10T09:17:35.000Z</time>
      </trkpt>
      <trkpt lat="45.47848" lon="5.86335">
        <ele>1291.5999755859</ele>
        <time>2016-09-10T09:17:39.000Z</time>
      </trkpt>
      <trkpt lat="45.47844" lon="5.86332">
        <ele>1291.5999755859</ele>
        <time>2016-09-10T09:17:43.000Z</time>
      </trkpt>
      <trkpt lat="45.47839" lon="5.86329">
        <ele>1291.4000244141</ele>
        <time>2016-09-10T09:17:47.000Z</time>
      </trkpt>
      <trkpt lat="45.47833" lon="5.86327">
        <ele>1290.5999755859</ele>
        <time>2016-09-10T09:17:51.000Z</time>
      </trkpt>
      <trkpt lat="45.47829" lon="5.86326">
        <ele>1290.1999511719</ele>
        <time>2016-09-10T09:17:53.000Z</time>
      </trkpt>
      <trkpt lat="45.47824" lon="5.86324">
        <ele>1290.5999755859</ele>
        <time>2016-09-10T09:17:57.000Z</time>
      </trkpt>
      <trkpt lat="45.47819" lon="5.86321">
        <ele>1290.8000488281</ele>
        <time>2016-09-10T09:18:01.000Z</time>
      </trkpt>
      <trkpt lat="45.47813" lon="5.86321">
        <ele>1290.1999511719</ele>
        <time>2016-09-10T09:18:05.000Z</time>
      </trkpt>
      <trkpt lat="45.47808" lon="5.8632">
        <ele>1289.5999755859</ele>
        <time>2016-09-10T09:18:07.000Z</time>
      </trkpt>
      <trkpt lat="45.478" lon="5.86318">
        <ele>1288.5999755859</ele>
        <time>2016-09-10T09:18:11.000Z</time>
      </trkpt>
      <trkpt lat="45.47794" lon="5.86317">
        <ele>1287.8000488281</ele>
        <time>2016-09-10T09:18:13.000Z</time>
      </trkpt>
      <trkpt lat="45.47794" lon="5.86317">
        <ele>1287.8000488281</ele>
        <time>2016-09-10T09:18:15.000Z</time>
      </trkpt>
      <trkpt lat="45.47794" lon="5.86317">
        <ele>1287.8000488281</ele>
        <time>2016-09-10T09:18:17.000Z</time>
      </trkpt>
      <trkpt lat="45.47794" lon="5.86317">
        <ele>1287.8000488281</ele>
        <time>2016-09-10T09:18:21.000Z</time>
      </trkpt>
      <trkpt lat="45.47782" lon="5.86319">
        <ele>1284.1999511719</ele>
        <time>2016-09-10T09:18:29.000Z</time>
      </trkpt>
      <trkpt lat="45.47773" lon="5.86321">
        <ele>1282.5999755859</ele>
        <time>2016-09-10T09:18:31.000Z</time>
      </trkpt>
      <trkpt lat="45.47766" lon="5.86323">
        <ele>1281</ele>
        <time>2016-09-10T09:18:33.000Z</time>
      </trkpt>
      <trkpt lat="45.47761" lon="5.86326">
        <ele>1279.4000244141</ele>
        <time>2016-09-10T09:18:35.000Z</time>
      </trkpt>
      <trkpt lat="45.47757" lon="5.86329">
        <ele>1278</ele>
        <time>2016-09-10T09:18:37.000Z</time>
      </trkpt>
      <trkpt lat="45.47749" lon="5.86335">
        <ele>1275.4000244141</ele>
        <time>2016-09-10T09:18:39.000Z</time>
      </trkpt>
      <trkpt lat="45.47749" lon="5.86335">
        <ele>1275.4000244141</ele>
        <time>2016-09-10T09:18:43.000Z</time>
      </trkpt>
      <trkpt lat="45.47749" lon="5.86335">
        <ele>1275.4000244141</ele>
        <time>2016-09-10T09:18:45.000Z</time>
      </trkpt>
      <trkpt lat="45.47749" lon="5.86335">
        <ele>1275.4000244141</ele>
        <time>2016-09-10T09:18:47.000Z</time>
      </trkpt>
      <trkpt lat="45.47749" lon="5.86335">
        <ele>1275.4000244141</ele>
        <time>2016-09-10T09:18:49.000Z</time>
      </trkpt>
      <trkpt lat="45.4772" lon="5.86348">
        <ele>1269.5999755859</ele>
        <time>2016-09-10T09:18:59.000Z</time>
      </trkpt>
      <trkpt lat="45.4772" lon="5.86348">
        <ele>1269.5999755859</ele>
        <time>2016-09-10T09:19:09.000Z</time>
      </trkpt>
      <trkpt lat="45.4772" lon="5.86348">
        <ele>1269.5999755859</ele>
        <time>2016-09-10T09:19:11.000Z</time>
      </trkpt>
      <trkpt lat="45.4772" lon="5.86348">
        <ele>1269.5999755859</ele>
        <time>2016-09-10T09:19:13.000Z</time>
      </trkpt>
      <trkpt lat="45.4772" lon="5.86348">
        <ele>1269.5999755859</ele>
        <time>2016-09-10T09:19:15.000Z</time>
      </trkpt>
      <trkpt lat="45.47689" lon="5.8634">
        <ele>1269.4000244141</ele>
        <time>2016-09-10T09:19:25.000Z</time>
      </trkpt>
      <trkpt lat="45.47679" lon="5.8634">
        <ele>1268.8000488281</ele>
        <time>2016-09-10T09:19:33.000Z</time>
      </trkpt>
      <trkpt lat="45.4767" lon="5.86333">
        <ele>1269.8000488281</ele>
        <time>2016-09-10T09:19:41.000Z</time>
      </trkpt>
      <trkpt lat="45.47665" lon="5.86329">
        <ele>1270.1999511719</ele>
        <time>2016-09-10T09:19:49.000Z</time>
      </trkpt>
      <trkpt lat="45.47659" lon="5.86327">
        <ele>1268.5999755859</ele>
        <time>2016-09-10T09:19:53.000Z</time>
      </trkpt>
      <trkpt lat="45.47654" lon="5.86326">
        <ele>1267.1999511719</ele>
        <time>2016-09-10T09:19:55.000Z</time>
      </trkpt>
      <trkpt lat="45.47654" lon="5.86326">
        <ele>1267.1999511719</ele>
        <time>2016-09-10T09:19:59.000Z</time>
      </trkpt>
      <trkpt lat="45.47654" lon="5.86326">
        <ele>1267.1999511719</ele>
        <time>2016-09-10T09:20:01.000Z</time>
      </trkpt>
      <trkpt lat="45.47644" lon="5.86325">
        <ele>1264.8000488281</ele>
        <time>2016-09-10T09:20:07.000Z</time>
      </trkpt>
      <trkpt lat="45.47638" lon="5.86324">
        <ele>1263.5999755859</ele>
        <time>2016-09-10T09:20:09.000Z</time>
      </trkpt>
      <trkpt lat="45.47633" lon="5.86323">
        <ele>1261.8000488281</ele>
        <time>2016-09-10T09:20:13.000Z</time>
      </trkpt>
      <trkpt lat="45.47629" lon="5.8632">
        <ele>1260.4000244141</ele>
        <time>2016-09-10T09:20:17.000Z</time>
      </trkpt>
      <trkpt lat="45.47625" lon="5.86317">
        <ele>1259.1999511719</ele>
        <time>2016-09-10T09:20:21.000Z</time>
      </trkpt>
      <trkpt lat="45.47625" lon="5.86317">
        <ele>1259.1999511719</ele>
        <time>2016-09-10T09:20:23.000Z</time>
      </trkpt>
      <trkpt lat="45.47625" lon="5.86317">
        <ele>1259.1999511719</ele>
        <time>2016-09-10T09:20:25.000Z</time>
      </trkpt>
      <trkpt lat="45.47619" lon="5.86313">
        <ele>1258.1999511719</ele>
        <time>2016-09-10T09:20:27.000Z</time>
      </trkpt>
      <trkpt lat="45.47615" lon="5.86309">
        <ele>1257.5999755859</ele>
        <time>2016-09-10T09:20:31.000Z</time>
      </trkpt>
      <trkpt lat="45.47615" lon="5.86309">
        <ele>1257.5999755859</ele>
        <time>2016-09-10T09:20:33.000Z</time>
      </trkpt>
      <trkpt lat="45.47615" lon="5.86309">
        <ele>1257.5999755859</ele>
        <time>2016-09-10T09:20:35.000Z</time>
      </trkpt>
      <trkpt lat="45.47615" lon="5.86309">
        <ele>1257.5999755859</ele>
        <time>2016-09-10T09:20:37.000Z</time>
      </trkpt>
      <trkpt lat="45.47606" lon="5.86301">
        <ele>1256.8000488281</ele>
        <time>2016-09-10T09:20:57.000Z</time>
      </trkpt>
      <trkpt lat="45.47599" lon="5.86296">
        <ele>1256.4000244141</ele>
        <time>2016-09-10T09:20:59.000Z</time>
      </trkpt>
      <trkpt lat="45.47594" lon="5.86292">
        <ele>1256.1999511719</ele>
        <time>2016-09-10T09:21:01.000Z</time>
      </trkpt>
      <trkpt lat="45.47589" lon="5.86287">
        <ele>1256</ele>
        <time>2016-09-10T09:21:05.000Z</time>
      </trkpt>
      <trkpt lat="45.47584" lon="5.86284">
        <ele>1255.5999755859</ele>
        <time>2016-09-10T09:21:09.000Z</time>
      </trkpt>
      <trkpt lat="45.47579" lon="5.86281">
        <ele>1256</ele>
        <time>2016-09-10T09:21:13.000Z</time>
      </trkpt>
      <trkpt lat="45.47574" lon="5.86279">
        <ele>1256.5999755859</ele>
        <time>2016-09-10T09:21:17.000Z</time>
      </trkpt>
      <trkpt lat="45.47569" lon="5.86278">
        <ele>1256.5999755859</ele>
        <time>2016-09-10T09:21:21.000Z</time>
      </trkpt>
      <trkpt lat="45.47564" lon="5.86276">
        <ele>1256.5999755859</ele>
        <time>2016-09-10T09:21:25.000Z</time>
      </trkpt>
      <trkpt lat="45.47564" lon="5.86276">
        <ele>1256.5999755859</ele>
        <time>2016-09-10T09:21:29.000Z</time>
      </trkpt>
      <trkpt lat="45.47564" lon="5.86276">
        <ele>1256.5999755859</ele>
        <time>2016-09-10T09:21:31.000Z</time>
      </trkpt>
      <trkpt lat="45.47564" lon="5.86276">
        <ele>1256.5999755859</ele>
        <time>2016-09-10T09:21:33.000Z</time>
      </trkpt>
      <trkpt lat="45.47553" lon="5.86276">
        <ele>1255.5999755859</ele>
        <time>2016-09-10T09:21:39.000Z</time>
      </trkpt>
      <trkpt lat="45.47547" lon="5.86276">
        <ele>1255</ele>
        <time>2016-09-10T09:21:41.000Z</time>
      </trkpt>
      <trkpt lat="45.47547" lon="5.86276">
        <ele>1255</ele>
        <time>2016-09-10T09:21:43.000Z</time>
      </trkpt>
      <trkpt lat="45.47547" lon="5.86276">
        <ele>1255</ele>
        <time>2016-09-10T09:21:45.000Z</time>
      </trkpt>
      <trkpt lat="45.47538" lon="5.86276">
        <ele>1254.1999511719</ele>
        <time>2016-09-10T09:21:51.000Z</time>
      </trkpt>
      <trkpt lat="45.47532" lon="5.86276">
        <ele>1254</ele>
        <time>2016-09-10T09:21:53.000Z</time>
      </trkpt>
      <trkpt lat="45.47526" lon="5.86276">
        <ele>1253.8000488281</ele>
        <time>2016-09-10T09:21:57.000Z</time>
      </trkpt>
      <trkpt lat="45.47521" lon="5.86276">
        <ele>1253.5999755859</ele>
        <time>2016-09-10T09:21:59.000Z</time>
      </trkpt>
      <trkpt lat="45.47515" lon="5.86277">
        <ele>1253.1999511719</ele>
        <time>2016-09-10T09:22:03.000Z</time>
      </trkpt>
      <trkpt lat="45.4751" lon="5.86277">
        <ele>1253.1999511719</ele>
        <time>2016-09-10T09:22:07.000Z</time>
      </trkpt>
      <trkpt lat="45.47505" lon="5.86278">
        <ele>1253.4000244141</ele>
        <time>2016-09-10T09:22:09.000Z</time>
      </trkpt>
      <trkpt lat="45.475" lon="5.86278">
        <ele>1253.5999755859</ele>
        <time>2016-09-10T09:22:13.000Z</time>
      </trkpt>
      <trkpt lat="45.47494" lon="5.86277">
        <ele>1253.8000488281</ele>
        <time>2016-09-10T09:22:17.000Z</time>
      </trkpt>
      <trkpt lat="45.47488" lon="5.86276">
        <ele>1253.8000488281</ele>
        <time>2016-09-10T09:22:21.000Z</time>
      </trkpt>
      <trkpt lat="45.47488" lon="5.86276">
        <ele>1253.8000488281</ele>
        <time>2016-09-10T09:22:25.000Z</time>
      </trkpt>
      <trkpt lat="45.47488" lon="5.86276">
        <ele>1253.8000488281</ele>
        <time>2016-09-10T09:22:27.000Z</time>
      </trkpt>
      <trkpt lat="45.47488" lon="5.86276">
        <ele>1253.8000488281</ele>
        <time>2016-09-10T09:22:29.000Z</time>
      </trkpt>
      <trkpt lat="45.47488" lon="5.86276">
        <ele>1253.8000488281</ele>
        <time>2016-09-10T09:22:31.000Z</time>
      </trkpt>
      <trkpt lat="45.47475" lon="5.86274">
        <ele>1253</ele>
        <time>2016-09-10T09:22:37.000Z</time>
      </trkpt>
      <trkpt lat="45.47467" lon="5.86272">
        <ele>1252.8000488281</ele>
        <time>2016-09-10T09:22:39.000Z</time>
      </trkpt>
      <trkpt lat="45.47467" lon="5.86272">
        <ele>1252.8000488281</ele>
        <time>2016-09-10T09:22:41.000Z</time>
      </trkpt>
      <trkpt lat="45.47467" lon="5.86272">
        <ele>1252.8000488281</ele>
        <time>2016-09-10T09:22:43.000Z</time>
      </trkpt>
      <trkpt lat="45.47467" lon="5.86272">
        <ele>1252.8000488281</ele>
        <time>2016-09-10T09:22:45.000Z</time>
      </trkpt>
      <trkpt lat="45.47458" lon="5.86272">
        <ele>1252.1999511719</ele>
        <time>2016-09-10T09:22:49.000Z</time>
      </trkpt>
      <trkpt lat="45.47452" lon="5.86272">
        <ele>1251.5999755859</ele>
        <time>2016-09-10T09:22:51.000Z</time>
      </trkpt>
      <trkpt lat="45.47447" lon="5.86271">
        <ele>1251.1999511719</ele>
        <time>2016-09-10T09:22:53.000Z</time>
      </trkpt>
      <trkpt lat="45.47442" lon="5.86269">
        <ele>1251.5999755859</ele>
        <time>2016-09-10T09:22:57.000Z</time>
      </trkpt>
      <trkpt lat="45.47442" lon="5.86269">
        <ele>1251.5999755859</ele>
        <time>2016-09-10T09:22:59.000Z</time>
      </trkpt>
      <trkpt lat="45.47435" lon="5.86267">
        <ele>1251.8000488281</ele>
        <time>2016-09-10T09:23:03.000Z</time>
      </trkpt>
      <trkpt lat="45.4743" lon="5.86266">
        <ele>1251.5999755859</ele>
        <time>2016-09-10T09:23:05.000Z</time>
      </trkpt>
      <trkpt lat="45.47424" lon="5.86266">
        <ele>1251</ele>
        <time>2016-09-10T09:23:09.000Z</time>
      </trkpt>
      <trkpt lat="45.47419" lon="5.86266">
        <ele>1251</ele>
        <time>2016-09-10T09:23:13.000Z</time>
      </trkpt>
      <trkpt lat="45.47419" lon="5.86266">
        <ele>1251</ele>
        <time>2016-09-10T09:23:15.000Z</time>
      </trkpt>
      <trkpt lat="45.4741" lon="5.86268">
        <ele>1249.1999511719</ele>
        <time>2016-09-10T09:23:21.000Z</time>
      </trkpt>
      <trkpt lat="45.47404" lon="5.86269">
        <ele>1247.5999755859</ele>
        <time>2016-09-10T09:23:23.000Z</time>
      </trkpt>
      <trkpt lat="45.47399" lon="5.86271">
        <ele>1245.5999755859</ele>
        <time>2016-09-10T09:23:27.000Z</time>
      </trkpt>
      <trkpt lat="45.47399" lon="5.86271">
        <ele>1245.5999755859</ele>
        <time>2016-09-10T09:23:29.000Z</time>
      </trkpt>
      <trkpt lat="45.47389" lon="5.86276">
        <ele>1243</ele>
        <time>2016-09-10T09:23:39.000Z</time>
      </trkpt>
      <trkpt lat="45.47382" lon="5.86279">
        <ele>1241.4000244141</ele>
        <time>2016-09-10T09:23:41.000Z</time>
      </trkpt>
      <trkpt lat="45.47377" lon="5.86281">
        <ele>1240.4000244141</ele>
        <time>2016-09-10T09:23:43.000Z</time>
      </trkpt>
      <trkpt lat="45.47372" lon="5.86282">
        <ele>1239.5999755859</ele>
        <time>2016-09-10T09:23:47.000Z</time>
      </trkpt>
      <trkpt lat="45.47372" lon="5.86282">
        <ele>1239.5999755859</ele>
        <time>2016-09-10T09:23:53.000Z</time>
      </trkpt>
      <trkpt lat="45.47372" lon="5.86282">
        <ele>1239.5999755859</ele>
        <time>2016-09-10T09:23:55.000Z</time>
      </trkpt>
      <trkpt lat="45.47364" lon="5.86283">
        <ele>1238.4000244141</ele>
        <time>2016-09-10T09:24:09.000Z</time>
      </trkpt>
      <trkpt lat="45.47358" lon="5.86284">
        <ele>1237.4000244141</ele>
        <time>2016-09-10T09:24:11.000Z</time>
      </trkpt>
      <trkpt lat="45.47353" lon="5.86284">
        <ele>1237</ele>
        <time>2016-09-10T09:24:15.000Z</time>
      </trkpt>
      <trkpt lat="45.47353" lon="5.86284">
        <ele>1237</ele>
        <time>2016-09-10T09:24:17.000Z</time>
      </trkpt>
      <trkpt lat="45.47353" lon="5.86284">
        <ele>1237</ele>
        <time>2016-09-10T09:24:19.000Z</time>
      </trkpt>
      <trkpt lat="45.47345" lon="5.86281">
        <ele>1236.8000488281</ele>
        <time>2016-09-10T09:24:25.000Z</time>
      </trkpt>
      <trkpt lat="45.4734" lon="5.8628">
        <ele>1236.5999755859</ele>
        <time>2016-09-10T09:24:27.000Z</time>
      </trkpt>
      <trkpt lat="45.47334" lon="5.86279">
        <ele>1236.4000244141</ele>
        <time>2016-09-10T09:24:31.000Z</time>
      </trkpt>
      <trkpt lat="45.47327" lon="5.86277">
        <ele>1235.5999755859</ele>
        <time>2016-09-10T09:24:35.000Z</time>
      </trkpt>
      <trkpt lat="45.47323" lon="5.86276">
        <ele>1235</ele>
        <time>2016-09-10T09:24:37.000Z</time>
      </trkpt>
      <trkpt lat="45.47318" lon="5.86275">
        <ele>1234.1999511719</ele>
        <time>2016-09-10T09:24:41.000Z</time>
      </trkpt>
      <trkpt lat="45.47318" lon="5.86275">
        <ele>1234.1999511719</ele>
        <time>2016-09-10T09:24:45.000Z</time>
      </trkpt>
      <trkpt lat="45.47318" lon="5.86275">
        <ele>1234.1999511719</ele>
        <time>2016-09-10T09:24:47.000Z</time>
      </trkpt>
      <trkpt lat="45.47308" lon="5.86275">
        <ele>1233</ele>
        <time>2016-09-10T09:26:39.000Z</time>
      </trkpt>
      <trkpt lat="45.47302" lon="5.86274">
        <ele>1232</ele>
        <time>2016-09-10T09:26:41.000Z</time>
      </trkpt>
      <trkpt lat="45.47297" lon="5.86273">
        <ele>1231</ele>
        <time>2016-09-10T09:26:45.000Z</time>
      </trkpt>
      <trkpt lat="45.47291" lon="5.86272">
        <ele>1230.1999511719</ele>
        <time>2016-09-10T09:26:49.000Z</time>
      </trkpt>
      <trkpt lat="45.47285" lon="5.8627">
        <ele>1229.4000244141</ele>
        <time>2016-09-10T09:26:53.000Z</time>
      </trkpt>
      <trkpt lat="45.47279" lon="5.86269">
        <ele>1229</ele>
        <time>2016-09-10T09:26:57.000Z</time>
      </trkpt>
      <trkpt lat="45.47274" lon="5.86268">
        <ele>1228.4000244141</ele>
        <time>2016-09-10T09:27:01.000Z</time>
      </trkpt>
      <trkpt lat="45.47269" lon="5.86269">
        <ele>1227.8000488281</ele>
        <time>2016-09-10T09:27:05.000Z</time>
      </trkpt>
      <trkpt lat="45.47263" lon="5.86269">
        <ele>1227.1999511719</ele>
        <time>2016-09-10T09:27:09.000Z</time>
      </trkpt>
      <trkpt lat="45.47258" lon="5.86269">
        <ele>1226.5999755859</ele>
        <time>2016-09-10T09:27:11.000Z</time>
      </trkpt>
      <trkpt lat="45.47253" lon="5.8627">
        <ele>1226</ele>
        <time>2016-09-10T09:27:15.000Z</time>
      </trkpt>
      <trkpt lat="45.47248" lon="5.86271">
        <ele>1225.5999755859</ele>
        <time>2016-09-10T09:27:19.000Z</time>
      </trkpt>
      <trkpt lat="45.47242" lon="5.8627">
        <ele>1225.1999511719</ele>
        <time>2016-09-10T09:27:23.000Z</time>
      </trkpt>
      <trkpt lat="45.47237" lon="5.86269">
        <ele>1224.8000488281</ele>
        <time>2016-09-10T09:27:27.000Z</time>
      </trkpt>
      <trkpt lat="45.47232" lon="5.86265">
        <ele>1224.5999755859</ele>
        <time>2016-09-10T09:27:31.000Z</time>
      </trkpt>
      <trkpt lat="45.47227" lon="5.86262">
        <ele>1224.4000244141</ele>
        <time>2016-09-10T09:27:35.000Z</time>
      </trkpt>
      <trkpt lat="45.47222" lon="5.86259">
        <ele>1224</ele>
        <time>2016-09-10T09:27:39.000Z</time>
      </trkpt>
      <trkpt lat="45.47216" lon="5.86256">
        <ele>1224.8000488281</ele>
        <time>2016-09-10T09:27:43.000Z</time>
      </trkpt>
      <trkpt lat="45.47211" lon="5.86254">
        <ele>1225</ele>
        <time>2016-09-10T09:27:47.000Z</time>
      </trkpt>
      <trkpt lat="45.47205" lon="5.86253">
        <ele>1225.1999511719</ele>
        <time>2016-09-10T09:27:51.000Z</time>
      </trkpt>
      <trkpt lat="45.472" lon="5.8625">
        <ele>1225.8000488281</ele>
        <time>2016-09-10T09:27:55.000Z</time>
      </trkpt>
      <trkpt lat="45.47195" lon="5.86248">
        <ele>1226.1999511719</ele>
        <time>2016-09-10T09:27:57.000Z</time>
      </trkpt>
      <trkpt lat="45.4719" lon="5.86247">
        <ele>1226.4000244141</ele>
        <time>2016-09-10T09:28:01.000Z</time>
      </trkpt>
      <trkpt lat="45.47185" lon="5.86245">
        <ele>1226.5999755859</ele>
        <time>2016-09-10T09:28:05.000Z</time>
      </trkpt>
      <trkpt lat="45.47185" lon="5.86245">
        <ele>1226.5999755859</ele>
        <time>2016-09-10T09:28:09.000Z</time>
      </trkpt>
      <trkpt lat="45.47185" lon="5.86245">
        <ele>1226.5999755859</ele>
        <time>2016-09-10T09:28:11.000Z</time>
      </trkpt>
      <trkpt lat="45.47185" lon="5.86245">
        <ele>1226.5999755859</ele>
        <time>2016-09-10T09:28:13.000Z</time>
      </trkpt>
      <trkpt lat="45.47177" lon="5.86244">
        <ele>1227</ele>
        <time>2016-09-10T09:28:15.000Z</time>
      </trkpt>
      <trkpt lat="45.47171" lon="5.86242">
        <ele>1227.4000244141</ele>
        <time>2016-09-10T09:28:17.000Z</time>
      </trkpt>
      <trkpt lat="45.47166" lon="5.86241">
        <ele>1227.8000488281</ele>
        <time>2016-09-10T09:28:19.000Z</time>
      </trkpt>
      <trkpt lat="45.47161" lon="5.8624">
        <ele>1227.8000488281</ele>
        <time>2016-09-10T09:28:23.000Z</time>
      </trkpt>
      <trkpt lat="45.47156" lon="5.86237">
        <ele>1228</ele>
        <time>2016-09-10T09:28:27.000Z</time>
      </trkpt>
      <trkpt lat="45.47156" lon="5.86237">
        <ele>1228</ele>
        <time>2016-09-10T09:28:29.000Z</time>
      </trkpt>
      <trkpt lat="45.47156" lon="5.86237">
        <ele>1228</ele>
        <time>2016-09-10T09:28:31.000Z</time>
      </trkpt>
      <trkpt lat="45.47156" lon="5.86237">
        <ele>1228</ele>
        <time>2016-09-10T09:28:33.000Z</time>
      </trkpt>
      <trkpt lat="45.47143" lon="5.86236">
        <ele>1227.5999755859</ele>
        <time>2016-09-10T09:28:43.000Z</time>
      </trkpt>
      <trkpt lat="45.47143" lon="5.86236">
        <ele>1227.5999755859</ele>
        <time>2016-09-10T09:28:45.000Z</time>
      </trkpt>
      <trkpt lat="45.47143" lon="5.86236">
        <ele>1227.5999755859</ele>
        <time>2016-09-10T09:28:47.000Z</time>
      </trkpt>
      <trkpt lat="45.47143" lon="5.86236">
        <ele>1227.5999755859</ele>
        <time>2016-09-10T09:28:49.000Z</time>
      </trkpt>
      <trkpt lat="45.47143" lon="5.86236">
        <ele>1227.5999755859</ele>
        <time>2016-09-10T09:28:51.000Z</time>
      </trkpt>
      <trkpt lat="45.47143" lon="5.86236">
        <ele>1227.5999755859</ele>
        <time>2016-09-10T09:28:53.000Z</time>
      </trkpt>
      <trkpt lat="45.47143" lon="5.86236">
        <ele>1227.5999755859</ele>
        <time>2016-09-10T09:28:55.000Z</time>
      </trkpt>
      <trkpt lat="45.47143" lon="5.86236">
        <ele>1227.5999755859</ele>
        <time>2016-09-10T09:28:57.000Z</time>
      </trkpt>
      <trkpt lat="45.47126" lon="5.8624">
        <ele>1225.5999755859</ele>
        <time>2016-09-10T09:29:09.000Z</time>
      </trkpt>
      <trkpt lat="45.47116" lon="5.86242">
        <ele>1224.1999511719</ele>
        <time>2016-09-10T09:29:11.000Z</time>
      </trkpt>
      <trkpt lat="45.47108" lon="5.86242">
        <ele>1223.4000244141</ele>
        <time>2016-09-10T09:29:13.000Z</time>
      </trkpt>
      <trkpt lat="45.47103" lon="5.86242">
        <ele>1222.8000488281</ele>
        <time>2016-09-10T09:29:15.000Z</time>
      </trkpt>
      <trkpt lat="45.47099" lon="5.86243">
        <ele>1222.1999511719</ele>
        <time>2016-09-10T09:29:17.000Z</time>
      </trkpt>
      <trkpt lat="45.47087" lon="5.86244">
        <ele>1220.5999755859</ele>
        <time>2016-09-10T09:29:21.000Z</time>
      </trkpt>
      <trkpt lat="45.47078" lon="5.86245">
        <ele>1219.4000244141</ele>
        <time>2016-09-10T09:29:27.000Z</time>
      </trkpt>
      <trkpt lat="45.47078" lon="5.86245">
        <ele>1219.4000244141</ele>
        <time>2016-09-10T09:29:29.000Z</time>
      </trkpt>
      <trkpt lat="45.47078" lon="5.86245">
        <ele>1219.4000244141</ele>
        <time>2016-09-10T09:29:31.000Z</time>
      </trkpt>
      <trkpt lat="45.47078" lon="5.86245">
        <ele>1219.4000244141</ele>
        <time>2016-09-10T09:29:33.000Z</time>
      </trkpt>
      <trkpt lat="45.47078" lon="5.86245">
        <ele>1219.4000244141</ele>
        <time>2016-09-10T09:29:35.000Z</time>
      </trkpt>
      <trkpt lat="45.47065" lon="5.86256">
        <ele>1216.5999755859</ele>
        <time>2016-09-10T09:29:41.000Z</time>
      </trkpt>
      <trkpt lat="45.47056" lon="5.86261">
        <ele>1214.8000488281</ele>
        <time>2016-09-10T09:29:47.000Z</time>
      </trkpt>
      <trkpt lat="45.47056" lon="5.86261">
        <ele>1214.8000488281</ele>
        <time>2016-09-10T09:29:49.000Z</time>
      </trkpt>
      <trkpt lat="45.47039" lon="5.86271">
        <ele>1213</ele>
        <time>2016-09-10T09:29:59.000Z</time>
      </trkpt>
      <trkpt lat="45.47031" lon="5.8628">
        <ele>1211.4000244141</ele>
        <time>2016-09-10T09:30:07.000Z</time>
      </trkpt>
      <trkpt lat="45.47022" lon="5.86285">
        <ele>1210.1999511719</ele>
        <time>2016-09-10T09:30:13.000Z</time>
      </trkpt>
      <trkpt lat="45.47013" lon="5.86286">
        <ele>1209.1999511719</ele>
        <time>2016-09-10T09:30:19.000Z</time>
      </trkpt>
      <trkpt lat="45.47002" lon="5.86284">
        <ele>1208.8000488281</ele>
        <time>2016-09-10T09:30:27.000Z</time>
      </trkpt>
      <trkpt lat="45.4699" lon="5.86283">
        <ele>1207.1999511719</ele>
        <time>2016-09-10T09:30:35.000Z</time>
      </trkpt>
      <trkpt lat="45.46985" lon="5.86283">
        <ele>1206.4000244141</ele>
        <time>2016-09-10T09:30:43.000Z</time>
      </trkpt>
      <trkpt lat="45.4698" lon="5.86283">
        <ele>1205.5999755859</ele>
        <time>2016-09-10T09:30:47.000Z</time>
      </trkpt>
      <trkpt lat="45.46974" lon="5.86282">
        <ele>1205</ele>
        <time>2016-09-10T09:30:51.000Z</time>
      </trkpt>
      <trkpt lat="45.46974" lon="5.86282">
        <ele>1205</ele>
        <time>2016-09-10T09:30:55.000Z</time>
      </trkpt>
      <trkpt lat="45.46974" lon="5.86282">
        <ele>1205</ele>
        <time>2016-09-10T09:30:57.000Z</time>
      </trkpt>
      <trkpt lat="45.46974" lon="5.86282">
        <ele>1205</ele>
        <time>2016-09-10T09:30:59.000Z</time>
      </trkpt>
      <trkpt lat="45.46974" lon="5.86282">
        <ele>1205</ele>
        <time>2016-09-10T09:31:01.000Z</time>
      </trkpt>
      <trkpt lat="45.46963" lon="5.8627">
        <ele>1205</ele>
        <time>2016-09-10T09:31:11.000Z</time>
      </trkpt>
      <trkpt lat="45.46955" lon="5.86263">
        <ele>1205</ele>
        <time>2016-09-10T09:31:13.000Z</time>
      </trkpt>
      <trkpt lat="45.46951" lon="5.86258">
        <ele>1205</ele>
        <time>2016-09-10T09:31:15.000Z</time>
      </trkpt>
      <trkpt lat="45.46945" lon="5.86253">
        <ele>1204.8000488281</ele>
        <time>2016-09-10T09:31:19.000Z</time>
      </trkpt>
      <trkpt lat="45.4694" lon="5.8625">
        <ele>1204.8000488281</ele>
        <time>2016-09-10T09:31:23.000Z</time>
      </trkpt>
      <trkpt lat="45.46934" lon="5.86247">
        <ele>1204.5999755859</ele>
        <time>2016-09-10T09:31:27.000Z</time>
      </trkpt>
      <trkpt lat="45.4693" lon="5.86246">
        <ele>1204.5999755859</ele>
        <time>2016-09-10T09:31:29.000Z</time>
      </trkpt>
      <trkpt lat="45.46924" lon="5.86243">
        <ele>1204.4000244141</ele>
        <time>2016-09-10T09:31:33.000Z</time>
      </trkpt>
      <trkpt lat="45.46919" lon="5.86241">
        <ele>1204</ele>
        <time>2016-09-10T09:31:35.000Z</time>
      </trkpt>
      <trkpt lat="45.46913" lon="5.86241">
        <ele>1203.4000244141</ele>
        <time>2016-09-10T09:31:39.000Z</time>
      </trkpt>
      <trkpt lat="45.46908" lon="5.8624">
        <ele>1203</ele>
        <time>2016-09-10T09:31:41.000Z</time>
      </trkpt>
      <trkpt lat="45.46902" lon="5.86239">
        <ele>1202.5999755859</ele>
        <time>2016-09-10T09:31:45.000Z</time>
      </trkpt>
      <trkpt lat="45.46897" lon="5.86238">
        <ele>1202.1999511719</ele>
        <time>2016-09-10T09:31:49.000Z</time>
      </trkpt>
      <trkpt lat="45.46892" lon="5.86236">
        <ele>1201.8000488281</ele>
        <time>2016-09-10T09:31:51.000Z</time>
      </trkpt>
      <trkpt lat="45.46886" lon="5.86236">
        <ele>1201.1999511719</ele>
        <time>2016-09-10T09:31:55.000Z</time>
      </trkpt>
      <trkpt lat="45.46881" lon="5.86238">
        <ele>1200.4000244141</ele>
        <time>2016-09-10T09:31:59.000Z</time>
      </trkpt>
      <trkpt lat="45.46875" lon="5.86238">
        <ele>1199.8000488281</ele>
        <time>2016-09-10T09:32:03.000Z</time>
      </trkpt>
      <trkpt lat="45.46871" lon="5.86236">
        <ele>1199.5999755859</ele>
        <time>2016-09-10T09:32:05.000Z</time>
      </trkpt>
      <trkpt lat="45.46865" lon="5.86235">
        <ele>1199.1999511719</ele>
        <time>2016-09-10T09:32:09.000Z</time>
      </trkpt>
      <trkpt lat="45.46859" lon="5.86234">
        <ele>1198.8000488281</ele>
        <time>2016-09-10T09:32:13.000Z</time>
      </trkpt>
      <trkpt lat="45.46854" lon="5.86233">
        <ele>1198.4000244141</ele>
        <time>2016-09-10T09:32:17.000Z</time>
      </trkpt>
      <trkpt lat="45.46848" lon="5.86232">
        <ele>1198.1999511719</ele>
        <time>2016-09-10T09:32:21.000Z</time>
      </trkpt>
      <trkpt lat="45.46842" lon="5.86232">
        <ele>1197.8000488281</ele>
        <time>2016-09-10T09:32:25.000Z</time>
      </trkpt>
      <trkpt lat="45.46836" lon="5.86232">
        <ele>1197.1999511719</ele>
        <time>2016-09-10T09:32:29.000Z</time>
      </trkpt>
      <trkpt lat="45.46836" lon="5.86232">
        <ele>1197.1999511719</ele>
        <time>2016-09-10T09:32:31.000Z</time>
      </trkpt>
      <trkpt lat="45.46836" lon="5.86232">
        <ele>1197.1999511719</ele>
        <time>2016-09-10T09:32:33.000Z</time>
      </trkpt>
      <trkpt lat="45.46827" lon="5.86233">
        <ele>1196.4000244141</ele>
        <time>2016-09-10T09:32:39.000Z</time>
      </trkpt>
      <trkpt lat="45.4682" lon="5.86234">
        <ele>1195.8000488281</ele>
        <time>2016-09-10T09:32:41.000Z</time>
      </trkpt>
      <trkpt lat="45.46815" lon="5.86235">
        <ele>1195.4000244141</ele>
        <time>2016-09-10T09:32:45.000Z</time>
      </trkpt>
      <trkpt lat="45.4681" lon="5.86236">
        <ele>1194.8000488281</ele>
        <time>2016-09-10T09:32:47.000Z</time>
      </trkpt>
      <trkpt lat="45.4681" lon="5.86236">
        <ele>1194.8000488281</ele>
        <time>2016-09-10T09:32:51.000Z</time>
      </trkpt>
      <trkpt lat="45.4681" lon="5.86236">
        <ele>1194.8000488281</ele>
        <time>2016-09-10T09:32:53.000Z</time>
      </trkpt>
      <trkpt lat="45.4681" lon="5.86236">
        <ele>1194.8000488281</ele>
        <time>2016-09-10T09:32:55.000Z</time>
      </trkpt>
      <trkpt lat="45.4681" lon="5.86236">
        <ele>1194.8000488281</ele>
        <time>2016-09-10T09:32:57.000Z</time>
      </trkpt>
      <trkpt lat="45.46799" lon="5.86234">
        <ele>1194.5999755859</ele>
        <time>2016-09-10T09:33:01.000Z</time>
      </trkpt>
      <trkpt lat="45.46793" lon="5.86233">
        <ele>1194.4000244141</ele>
        <time>2016-09-10T09:33:03.000Z</time>
      </trkpt>
      <trkpt lat="45.46787" lon="5.86232">
        <ele>1194.4000244141</ele>
        <time>2016-09-10T09:33:05.000Z</time>
      </trkpt>
      <trkpt lat="45.46782" lon="5.86233">
        <ele>1194.1999511719</ele>
        <time>2016-09-10T09:33:09.000Z</time>
      </trkpt>
      <trkpt lat="45.46776" lon="5.86233">
        <ele>1193.8000488281</ele>
        <time>2016-09-10T09:33:13.000Z</time>
      </trkpt>
      <trkpt lat="45.46771" lon="5.86232">
        <ele>1193.5999755859</ele>
        <time>2016-09-10T09:33:15.000Z</time>
      </trkpt>
      <trkpt lat="45.46766" lon="5.86232">
        <ele>1193.1999511719</ele>
        <time>2016-09-10T09:33:19.000Z</time>
      </trkpt>
      <trkpt lat="45.4676" lon="5.86231">
        <ele>1192.8000488281</ele>
        <time>2016-09-10T09:33:23.000Z</time>
      </trkpt>
      <trkpt lat="45.4676" lon="5.86231">
        <ele>1192.8000488281</ele>
        <time>2016-09-10T09:33:25.000Z</time>
      </trkpt>
      <trkpt lat="45.4676" lon="5.86231">
        <ele>1192.8000488281</ele>
        <time>2016-09-10T09:33:27.000Z</time>
      </trkpt>
      <trkpt lat="45.46755" lon="5.86233">
        <ele>1192.4000244141</ele>
        <time>2016-09-10T09:33:33.000Z</time>
      </trkpt>
      <trkpt lat="45.4675" lon="5.86234">
        <ele>1191.8000488281</ele>
        <time>2016-09-10T09:33:37.000Z</time>
      </trkpt>
      <trkpt lat="45.4675" lon="5.86234">
        <ele>1191.8000488281</ele>
        <time>2016-09-10T09:33:39.000Z</time>
      </trkpt>
      <trkpt lat="45.4675" lon="5.86234">
        <ele>1191.8000488281</ele>
        <time>2016-09-10T09:33:41.000Z</time>
      </trkpt>
      <trkpt lat="45.46743" lon="5.86234">
        <ele>1191.4000244141</ele>
        <time>2016-09-10T09:33:59.000Z</time>
      </trkpt>
      <trkpt lat="45.46737" lon="5.86234">
        <ele>1191.1999511719</ele>
        <time>2016-09-10T09:34:01.000Z</time>
      </trkpt>
      <trkpt lat="45.46731" lon="5.86234">
        <ele>1191.1999511719</ele>
        <time>2016-09-10T09:34:05.000Z</time>
      </trkpt>
      <trkpt lat="45.46726" lon="5.86234">
        <ele>1191</ele>
        <time>2016-09-10T09:34:07.000Z</time>
      </trkpt>
      <trkpt lat="45.46721" lon="5.86234">
        <ele>1190.8000488281</ele>
        <time>2016-09-10T09:34:11.000Z</time>
      </trkpt>
      <trkpt lat="45.46716" lon="5.86236">
        <ele>1190.4000244141</ele>
        <time>2016-09-10T09:34:15.000Z</time>
      </trkpt>
      <trkpt lat="45.46711" lon="5.86237">
        <ele>1190</ele>
        <time>2016-09-10T09:34:19.000Z</time>
      </trkpt>
      <trkpt lat="45.46706" lon="5.86239">
        <ele>1189.4000244141</ele>
        <time>2016-09-10T09:34:23.000Z</time>
      </trkpt>
      <trkpt lat="45.46701" lon="5.86242">
        <ele>1189</ele>
        <time>2016-09-10T09:34:27.000Z</time>
      </trkpt>
      <trkpt lat="45.46696" lon="5.86243">
        <ele>1188.8000488281</ele>
        <time>2016-09-10T09:34:29.000Z</time>
      </trkpt>
      <trkpt lat="45.46691" lon="5.86244">
        <ele>1188.5999755859</ele>
        <time>2016-09-10T09:34:33.000Z</time>
      </trkpt>
      <trkpt lat="45.46685" lon="5.86246">
        <ele>1188.1999511719</ele>
        <time>2016-09-10T09:34:37.000Z</time>
      </trkpt>
      <trkpt lat="45.4668" lon="5.86248">
        <ele>1187.8000488281</ele>
        <time>2016-09-10T09:34:39.000Z</time>
      </trkpt>
      <trkpt lat="45.46676" lon="5.86251">
        <ele>1187.4000244141</ele>
        <time>2016-09-10T09:34:43.000Z</time>
      </trkpt>
      <trkpt lat="45.46672" lon="5.86256">
        <ele>1186.5999755859</ele>
        <time>2016-09-10T09:34:47.000Z</time>
      </trkpt>
      <trkpt lat="45.46667" lon="5.86262">
        <ele>1185.8000488281</ele>
        <time>2016-09-10T09:34:51.000Z</time>
      </trkpt>
      <trkpt lat="45.46663" lon="5.86267">
        <ele>1185</ele>
        <time>2016-09-10T09:34:55.000Z</time>
      </trkpt>
      <trkpt lat="45.46658" lon="5.86271">
        <ele>1184.4000244141</ele>
        <time>2016-09-10T09:34:59.000Z</time>
      </trkpt>
      <trkpt lat="45.46653" lon="5.86276">
        <ele>1183.8000488281</ele>
        <time>2016-09-10T09:35:03.000Z</time>
      </trkpt>
      <trkpt lat="45.46649" lon="5.86279">
        <ele>1183.1999511719</ele>
        <time>2016-09-10T09:35:05.000Z</time>
      </trkpt>
      <trkpt lat="45.46645" lon="5.86283">
        <ele>1182.8000488281</ele>
        <time>2016-09-10T09:35:09.000Z</time>
      </trkpt>
      <trkpt lat="45.46641" lon="5.86286">
        <ele>1182.4000244141</ele>
        <time>2016-09-10T09:35:11.000Z</time>
      </trkpt>
      <trkpt lat="45.46636" lon="5.86289">
        <ele>1182</ele>
        <time>2016-09-10T09:35:15.000Z</time>
      </trkpt>
      <trkpt lat="45.46631" lon="5.86291">
        <ele>1181.8000488281</ele>
        <time>2016-09-10T09:35:19.000Z</time>
      </trkpt>
      <trkpt lat="45.46631" lon="5.86291">
        <ele>1181.8000488281</ele>
        <time>2016-09-10T09:35:21.000Z</time>
      </trkpt>
      <trkpt lat="45.46631" lon="5.86291">
        <ele>1181.8000488281</ele>
        <time>2016-09-10T09:35:23.000Z</time>
      </trkpt>
      <trkpt lat="45.46631" lon="5.86291">
        <ele>1181.8000488281</ele>
        <time>2016-09-10T09:35:25.000Z</time>
      </trkpt>
      <trkpt lat="45.46631" lon="5.86291">
        <ele>1181.8000488281</ele>
        <time>2016-09-10T09:35:27.000Z</time>
      </trkpt>
      <trkpt lat="45.46618" lon="5.86297">
        <ele>1181.4000244141</ele>
        <time>2016-09-10T09:35:33.000Z</time>
      </trkpt>
      <trkpt lat="45.46611" lon="5.86301">
        <ele>1181</ele>
        <time>2016-09-10T09:35:35.000Z</time>
      </trkpt>
      <trkpt lat="45.46605" lon="5.86305">
        <ele>1180.5999755859</ele>
        <time>2016-09-10T09:35:37.000Z</time>
      </trkpt>
      <trkpt lat="45.46601" lon="5.86307">
        <ele>1180.1999511719</ele>
        <time>2016-09-10T09:35:39.000Z</time>
      </trkpt>
      <trkpt lat="45.46596" lon="5.8631">
        <ele>1179.8000488281</ele>
        <time>2016-09-10T09:35:43.000Z</time>
      </trkpt>
      <trkpt lat="45.4659" lon="5.86312">
        <ele>1179.4000244141</ele>
        <time>2016-09-10T09:35:47.000Z</time>
      </trkpt>
      <trkpt lat="45.46586" lon="5.86315">
        <ele>1179.1999511719</ele>
        <time>2016-09-10T09:35:49.000Z</time>
      </trkpt>
      <trkpt lat="45.46582" lon="5.86318">
        <ele>1178.5999755859</ele>
        <time>2016-09-10T09:35:53.000Z</time>
      </trkpt>
      <trkpt lat="45.46582" lon="5.86318">
        <ele>1178.5999755859</ele>
        <time>2016-09-10T09:35:55.000Z</time>
      </trkpt>
      <trkpt lat="45.46582" lon="5.86318">
        <ele>1178.5999755859</ele>
        <time>2016-09-10T09:35:57.000Z</time>
      </trkpt>
      <trkpt lat="45.46582" lon="5.86318">
        <ele>1178.5999755859</ele>
        <time>2016-09-10T09:35:59.000Z</time>
      </trkpt>
      <trkpt lat="45.46582" lon="5.86318">
        <ele>1178.5999755859</ele>
        <time>2016-09-10T09:36:01.000Z</time>
      </trkpt>
      <trkpt lat="45.46582" lon="5.86318">
        <ele>1178.5999755859</ele>
        <time>2016-09-10T09:36:03.000Z</time>
      </trkpt>
      <trkpt lat="45.46577" lon="5.86323">
        <ele>1177.8000488281</ele>
        <time>2016-09-10T09:36:05.000Z</time>
      </trkpt>
      <trkpt lat="45.46572" lon="5.86324">
        <ele>1177.4000244141</ele>
        <time>2016-09-10T09:36:09.000Z</time>
      </trkpt>
      <trkpt lat="45.46572" lon="5.86324">
        <ele>1177.4000244141</ele>
        <time>2016-09-10T09:36:11.000Z</time>
      </trkpt>
      <trkpt lat="45.46566" lon="5.86324">
        <ele>1177.1999511719</ele>
        <time>2016-09-10T09:36:13.000Z</time>
      </trkpt>
      <trkpt lat="45.46566" lon="5.86324">
        <ele>1177.1999511719</ele>
        <time>2016-09-10T09:36:21.000Z</time>
      </trkpt>
      <trkpt lat="45.46566" lon="5.86324">
        <ele>1177.1999511719</ele>
        <time>2016-09-10T09:36:23.000Z</time>
      </trkpt>
      <trkpt lat="45.46566" lon="5.86324">
        <ele>1177.1999511719</ele>
        <time>2016-09-10T09:36:25.000Z</time>
      </trkpt>
      <trkpt lat="45.46555" lon="5.86319">
        <ele>1177.5999755859</ele>
        <time>2016-09-10T09:36:29.000Z</time>
      </trkpt>
      <trkpt lat="45.46548" lon="5.86315">
        <ele>1178</ele>
        <time>2016-09-10T09:36:31.000Z</time>
      </trkpt>
      <trkpt lat="45.46548" lon="5.86315">
        <ele>1178</ele>
        <time>2016-09-10T09:36:33.000Z</time>
      </trkpt>
      <trkpt lat="45.46548" lon="5.86315">
        <ele>1178</ele>
        <time>2016-09-10T09:36:35.000Z</time>
      </trkpt>
      <trkpt lat="45.46548" lon="5.86315">
        <ele>1178</ele>
        <time>2016-09-10T09:36:37.000Z</time>
      </trkpt>
      <trkpt lat="45.46548" lon="5.86315">
        <ele>1178</ele>
        <time>2016-09-10T09:36:39.000Z</time>
      </trkpt>
      <trkpt lat="45.46548" lon="5.86315">
        <ele>1178</ele>
        <time>2016-09-10T09:36:41.000Z</time>
      </trkpt>
      <trkpt lat="45.46548" lon="5.86315">
        <ele>1178</ele>
        <time>2016-09-10T09:36:43.000Z</time>
      </trkpt>
      <trkpt lat="45.46538" lon="5.86304">
        <ele>1179.1999511719</ele>
        <time>2016-09-10T09:36:51.000Z</time>
      </trkpt>
      <trkpt lat="45.46531" lon="5.86297">
        <ele>1180</ele>
        <time>2016-09-10T09:36:53.000Z</time>
      </trkpt>
      <trkpt lat="45.46526" lon="5.86293">
        <ele>1180.4000244141</ele>
        <time>2016-09-10T09:36:55.000Z</time>
      </trkpt>
      <trkpt lat="45.46522" lon="5.86289">
        <ele>1180.8000488281</ele>
        <time>2016-09-10T09:36:57.000Z</time>
      </trkpt>
      <trkpt lat="45.46518" lon="5.86285">
        <ele>1181</ele>
        <time>2016-09-10T09:37:01.000Z</time>
      </trkpt>
      <trkpt lat="45.46518" lon="5.86285">
        <ele>1181</ele>
        <time>2016-09-10T09:37:03.000Z</time>
      </trkpt>
      <trkpt lat="45.46518" lon="5.86285">
        <ele>1181</ele>
        <time>2016-09-10T09:37:09.000Z</time>
      </trkpt>
      <trkpt lat="45.46518" lon="5.86285">
        <ele>1181</ele>
        <time>2016-09-10T09:37:11.000Z</time>
      </trkpt>
      <trkpt lat="45.46518" lon="5.86285">
        <ele>1181</ele>
        <time>2016-09-10T09:37:13.000Z</time>
      </trkpt>
      <trkpt lat="45.46518" lon="5.86285">
        <ele>1181</ele>
        <time>2016-09-10T09:37:15.000Z</time>
      </trkpt>
      <trkpt lat="45.46505" lon="5.86274">
        <ele>1181.5999755859</ele>
        <time>2016-09-10T09:37:21.000Z</time>
      </trkpt>
      <trkpt lat="45.46497" lon="5.86267">
        <ele>1181.8000488281</ele>
        <time>2016-09-10T09:37:23.000Z</time>
      </trkpt>
      <trkpt lat="45.46492" lon="5.86263">
        <ele>1181.8000488281</ele>
        <time>2016-09-10T09:37:25.000Z</time>
      </trkpt>
      <trkpt lat="45.46486" lon="5.8626">
        <ele>1182</ele>
        <time>2016-09-10T09:37:29.000Z</time>
      </trkpt>
      <trkpt lat="45.4648" lon="5.86257">
        <ele>1182.1999511719</ele>
        <time>2016-09-10T09:37:33.000Z</time>
      </trkpt>
      <trkpt lat="45.46475" lon="5.86255">
        <ele>1182.5999755859</ele>
        <time>2016-09-10T09:37:37.000Z</time>
      </trkpt>
      <trkpt lat="45.46469" lon="5.86254">
        <ele>1183</ele>
        <time>2016-09-10T09:37:41.000Z</time>
      </trkpt>
      <trkpt lat="45.46463" lon="5.86253">
        <ele>1183.8000488281</ele>
        <time>2016-09-10T09:37:45.000Z</time>
      </trkpt>
      <trkpt lat="45.46458" lon="5.86253">
        <ele>1184.4000244141</ele>
        <time>2016-09-10T09:37:49.000Z</time>
      </trkpt>
      <trkpt lat="45.46452" lon="5.86252">
        <ele>1185.1999511719</ele>
        <time>2016-09-10T09:37:53.000Z</time>
      </trkpt>
      <trkpt lat="45.46446" lon="5.86252">
        <ele>1185.8000488281</ele>
        <time>2016-09-10T09:37:57.000Z</time>
      </trkpt>
      <trkpt lat="45.46441" lon="5.86251">
        <ele>1186.5999755859</ele>
        <time>2016-09-10T09:38:01.000Z</time>
      </trkpt>
      <trkpt lat="45.46436" lon="5.8625">
        <ele>1187.5999755859</ele>
        <time>2016-09-10T09:38:05.000Z</time>
      </trkpt>
      <trkpt lat="45.46431" lon="5.8625">
        <ele>1188.1999511719</ele>
        <time>2016-09-10T09:38:09.000Z</time>
      </trkpt>
      <trkpt lat="45.46426" lon="5.86249">
        <ele>1188.8000488281</ele>
        <time>2016-09-10T09:38:13.000Z</time>
      </trkpt>
      <trkpt lat="45.4642" lon="5.86248">
        <ele>1189.5999755859</ele>
        <time>2016-09-10T09:38:17.000Z</time>
      </trkpt>
      <trkpt lat="45.46415" lon="5.86247">
        <ele>1190.4000244141</ele>
        <time>2016-09-10T09:38:21.000Z</time>
      </trkpt>
      <trkpt lat="45.4641" lon="5.86246">
        <ele>1191</ele>
        <time>2016-09-10T09:38:25.000Z</time>
      </trkpt>
      <trkpt lat="45.46404" lon="5.86245">
        <ele>1191.5999755859</ele>
        <time>2016-09-10T09:38:29.000Z</time>
      </trkpt>
      <trkpt lat="45.46399" lon="5.86242">
        <ele>1192.4000244141</ele>
        <time>2016-09-10T09:38:33.000Z</time>
      </trkpt>
      <trkpt lat="45.46394" lon="5.8624">
        <ele>1193.1999511719</ele>
        <time>2016-09-10T09:38:37.000Z</time>
      </trkpt>
      <trkpt lat="45.46389" lon="5.86239">
        <ele>1194</ele>
        <time>2016-09-10T09:38:41.000Z</time>
      </trkpt>
      <trkpt lat="45.46383" lon="5.86237">
        <ele>1194.4000244141</ele>
        <time>2016-09-10T09:38:45.000Z</time>
      </trkpt>
      <trkpt lat="45.46383" lon="5.86237">
        <ele>1194.4000244141</ele>
        <time>2016-09-10T09:38:47.000Z</time>
      </trkpt>
      <trkpt lat="45.46383" lon="5.86237">
        <ele>1194.4000244141</ele>
        <time>2016-09-10T09:38:49.000Z</time>
      </trkpt>
      <trkpt lat="45.46383" lon="5.86237">
        <ele>1194.4000244141</ele>
        <time>2016-09-10T09:38:51.000Z</time>
      </trkpt>
      <trkpt lat="45.46383" lon="5.86237">
        <ele>1194.4000244141</ele>
        <time>2016-09-10T09:38:53.000Z</time>
      </trkpt>
      <trkpt lat="45.46375" lon="5.86232">
        <ele>1195.4000244141</ele>
        <time>2016-09-10T09:38:57.000Z</time>
      </trkpt>
      <trkpt lat="45.46369" lon="5.86229">
        <ele>1196</ele>
        <time>2016-09-10T09:38:59.000Z</time>
      </trkpt>
      <trkpt lat="45.46364" lon="5.86225">
        <ele>1196.5999755859</ele>
        <time>2016-09-10T09:39:03.000Z</time>
      </trkpt>
      <trkpt lat="45.4636" lon="5.8622">
        <ele>1197.4000244141</ele>
        <time>2016-09-10T09:39:07.000Z</time>
      </trkpt>
      <trkpt lat="45.46355" lon="5.86215">
        <ele>1198.4000244141</ele>
        <time>2016-09-10T09:39:11.000Z</time>
      </trkpt>
      <trkpt lat="45.4635" lon="5.86209">
        <ele>1199.5999755859</ele>
        <time>2016-09-10T09:39:15.000Z</time>
      </trkpt>
      <trkpt lat="45.46346" lon="5.86203">
        <ele>1200.5999755859</ele>
        <time>2016-09-10T09:39:19.000Z</time>
      </trkpt>
      <trkpt lat="45.46342" lon="5.86197">
        <ele>1201.1999511719</ele>
        <time>2016-09-10T09:39:23.000Z</time>
      </trkpt>
      <trkpt lat="45.46339" lon="5.86191">
        <ele>1201.8000488281</ele>
        <time>2016-09-10T09:39:27.000Z</time>
      </trkpt>
      <trkpt lat="45.46335" lon="5.86185">
        <ele>1202.4000244141</ele>
        <time>2016-09-10T09:39:31.000Z</time>
      </trkpt>
      <trkpt lat="45.46331" lon="5.86179">
        <ele>1202.8000488281</ele>
        <time>2016-09-10T09:39:35.000Z</time>
      </trkpt>
      <trkpt lat="45.46327" lon="5.86173">
        <ele>1202.4000244141</ele>
        <time>2016-09-10T09:39:39.000Z</time>
      </trkpt>
      <trkpt lat="45.46324" lon="5.86166">
        <ele>1201.8000488281</ele>
        <time>2016-09-10T09:39:43.000Z</time>
      </trkpt>
      <trkpt lat="45.46321" lon="5.86159">
        <ele>1201.4000244141</ele>
        <time>2016-09-10T09:39:47.000Z</time>
      </trkpt>
      <trkpt lat="45.46318" lon="5.86152">
        <ele>1201</ele>
        <time>2016-09-10T09:39:51.000Z</time>
      </trkpt>
      <trkpt lat="45.46316" lon="5.86145">
        <ele>1200.4000244141</ele>
        <time>2016-09-10T09:39:55.000Z</time>
      </trkpt>
      <trkpt lat="45.46314" lon="5.86137">
        <ele>1200</ele>
        <time>2016-09-10T09:39:59.000Z</time>
      </trkpt>
      <trkpt lat="45.46313" lon="5.86129">
        <ele>1199.5999755859</ele>
        <time>2016-09-10T09:40:03.000Z</time>
      </trkpt>
      <trkpt lat="45.46313" lon="5.8612">
        <ele>1199.5999755859</ele>
        <time>2016-09-10T09:40:07.000Z</time>
      </trkpt>
      <trkpt lat="45.46313" lon="5.86114">
        <ele>1199.8000488281</ele>
        <time>2016-09-10T09:40:09.000Z</time>
      </trkpt>
      <trkpt lat="45.46313" lon="5.86107">
        <ele>1200</ele>
        <time>2016-09-10T09:40:13.000Z</time>
      </trkpt>
      <trkpt lat="45.46313" lon="5.86107">
        <ele>1200</ele>
        <time>2016-09-10T09:40:15.000Z</time>
      </trkpt>
      <trkpt lat="45.46313" lon="5.86107">
        <ele>1200</ele>
        <time>2016-09-10T09:40:17.000Z</time>
      </trkpt>
      <trkpt lat="45.46313" lon="5.86107">
        <ele>1200</ele>
        <time>2016-09-10T09:40:19.000Z</time>
      </trkpt>
      <trkpt lat="45.46313" lon="5.86093">
        <ele>1200.4000244141</ele>
        <time>2016-09-10T09:40:33.000Z</time>
      </trkpt>
      <trkpt lat="45.46313" lon="5.86084">
        <ele>1200.5999755859</ele>
        <time>2016-09-10T09:40:35.000Z</time>
      </trkpt>
      <trkpt lat="45.46313" lon="5.86077">
        <ele>1200.8000488281</ele>
        <time>2016-09-10T09:40:37.000Z</time>
      </trkpt>
      <trkpt lat="45.46313" lon="5.86077">
        <ele>1200.8000488281</ele>
        <time>2016-09-10T09:40:39.000Z</time>
      </trkpt>
      <trkpt lat="45.46313" lon="5.86077">
        <ele>1200.8000488281</ele>
        <time>2016-09-10T09:40:41.000Z</time>
      </trkpt>
      <trkpt lat="45.46313" lon="5.86065">
        <ele>1201</ele>
        <time>2016-09-10T09:40:45.000Z</time>
      </trkpt>
      <trkpt lat="45.46313" lon="5.86056">
        <ele>1201.1999511719</ele>
        <time>2016-09-10T09:40:47.000Z</time>
      </trkpt>
      <trkpt lat="45.46312" lon="5.8605">
        <ele>1201.4000244141</ele>
        <time>2016-09-10T09:40:49.000Z</time>
      </trkpt>
      <trkpt lat="45.4631" lon="5.86042">
        <ele>1201.4000244141</ele>
        <time>2016-09-10T09:40:53.000Z</time>
      </trkpt>
      <trkpt lat="45.46308" lon="5.86035">
        <ele>1201.4000244141</ele>
        <time>2016-09-10T09:40:57.000Z</time>
      </trkpt>
      <trkpt lat="45.46305" lon="5.86028">
        <ele>1201.4000244141</ele>
        <time>2016-09-10T09:41:01.000Z</time>
      </trkpt>
      <trkpt lat="45.46302" lon="5.8602">
        <ele>1201.4000244141</ele>
        <time>2016-09-10T09:41:05.000Z</time>
      </trkpt>
      <trkpt lat="45.46302" lon="5.8602">
        <ele>1201.4000244141</ele>
        <time>2016-09-10T09:41:09.000Z</time>
      </trkpt>
      <trkpt lat="45.46302" lon="5.8602">
        <ele>1201.4000244141</ele>
        <time>2016-09-10T09:41:11.000Z</time>
      </trkpt>
      <trkpt lat="45.46302" lon="5.8602">
        <ele>1201.4000244141</ele>
        <time>2016-09-10T09:41:13.000Z</time>
      </trkpt>
      <trkpt lat="45.46302" lon="5.8602">
        <ele>1201.4000244141</ele>
        <time>2016-09-10T09:41:15.000Z</time>
      </trkpt>
      <trkpt lat="45.46298" lon="5.86006">
        <ele>1202.1999511719</ele>
        <time>2016-09-10T09:41:21.000Z</time>
      </trkpt>
      <trkpt lat="45.46295" lon="5.85997">
        <ele>1203.1999511719</ele>
        <time>2016-09-10T09:41:23.000Z</time>
      </trkpt>
      <trkpt lat="45.46293" lon="5.85991">
        <ele>1203.8000488281</ele>
        <time>2016-09-10T09:41:25.000Z</time>
      </trkpt>
      <trkpt lat="45.4629" lon="5.85985">
        <ele>1204.5999755859</ele>
        <time>2016-09-10T09:41:29.000Z</time>
      </trkpt>
      <trkpt lat="45.46288" lon="5.85978">
        <ele>1205.4000244141</ele>
        <time>2016-09-10T09:41:33.000Z</time>
      </trkpt>
      <trkpt lat="45.46282" lon="5.85967">
        <ele>1207</ele>
        <time>2016-09-10T09:41:43.000Z</time>
      </trkpt>
      <trkpt lat="45.46278" lon="5.85961">
        <ele>1208</ele>
        <time>2016-09-10T09:41:45.000Z</time>
      </trkpt>
      <trkpt lat="45.46274" lon="5.85954">
        <ele>1209</ele>
        <time>2016-09-10T09:41:49.000Z</time>
      </trkpt>
      <trkpt lat="45.46269" lon="5.85949">
        <ele>1209.8000488281</ele>
        <time>2016-09-10T09:41:53.000Z</time>
      </trkpt>
      <trkpt lat="45.46265" lon="5.85944">
        <ele>1210.4000244141</ele>
        <time>2016-09-10T09:41:57.000Z</time>
      </trkpt>
      <trkpt lat="45.4626" lon="5.8594">
        <ele>1211.1999511719</ele>
        <time>2016-09-10T09:42:01.000Z</time>
      </trkpt>
      <trkpt lat="45.46255" lon="5.85935">
        <ele>1211.8000488281</ele>
        <time>2016-09-10T09:42:05.000Z</time>
      </trkpt>
      <trkpt lat="45.46251" lon="5.8593">
        <ele>1212.5999755859</ele>
        <time>2016-09-10T09:42:09.000Z</time>
      </trkpt>
      <trkpt lat="45.46247" lon="5.85925">
        <ele>1213</ele>
        <time>2016-09-10T09:42:13.000Z</time>
      </trkpt>
      <trkpt lat="45.46243" lon="5.8592">
        <ele>1213.4000244141</ele>
        <time>2016-09-10T09:42:17.000Z</time>
      </trkpt>
      <trkpt lat="45.46238" lon="5.85915">
        <ele>1213.8000488281</ele>
        <time>2016-09-10T09:42:21.000Z</time>
      </trkpt>
      <trkpt lat="45.46233" lon="5.8591">
        <ele>1214.1999511719</ele>
        <time>2016-09-10T09:42:25.000Z</time>
      </trkpt>
      <trkpt lat="45.46228" lon="5.85905">
        <ele>1214.5999755859</ele>
        <time>2016-09-10T09:42:29.000Z</time>
      </trkpt>
      <trkpt lat="45.46224" lon="5.85902">
        <ele>1214.8000488281</ele>
        <time>2016-09-10T09:42:31.000Z</time>
      </trkpt>
      <trkpt lat="45.46219" lon="5.85898">
        <ele>1214.8000488281</ele>
        <time>2016-09-10T09:42:35.000Z</time>
      </trkpt>
      <trkpt lat="45.46219" lon="5.85898">
        <ele>1214.8000488281</ele>
        <time>2016-09-10T09:42:37.000Z</time>
      </trkpt>
      <trkpt lat="45.46219" lon="5.85898">
        <ele>1214.8000488281</ele>
        <time>2016-09-10T09:42:39.000Z</time>
      </trkpt>
      <trkpt lat="45.46215" lon="5.85893">
        <ele>1214.8000488281</ele>
        <time>2016-09-10T09:42:41.000Z</time>
      </trkpt>
      <trkpt lat="45.46209" lon="5.85888">
        <ele>1214.8000488281</ele>
        <time>2016-09-10T09:42:45.000Z</time>
      </trkpt>
      <trkpt lat="45.46206" lon="5.85884">
        <ele>1214.8000488281</ele>
        <time>2016-09-10T09:42:47.000Z</time>
      </trkpt>
      <trkpt lat="45.462" lon="5.85879">
        <ele>1214.8000488281</ele>
        <time>2016-09-10T09:42:51.000Z</time>
      </trkpt>
      <trkpt lat="45.46196" lon="5.85875">
        <ele>1214.8000488281</ele>
        <time>2016-09-10T09:42:53.000Z</time>
      </trkpt>
      <trkpt lat="45.46192" lon="5.85872">
        <ele>1214.5999755859</ele>
        <time>2016-09-10T09:42:57.000Z</time>
      </trkpt>
      <trkpt lat="45.46192" lon="5.85872">
        <ele>1214.5999755859</ele>
        <time>2016-09-10T09:42:59.000Z</time>
      </trkpt>
      <trkpt lat="45.46192" lon="5.85872">
        <ele>1214.5999755859</ele>
        <time>2016-09-10T09:43:01.000Z</time>
      </trkpt>
      <trkpt lat="45.4618" lon="5.85869">
        <ele>1213</ele>
        <time>2016-09-10T09:43:11.000Z</time>
      </trkpt>
      <trkpt lat="45.46172" lon="5.85868">
        <ele>1211.8000488281</ele>
        <time>2016-09-10T09:43:13.000Z</time>
      </trkpt>
      <trkpt lat="45.46167" lon="5.85867">
        <ele>1211</ele>
        <time>2016-09-10T09:43:15.000Z</time>
      </trkpt>
      <trkpt lat="45.46161" lon="5.85868">
        <ele>1210.1999511719</ele>
        <time>2016-09-10T09:43:19.000Z</time>
      </trkpt>
      <trkpt lat="45.46155" lon="5.8587">
        <ele>1209.4000244141</ele>
        <time>2016-09-10T09:43:23.000Z</time>
      </trkpt>
      <trkpt lat="45.46151" lon="5.85871">
        <ele>1209</ele>
        <time>2016-09-10T09:43:25.000Z</time>
      </trkpt>
      <trkpt lat="45.46146" lon="5.85873">
        <ele>1208.4000244141</ele>
        <time>2016-09-10T09:43:29.000Z</time>
      </trkpt>
      <trkpt lat="45.4614" lon="5.85874">
        <ele>1207.8000488281</ele>
        <time>2016-09-10T09:43:33.000Z</time>
      </trkpt>
      <trkpt lat="45.46135" lon="5.85874">
        <ele>1207.5999755859</ele>
        <time>2016-09-10T09:43:37.000Z</time>
      </trkpt>
      <trkpt lat="45.46129" lon="5.85875">
        <ele>1207.1999511719</ele>
        <time>2016-09-10T09:43:41.000Z</time>
      </trkpt>
      <trkpt lat="45.46129" lon="5.85875">
        <ele>1207.1999511719</ele>
        <time>2016-09-10T09:43:43.000Z</time>
      </trkpt>
      <trkpt lat="45.46129" lon="5.85875">
        <ele>1207.1999511719</ele>
        <time>2016-09-10T09:43:45.000Z</time>
      </trkpt>
      <trkpt lat="45.46129" lon="5.85875">
        <ele>1207.1999511719</ele>
        <time>2016-09-10T09:43:47.000Z</time>
      </trkpt>
      <trkpt lat="45.46129" lon="5.85875">
        <ele>1207.1999511719</ele>
        <time>2016-09-10T09:43:49.000Z</time>
      </trkpt>
      <trkpt lat="45.46129" lon="5.85875">
        <ele>1207.1999511719</ele>
        <time>2016-09-10T09:43:55.000Z</time>
      </trkpt>
      <trkpt lat="45.46129" lon="5.85875">
        <ele>1207.1999511719</ele>
        <time>2016-09-10T09:43:57.000Z</time>
      </trkpt>
      <trkpt lat="45.46113" lon="5.85876">
        <ele>1205.8000488281</ele>
        <time>2016-09-10T09:44:15.000Z</time>
      </trkpt>
      <trkpt lat="45.46104" lon="5.85876">
        <ele>1204.5999755859</ele>
        <time>2016-09-10T09:44:17.000Z</time>
      </trkpt>
      <trkpt lat="45.46097" lon="5.85876">
        <ele>1203.5999755859</ele>
        <time>2016-09-10T09:44:19.000Z</time>
      </trkpt>
      <trkpt lat="45.46093" lon="5.85876">
        <ele>1203</ele>
        <time>2016-09-10T09:44:21.000Z</time>
      </trkpt>
      <trkpt lat="45.46087" lon="5.85875">
        <ele>1202.1999511719</ele>
        <time>2016-09-10T09:44:25.000Z</time>
      </trkpt>
      <trkpt lat="45.46082" lon="5.85874">
        <ele>1201.8000488281</ele>
        <time>2016-09-10T09:44:29.000Z</time>
      </trkpt>
      <trkpt lat="45.46076" lon="5.85872">
        <ele>1201.1999511719</ele>
        <time>2016-09-10T09:44:33.000Z</time>
      </trkpt>
      <trkpt lat="45.46076" lon="5.85872">
        <ele>1201.1999511719</ele>
        <time>2016-09-10T09:44:35.000Z</time>
      </trkpt>
      <trkpt lat="45.46076" lon="5.85872">
        <ele>1201.1999511719</ele>
        <time>2016-09-10T09:44:37.000Z</time>
      </trkpt>
      <trkpt lat="45.46066" lon="5.85867">
        <ele>1200.5999755859</ele>
        <time>2016-09-10T09:44:43.000Z</time>
      </trkpt>
      <trkpt lat="45.4606" lon="5.85864">
        <ele>1200</ele>
        <time>2016-09-10T09:44:45.000Z</time>
      </trkpt>
      <trkpt lat="45.46055" lon="5.85862">
        <ele>1199.8000488281</ele>
        <time>2016-09-10T09:44:47.000Z</time>
      </trkpt>
      <trkpt lat="45.46051" lon="5.85859">
        <ele>1199.5999755859</ele>
        <time>2016-09-10T09:44:51.000Z</time>
      </trkpt>
      <trkpt lat="45.46051" lon="5.85859">
        <ele>1199.5999755859</ele>
        <time>2016-09-10T09:44:55.000Z</time>
      </trkpt>
      <trkpt lat="45.46051" lon="5.85859">
        <ele>1199.5999755859</ele>
        <time>2016-09-10T09:44:57.000Z</time>
      </trkpt>
      <trkpt lat="45.46051" lon="5.85859">
        <ele>1199.5999755859</ele>
        <time>2016-09-10T09:44:59.000Z</time>
      </trkpt>
      <trkpt lat="45.46051" lon="5.85859">
        <ele>1199.5999755859</ele>
        <time>2016-09-10T09:45:01.000Z</time>
      </trkpt>
      <trkpt lat="45.46036" lon="5.85851">
        <ele>1199.1999511719</ele>
        <time>2016-09-10T09:45:11.000Z</time>
      </trkpt>
      <trkpt lat="45.46028" lon="5.85846">
        <ele>1199</ele>
        <time>2016-09-10T09:45:13.000Z</time>
      </trkpt>
      <trkpt lat="45.46022" lon="5.85842">
        <ele>1198.8000488281</ele>
        <time>2016-09-10T09:45:15.000Z</time>
      </trkpt>
      <trkpt lat="45.46017" lon="5.85839">
        <ele>1198.8000488281</ele>
        <time>2016-09-10T09:45:19.000Z</time>
      </trkpt>
      <trkpt lat="45.46012" lon="5.85836">
        <ele>1198.8000488281</ele>
        <time>2016-09-10T09:45:23.000Z</time>
      </trkpt>
      <trkpt lat="45.46006" lon="5.85833">
        <ele>1198.5999755859</ele>
        <time>2016-09-10T09:45:27.000Z</time>
      </trkpt>
      <trkpt lat="45.46001" lon="5.8583">
        <ele>1198.5999755859</ele>
        <time>2016-09-10T09:45:31.000Z</time>
      </trkpt>
      <trkpt lat="45.45995" lon="5.85826">
        <ele>1198.4000244141</ele>
        <time>2016-09-10T09:45:35.000Z</time>
      </trkpt>
      <trkpt lat="45.4599" lon="5.85823">
        <ele>1198.1999511719</ele>
        <time>2016-09-10T09:45:39.000Z</time>
      </trkpt>
      <trkpt lat="45.45984" lon="5.8582">
        <ele>1197.8000488281</ele>
        <time>2016-09-10T09:45:43.000Z</time>
      </trkpt>
      <trkpt lat="45.45979" lon="5.85817">
        <ele>1197.5999755859</ele>
        <time>2016-09-10T09:45:47.000Z</time>
      </trkpt>
      <trkpt lat="45.45979" lon="5.85817">
        <ele>1197.5999755859</ele>
        <time>2016-09-10T09:45:49.000Z</time>
      </trkpt>
      <trkpt lat="45.45979" lon="5.85817">
        <ele>1197.5999755859</ele>
        <time>2016-09-10T09:45:51.000Z</time>
      </trkpt>
      <trkpt lat="45.45967" lon="5.85814">
        <ele>1196.8000488281</ele>
        <time>2016-09-10T09:46:01.000Z</time>
      </trkpt>
      <trkpt lat="45.45961" lon="5.85812">
        <ele>1196.5999755859</ele>
        <time>2016-09-10T09:46:03.000Z</time>
      </trkpt>
      <trkpt lat="45.45955" lon="5.8581">
        <ele>1196.1999511719</ele>
        <time>2016-09-10T09:46:07.000Z</time>
      </trkpt>
      <trkpt lat="45.45955" lon="5.8581">
        <ele>1196.1999511719</ele>
        <time>2016-09-10T09:46:09.000Z</time>
      </trkpt>
      <trkpt lat="45.45955" lon="5.8581">
        <ele>1196.1999511719</ele>
        <time>2016-09-10T09:46:11.000Z</time>
      </trkpt>
      <trkpt lat="45.45955" lon="5.8581">
        <ele>1196.1999511719</ele>
        <time>2016-09-10T09:46:13.000Z</time>
      </trkpt>
      <trkpt lat="45.45955" lon="5.8581">
        <ele>1196.1999511719</ele>
        <time>2016-09-10T09:46:23.000Z</time>
      </trkpt>
    </trkseg>
  </trk>
</gpx>